Wetterdaten: Montag, 15.01.2018
Datum Zeit Temp. A. Pool Temp. Feuchte A. Luftdruck Regen Wind Richtung Richtung Sonnenschein ET UV Solar Taupunkt Windchill Windben Empfang
15.01.2018 00:00 -1,1 C 3,3 C 90 % 1023,4 hPa 0,0 l/m 14,6 km/h (3 Bft) O-NO 60 0 min 0,000 mm 0,0 UV-I 0 W/m -2,5 C -8,1 C 22,5 km/h (4 Bft) 95,74 %
15.01.2018 00:02 -1,1 C 3,3 C 90 % 1023,4 hPa 0,0 l/m 12,5 km/h (3 Bft) O-NO 74 0 min 0,000 mm 0,0 UV-I 0 W/m -2,5 C -6,6 C 17,7 km/h (3 Bft) 95,12 %
15.01.2018 00:04 -1,1 C 3,3 C 90 % 1023,4 hPa 0,0 l/m 14,1 km/h (3 Bft) O-NO 66 0 min 0,000 mm 0,0 UV-I 0 W/m -2,5 C -7,7 C 17,7 km/h (3 Bft) 97,87 %
15.01.2018 00:06 -1,1 C 3,3 C 90 % 1023,4 hPa 0,0 l/m 15,8 km/h (3 Bft) O 93 0 min 0,000 mm 0,0 UV-I 0 W/m -2,5 C -8,8 C 22,5 km/h (4 Bft) 97,87 %
15.01.2018 00:08 -1,1 C 3,3 C 90 % 1023,4 hPa 0,0 l/m 15,3 km/h (3 Bft) O-NO 66 0 min 0,000 mm 0,0 UV-I 0 W/m -2,5 C -8,5 C 22,5 km/h (4 Bft) 95,74 %
15.01.2018 00:10 -1,1 C 3,3 C 90 % 1023,4 hPa 0,0 l/m 15,4 km/h (3 Bft) O-NO 69 0 min 0,000 mm 0,0 UV-I 0 W/m -2,5 C -8,6 C 22,5 km/h (4 Bft) 97,87 %
15.01.2018 00:12 -1,1 C 3,3 C 90 % 1023,4 hPa 0,0 l/m 13,8 km/h (3 Bft) O-NO 74 0 min 0,000 mm 0,0 UV-I 0 W/m -2,5 C -7,5 C 17,7 km/h (3 Bft) 97,87 %
15.01.2018 00:14 -1,1 C 3,3 C 90 % 1023,4 hPa 0,0 l/m 12,7 km/h (3 Bft) O 82 0 min 0,000 mm 0,0 UV-I 0 W/m -2,5 C -6,8 C 19,3 km/h (3 Bft) 97,87 %
15.01.2018 00:16 -1,1 C 3,3 C 90 % 1023,4 hPa 0,0 l/m 12,7 km/h (3 Bft) O 87 0 min 0,000 mm 0,0 UV-I 0 W/m -2,5 C -6,8 C 20,9 km/h (4 Bft) 97,87 %
15.01.2018 00:18 -1,1 C 3,3 C 90 % 1023,4 hPa 0,0 l/m 11,4 km/h (2 Bft) O 96 0 min 0,000 mm 0,0 UV-I 0 W/m -2,5 C -5,8 C 17,7 km/h (3 Bft) 91,49 %
15.01.2018 00:20 -1,1 C 3,3 C 90 % 1023,4 hPa 0,0 l/m 11,4 km/h (2 Bft) O 84 0 min 0,000 mm 0,0 UV-I 0 W/m -2,5 C -5,8 C 16,1 km/h (3 Bft) 93,62 %
15.01.2018 00:22 -1,1 C 3,3 C 90 % 1023,4 hPa 0,0 l/m 12,2 km/h (2 Bft) O-NO 60 0 min 0,000 mm 0,0 UV-I 0 W/m -2,5 C -6,4 C 17,7 km/h (3 Bft) 95,74 %
15.01.2018 00:24 -1,2 C 3,3 C 90 % 1023,4 hPa 0,0 l/m 13,6 km/h (3 Bft) O 82 0 min 0,000 mm 0,0 UV-I 0 W/m -2,6 C -7,5 C 20,9 km/h (4 Bft) 93,62 %
15.01.2018 00:26 -1,2 C 3,3 C 90 % 1023,4 hPa 0,0 l/m 13,3 km/h (3 Bft) O 79 0 min 0,000 mm 0,0 UV-I 0 W/m -2,6 C -7,3 C 17,7 km/h (3 Bft) 91,67 %
15.01.2018 00:28 -1,2 C 3,3 C 90 % 1023,4 hPa 0,0 l/m 15,4 km/h (3 Bft) NO 44 0 min 0,000 mm 0,0 UV-I 0 W/m -2,6 C -8,7 C 22,5 km/h (4 Bft) 93,62 %
15.01.2018 00:30 -1,2 C 3,3 C 90 % 1023,4 hPa 0,0 l/m 13,9 km/h (3 Bft) O-NO 78 0 min 0,000 mm 0,0 UV-I 0 W/m -2,6 C -7,7 C 19,3 km/h (3 Bft) 93,62 %
15.01.2018 00:32 -1,2 C 3,3 C 90 % 1023,5 hPa 0,0 l/m 14,3 km/h (3 Bft) O-NO 70 0 min 0,000 mm 0,0 UV-I 0 W/m -2,6 C -8,0 C 17,7 km/h (3 Bft) 97,37 %
15.01.2018 00:34 -1,2 C 3,3 C 89 % 1023,4 hPa 0,0 l/m 11,7 km/h (2 Bft) O-NO 65 0 min 0,000 mm 0,0 UV-I 0 W/m -2,8 C -6,2 C 16,1 km/h (3 Bft) 93,62 %
15.01.2018 00:36 -1,2 C 3,3 C 90 % 1023,4 hPa 0,0 l/m 13,1 km/h (3 Bft) O-NO 78 0 min 0,000 mm 0,0 UV-I 0 W/m -2,6 C -7,2 C 17,7 km/h (3 Bft) 93,62 %
15.01.2018 00:38 -1,2 C 3,3 C 90 % 1023,4 hPa 0,0 l/m 14,5 km/h (3 Bft) O-NO 70 0 min 0,000 mm 0,0 UV-I 0 W/m -2,6 C -8,1 C 19,3 km/h (3 Bft) 93,62 %
15.01.2018 00:40 -1,2 C 3,3 C 90 % 1023,4 hPa 0,0 l/m 14,4 km/h (3 Bft) NO 56 0 min 0,000 mm 0,0 UV-I 0 W/m -2,6 C -8,1 C 19,3 km/h (3 Bft) 93,62 %
15.01.2018 00:42 -1,2 C 3,3 C 90 % 1023,4 hPa 0,0 l/m 12,8 km/h (3 Bft) O-NO 78 0 min 0,000 mm 0,0 UV-I 0 W/m -2,6 C -7,0 C 19,3 km/h (3 Bft) 96,00 %
15.01.2018 00:44 -1,2 C 3,3 C 90 % 1023,3 hPa 0,0 l/m 13,3 km/h (3 Bft) O-NO 74 0 min 0,000 mm 0,0 UV-I 0 W/m -2,6 C -7,3 C 19,3 km/h (3 Bft) 93,62 %
15.01.2018 00:46 -1,2 C 3,3 C 90 % 1023,3 hPa 0,0 l/m 13,5 km/h (3 Bft) O-NO 62 0 min 0,000 mm 0,0 UV-I 0 W/m -2,6 C -7,5 C 19,3 km/h (3 Bft) 91,49 %
15.01.2018 00:48 -1,2 C 3,3 C 90 % 1023,3 hPa 0,0 l/m 14,6 km/h (3 Bft) NO 50 0 min 0,000 mm 0,0 UV-I 0 W/m -2,6 C -8,2 C 20,9 km/h (4 Bft) 95,74 %
15.01.2018 00:50 -1,2 C 3,3 C 90 % 1023,3 hPa 0,0 l/m 13,8 km/h (3 Bft) O 86 0 min 0,000 mm 0,0 UV-I 0 W/m -2,6 C -7,7 C 20,9 km/h (4 Bft) 89,36 %
15.01.2018 00:52 -1,2 C 3,3 C 90 % 1023,3 hPa 0,0 l/m 12,2 km/h (2 Bft) O-NO 69 0 min 0,000 mm 0,0 UV-I 0 W/m -2,6 C -6,5 C 17,7 km/h (3 Bft) 95,74 %
15.01.2018 00:54 -1,2 C 3,3 C 90 % 1023,4 hPa 0,0 l/m 13,3 km/h (3 Bft) O-NO 74 0 min 0,000 mm 0,0 UV-I 0 W/m -2,6 C -7,3 C 19,3 km/h (3 Bft) 93,62 %
15.01.2018 00:56 -1,2 C 3,3 C 90 % 1023,3 hPa 0,0 l/m 11,7 km/h (2 Bft) O-NO 76 0 min 0,000 mm 0,0 UV-I 0 W/m -2,6 C -6,2 C 16,1 km/h (3 Bft) 100,00 %
15.01.2018 00:58 -1,2 C 3,3 C 90 % 1023,3 hPa 0,0 l/m 13,1 km/h (3 Bft) O-NO 59 0 min 0,000 mm 0,0 UV-I 0 W/m -2,6 C -7,2 C 16,1 km/h (3 Bft) 100,00 %
15.01.2018 01:00 -1,2 C 3,3 C 90 % 1023,3 hPa 0,0 l/m 13,0 km/h (3 Bft) O 99 0 min 0,000 mm 0,0 UV-I 0 W/m -2,6 C -7,1 C 17,7 km/h (3 Bft) 100,00 %
15.01.2018 01:02 -1,2 C 3,3 C 90 % 1023,3 hPa 0,0 l/m 11,9 km/h (2 Bft) O-NO 65 0 min 0,000 mm 0,0 UV-I 0 W/m -2,6 C -6,3 C 17,7 km/h (3 Bft) 97,87 %
15.01.2018 01:04 -1,2 C 3,3 C 90 % 1023,3 hPa 0,0 l/m 11,1 km/h (2 Bft) O-NO 73 0 min 0,000 mm 0,0 UV-I 0 W/m -2,6 C -5,7 C 17,7 km/h (3 Bft) 97,87 %
15.01.2018 01:06 -1,3 C 3,3 C 90 % 1023,3 hPa 0,0 l/m 14,7 km/h (3 Bft) O-NO 65 0 min 0,000 mm 0,0 UV-I 0 W/m -2,7 C -8,4 C 19,3 km/h (3 Bft) 100,00 %
15.01.2018 01:08 -1,3 C 3,3 C 90 % 1023,3 hPa 0,0 l/m 15,6 km/h (3 Bft) O-NO 64 0 min 0,000 mm 0,0 UV-I 0 W/m -2,7 C -8,9 C 19,3 km/h (3 Bft) 100,00 %
15.01.2018 01:10 -1,3 C 3,3 C 90 % 1023,3 hPa 0,0 l/m 15,5 km/h (3 Bft) O-NO 67 0 min 0,000 mm 0,0 UV-I 0 W/m -2,7 C -8,9 C 17,7 km/h (3 Bft) 98,00 %
15.01.2018 01:12 -1,3 C 3,3 C 90 % 1023,3 hPa 0,0 l/m 13,7 km/h (3 Bft) O-NO 57 0 min 0,000 mm 0,0 UV-I 0 W/m -2,7 C -7,7 C 19,3 km/h (3 Bft) 100,00 %
15.01.2018 01:14 -1,2 C 3,3 C 90 % 1023,4 hPa 0,0 l/m 12,2 km/h (2 Bft) O-NO 74 0 min 0,000 mm 0,0 UV-I 0 W/m -2,6 C -6,5 C 19,3 km/h (3 Bft) 97,87 %
15.01.2018 01:16 -1,2 C 3,3 C 90 % 1023,3 hPa 0,0 l/m 13,5 km/h (3 Bft) O-NO 70 0 min 0,000 mm 0,0 UV-I 0 W/m -2,6 C -7,5 C 19,3 km/h (3 Bft) 95,74 %
15.01.2018 01:18 -1,3 C 3,3 C 90 % 1023,4 hPa 0,0 l/m 11,1 km/h (2 Bft) NO 42 0 min 0,000 mm 0,0 UV-I 0 W/m -2,7 C -5,8 C 16,1 km/h (3 Bft) 100,00 %
15.01.2018 01:20 -1,3 C 3,3 C 90 % 1023,4 hPa 0,0 l/m 9,0 km/h (2 Bft) O-NO 69 0 min 0,000 mm 0,0 UV-I 0 W/m -2,7 C -4,0 C 12,9 km/h (3 Bft) 100,00 %
15.01.2018 01:22 -1,3 C 3,3 C 90 % 1023,4 hPa 0,0 l/m 6,5 km/h (2 Bft) O-NO 58 0 min 0,000 mm 0,0 UV-I 0 W/m -2,7 C -1,4 C 11,3 km/h (2 Bft) 97,87 %
15.01.2018 01:24 -1,3 C 3,3 C 90 % 1023,4 hPa 0,0 l/m 9,8 km/h (2 Bft) O-NO 63 0 min 0,000 mm 0,0 UV-I 0 W/m -2,7 C -4,7 C 14,5 km/h (3 Bft) 97,37 %
15.01.2018 01:26 -1,3 C 3,3 C 90 % 1023,4 hPa 0,0 l/m 10,3 km/h (2 Bft) NO 45 0 min 0,000 mm 0,0 UV-I 0 W/m -2,7 C -5,1 C 14,5 km/h (3 Bft) 93,75 %
15.01.2018 01:28 -1,3 C 3,3 C 90 % 1023,4 hPa 0,0 l/m 11,3 km/h (2 Bft) O-NO 74 0 min 0,000 mm 0,0 UV-I 0 W/m -2,7 C -6,0 C 14,5 km/h (3 Bft) 100,00 %
15.01.2018 01:30 -1,3 C 3,3 C 90 % 1023,4 hPa 0,0 l/m 12,8 km/h (3 Bft) O-NO 78 0 min 0,000 mm 0,0 UV-I 0 W/m -2,7 C -7,1 C 17,7 km/h (3 Bft) 100,00 %
15.01.2018 01:32 -1,3 C 3,3 C 90 % 1023,4 hPa 0,0 l/m 10,1 km/h (2 Bft) O-NO 71 0 min 0,000 mm 0,0 UV-I 0 W/m -2,7 C -5,0 C 16,1 km/h (3 Bft) 97,92 %
15.01.2018 01:34 -1,3 C 3,3 C 90 % 1023,4 hPa 0,0 l/m 10,0 km/h (2 Bft) O-NO 67 0 min 0,000 mm 0,0 UV-I 0 W/m -2,7 C -4,9 C 14,5 km/h (3 Bft) 100,00 %
15.01.2018 01:36 -1,3 C 3,3 C 90 % 1023,4 hPa 0,0 l/m 9,3 km/h (2 Bft) O-NO 67 0 min 0,000 mm 0,0 UV-I 0 W/m -2,7 C -4,3 C 16,1 km/h (3 Bft) 100,00 %
15.01.2018 01:38 -1,3 C 3,3 C 91 % 1023,4 hPa 0,0 l/m 10,7 km/h (2 Bft) O-NO 68 0 min 0,000 mm 0,0 UV-I 0 W/m -2,6 C -5,5 C 16,1 km/h (3 Bft) 97,87 %
15.01.2018 01:40 -1,3 C 3,3 C 91 % 1023,4 hPa 0,0 l/m 12,1 km/h (2 Bft) O-NO 77 0 min 0,000 mm 0,0 UV-I 0 W/m -2,6 C -6,6 C 16,1 km/h (3 Bft) 100,00 %
15.01.2018 01:42 -1,3 C 3,3 C 90 % 1023,4 hPa 0,0 l/m 13,9 km/h (3 Bft) O-NO 66 0 min 0,000 mm 0,0 UV-I 0 W/m -2,7 C -7,8 C 17,7 km/h (3 Bft) 100,00 %
15.01.2018 01:44 -1,3 C 3,3 C 91 % 1023,3 hPa 0,0 l/m 13,1 km/h (3 Bft) O-NO 67 0 min 0,000 mm 0,0 UV-I 0 W/m -2,6 C -7,3 C 17,7 km/h (3 Bft) 100,00 %
15.01.2018 01:46 -1,3 C 3,3 C 91 % 1023,3 hPa 0,0 l/m 11,7 km/h (2 Bft) O 84 0 min 0,000 mm 0,0 UV-I 0 W/m -2,6 C -6,3 C 17,7 km/h (3 Bft) 100,00 %
15.01.2018 01:48 -1,3 C 3,3 C 91 % 1023,4 hPa 0,0 l/m 13,6 km/h (3 Bft) NO 49 0 min 0,000 mm 0,0 UV-I 0 W/m -2,6 C -7,6 C 20,9 km/h (4 Bft) 97,87 %
15.01.2018 01:50 -1,4 C 3,3 C 91 % 1023,4 hPa 0,0 l/m 13,3 km/h (3 Bft) NO 51 0 min 0,000 mm 0,0 UV-I 0 W/m -2,7 C -7,6 C 19,3 km/h (3 Bft) 100,00 %
15.01.2018 01:52 -1,4 C 3,3 C 91 % 1023,4 hPa 0,0 l/m 13,2 km/h (3 Bft) O-NO 76 0 min 0,000 mm 0,0 UV-I 0 W/m -2,7 C -7,5 C 20,9 km/h (4 Bft) 100,00 %
15.01.2018 01:54 -1,4 C 3,3 C 91 % 1023,3 hPa 0,0 l/m 14,8 km/h (3 Bft) NO 43 0 min 0,000 mm 0,0 UV-I 0 W/m -2,7 C -8,6 C 19,3 km/h (3 Bft) 100,00 %
15.01.2018 01:56 -1,4 C 3,3 C 91 % 1023,3 hPa 0,0 l/m 11,6 km/h (2 Bft) NO 52 0 min 0,000 mm 0,0 UV-I 0 W/m -2,7 C -6,3 C 16,1 km/h (3 Bft) 100,00 %
15.01.2018 01:58 -1,4 C 3,3 C 91 % 1023,3 hPa 0,0 l/m 15,8 km/h (3 Bft) NO 53 0 min 0,000 mm 0,0 UV-I 0 W/m -2,7 C -9,2 C 20,9 km/h (4 Bft) 100,00 %
15.01.2018 02:00 -1,4 C 3,3 C 91 % 1023,3 hPa 0,0 l/m 16,5 km/h (3 Bft) O-NO 60 0 min 0,000 mm 0,0 UV-I 0 W/m -2,7 C -9,6 C 19,3 km/h (3 Bft) 100,00 %
15.01.2018 02:02 -1,4 C 3,3 C 91 % 1023,4 hPa 0,0 l/m 13,5 km/h (3 Bft) NO 55 0 min 0,000 mm 0,0 UV-I 0 W/m -2,7 C -7,7 C 19,3 km/h (3 Bft) 100,00 %
15.01.2018 02:04 -1,4 C 3,3 C 91 % 1023,4 hPa 0,0 l/m 14,3 km/h (3 Bft) O-NO 61 0 min 0,000 mm 0,0 UV-I 0 W/m -2,7 C -8,2 C 17,7 km/h (3 Bft) 94,44 %
15.01.2018 02:06 -1,3 C 3,3 C 91 % 1023,4 hPa 0,0 l/m 13,8 km/h (3 Bft) O 86 0 min 0,000 mm 0,0 UV-I 0 W/m -2,6 C -7,8 C 16,1 km/h (3 Bft) 100,00 %
15.01.2018 02:08 -1,3 C 3,3 C 91 % 1023,4 hPa 0,0 l/m 11,8 km/h (2 Bft) O 80 0 min 0,000 mm 0,0 UV-I 0 W/m -2,6 C -6,3 C 17,7 km/h (3 Bft) 100,00 %
15.01.2018 02:10 -1,4 C 3,3 C 91 % 1023,4 hPa 0,0 l/m 17,0 km/h (3 Bft) O-NO 59 0 min 0,000 mm 0,0 UV-I 0 W/m -2,7 C -9,9 C 22,5 km/h (4 Bft) 97,87 %
15.01.2018 02:12 -1,3 C 3,3 C 90 % 1023,4 hPa 0,0 l/m 13,2 km/h (3 Bft) O-NO 76 0 min 0,000 mm 0,0 UV-I 0 W/m -2,7 C -7,4 C 17,7 km/h (3 Bft) 100,00 %
15.01.2018 02:14 -1,4 C 3,3 C 90 % 1023,4 hPa 0,0 l/m 12,3 km/h (3 Bft) O 96 0 min 0,000 mm 0,0 UV-I 0 W/m -2,8 C -6,8 C 16,1 km/h (3 Bft) 100,00 %
15.01.2018 02:16 -1,4 C 3,3 C 91 % 1023,4 hPa 0,0 l/m 15,1 km/h (3 Bft) NO 55 0 min 0,000 mm 0,0 UV-I 0 W/m -2,7 C -8,7 C 19,3 km/h (3 Bft) 100,00 %
15.01.2018 02:18 -1,4 C 3,3 C 90 % 1023,4 hPa 0,0 l/m 12,7 km/h (3 Bft) O-NO 67 0 min 0,000 mm 0,0 UV-I 0 W/m -2,8 C -7,1 C 19,3 km/h (3 Bft) 100,00 %
15.01.2018 02:20 -1,4 C 3,3 C 90 % 1023,3 hPa 0,0 l/m 10,8 km/h (2 Bft) O 83 0 min 0,000 mm 0,0 UV-I 0 W/m -2,8 C -5,7 C 16,1 km/h (3 Bft) 97,87 %
15.01.2018 02:22 -1,4 C 3,3 C 91 % 1023,3 hPa 0,0 l/m 10,1 km/h (2 Bft) O-NO 61 0 min 0,000 mm 0,0 UV-I 0 W/m -2,7 C -5,1 C 14,5 km/h (3 Bft) 92,11 %
15.01.2018 02:24 -1,4 C 3,3 C 91 % 1023,3 hPa 0,0 l/m 11,5 km/h (2 Bft) O-NO 76 0 min 0,000 mm 0,0 UV-I 0 W/m -2,7 C -6,2 C 16,1 km/h (3 Bft) 97,87 %
15.01.2018 02:26 -1,4 C 3,3 C 91 % 1023,4 hPa 0,0 l/m 12,0 km/h (2 Bft) O 88 0 min 0,000 mm 0,0 UV-I 0 W/m -2,7 C -6,6 C 16,1 km/h (3 Bft) 97,87 %
15.01.2018 02:28 -1,4 C 3,3 C 91 % 1023,3 hPa 0,0 l/m 10,6 km/h (2 Bft) NO 46 0 min 0,000 mm 0,0 UV-I 0 W/m -2,7 C -5,5 C 16,1 km/h (3 Bft) 97,87 %
15.01.2018 02:30 -1,4 C 3,3 C 91 % 1023,3 hPa 0,0 l/m 11,3 km/h (2 Bft) O-NO 74 0 min 0,000 mm 0,0 UV-I 0 W/m -2,7 C -6,1 C 17,7 km/h (3 Bft) 97,87 %
15.01.2018 02:32 -1,4 C 3,3 C 91 % 1023,3 hPa 0,0 l/m 15,0 km/h (3 Bft) O 89 0 min 0,000 mm 0,0 UV-I 0 W/m -2,7 C -8,7 C 20,9 km/h (4 Bft) 95,83 %
15.01.2018 02:34 -1,4 C 3,3 C 91 % 1023,3 hPa 0,0 l/m 11,2 km/h (2 Bft) NO 53 0 min 0,000 mm 0,0 UV-I 0 W/m -2,7 C -6,0 C 14,5 km/h (3 Bft) 97,87 %
15.01.2018 02:36 -1,4 C 3,3 C 91 % 1023,3 hPa 0,0 l/m 16,2 km/h (3 Bft) O-NO 73 0 min 0,000 mm 0,0 UV-I 0 W/m -2,7 C -9,4 C 20,9 km/h (4 Bft) 95,74 %
15.01.2018 02:38 -1,4 C 3,3 C 90 % 1023,3 hPa 0,0 l/m 15,2 km/h (3 Bft) O-NO 59 0 min 0,000 mm 0,0 UV-I 0 W/m -2,8 C -8,8 C 19,3 km/h (3 Bft) 95,74 %
15.01.2018 02:40 -1,4 C 3,3 C 90 % 1023,3 hPa 0,0 l/m 15,9 km/h (3 Bft) NO 49 0 min 0,000 mm 0,0 UV-I 0 W/m -2,8 C -9,2 C 20,9 km/h (4 Bft) 95,74 %
15.01.2018 02:42 -1,4 C 3,3 C 90 % 1023,4 hPa 0,0 l/m 12,6 km/h (3 Bft) O 94 0 min 0,000 mm 0,0 UV-I 0 W/m -2,8 C -7,1 C 19,3 km/h (3 Bft) 97,92 %
15.01.2018 02:44 -1,4 C 3,3 C 90 % 1023,5 hPa 0,0 l/m 14,2 km/h (3 Bft) O-NO 76 0 min 0,000 mm 0,0 UV-I 0 W/m -2,8 C -8,2 C 17,7 km/h (3 Bft) 96,00 %
15.01.2018 02:46 -1,4 C 3,3 C 90 % 1023,3 hPa 0,0 l/m 14,7 km/h (3 Bft) O-NO 76 0 min 0,000 mm 0,0 UV-I 0 W/m -2,8 C -8,5 C 20,9 km/h (4 Bft) 97,87 %
15.01.2018 02:48 -1,4 C 3,3 C 90 % 1023,3 hPa 0,0 l/m 14,6 km/h (3 Bft) O-NO 59 0 min 0,000 mm 0,0 UV-I 0 W/m -2,8 C -8,4 C 20,9 km/h (4 Bft) 93,62 %
15.01.2018 02:50 -1,4 C 3,3 C 90 % 1023,3 hPa 0,0 l/m 10,8 km/h (2 Bft) O-NO 77 0 min 0,000 mm 0,0 UV-I 0 W/m -2,8 C -5,7 C 16,1 km/h (3 Bft) 93,62 %
15.01.2018 02:52 -1,5 C 3,3 C 90 % 1023,3 hPa 0,0 l/m 11,3 km/h (2 Bft) O-NO 62 0 min 0,000 mm 0,0 UV-I 0 W/m -2,9 C -6,2 C 16,1 km/h (3 Bft) 97,87 %
15.01.2018 02:54 -1,5 C 3,3 C 90 % 1023,3 hPa 0,0 l/m 11,2 km/h (2 Bft) O-NO 76 0 min 0,000 mm 0,0 UV-I 0 W/m -2,9 C -6,1 C 16,1 km/h (3 Bft) 95,74 %
15.01.2018 02:56 -1,5 C 3,3 C 91 % 1023,3 hPa 0,0 l/m 13,8 km/h (3 Bft) O-NO 78 0 min 0,000 mm 0,0 UV-I 0 W/m -2,8 C -8,0 C 22,5 km/h (4 Bft) 97,87 %
15.01.2018 02:58 -1,5 C 3,3 C 91 % 1023,3 hPa 0,0 l/m 13,0 km/h (3 Bft) O-NO 74 0 min 0,000 mm 0,0 UV-I 0 W/m -2,8 C -7,5 C 20,9 km/h (4 Bft) 100,00 %
15.01.2018 03:00 -1,5 C 3,3 C 90 % 1023,3 hPa 0,0 l/m 13,3 km/h (3 Bft) O-NO 68 0 min 0,000 mm 0,0 UV-I 0 W/m -2,9 C -7,7 C 16,1 km/h (3 Bft) 97,87 %
15.01.2018 03:02 -1,5 C 3,3 C 90 % 1023,3 hPa 0,0 l/m 14,1 km/h (3 Bft) O-NO 69 0 min 0,000 mm 0,0 UV-I 0 W/m -2,9 C -8,2 C 20,9 km/h (4 Bft) 97,87 %
15.01.2018 03:04 -1,5 C 3,3 C 91 % 1023,3 hPa 0,0 l/m 10,8 km/h (2 Bft) O-NO 78 0 min 0,000 mm 0,0 UV-I 0 W/m -2,8 C -5,8 C 17,7 km/h (3 Bft) 97,87 %
15.01.2018 03:06 -1,5 C 3,3 C 91 % 1023,3 hPa 0,0 l/m 11,9 km/h (2 Bft) O-NO 76 0 min 0,000 mm 0,0 UV-I 0 W/m -2,8 C -6,7 C 16,1 km/h (3 Bft) 100,00 %
15.01.2018 03:08 -1,5 C 3,3 C 91 % 1023,3 hPa 0,0 l/m 10,1 km/h (2 Bft) O 92 0 min 0,000 mm 0,0 UV-I 0 W/m -2,8 C -5,2 C 14,5 km/h (3 Bft) 100,00 %
15.01.2018 03:10 -1,6 C 3,3 C 91 % 1023,3 hPa 0,0 l/m 9,3 km/h (2 Bft) O 92 0 min 0,000 mm 0,0 UV-I 0 W/m -2,9 C -4,6 C 14,5 km/h (3 Bft) 100,00 %
15.01.2018 03:12 -1,6 C 3,3 C 91 % 1023,3 hPa 0,0 l/m 5,9 km/h (2 Bft) O-NO 73 0 min 0,000 mm 0,0 UV-I 0 W/m -2,9 C -1,6 C 9,7 km/h (2 Bft) 95,74 %
15.01.2018 03:14 -1,6 C 3,3 C 91 % 1023,3 hPa 0,0 l/m 9,6 km/h (2 Bft) O 83 0 min 0,000 mm 0,0 UV-I 0 W/m -2,9 C -4,9 C 16,1 km/h (3 Bft) 94,29 %
15.01.2018 03:16 -1,6 C 3,3 C 91 % 1023,3 hPa 0,0 l/m 11,5 km/h (2 Bft) O 79 0 min 0,000 mm 0,0 UV-I 0 W/m -2,9 C -6,5 C 17,7 km/h (3 Bft) 100,00 %
15.01.2018 03:18 -1,6 C 3,3 C 91 % 1023,3 hPa 0,0 l/m 12,4 km/h (3 Bft) O-NO 74 0 min 0,000 mm 0,0 UV-I 0 W/m -2,9 C -7,1 C 16,1 km/h (3 Bft) 100,00 %
15.01.2018 03:20 -1,6 C 3,3 C 91 % 1023,3 hPa 0,0 l/m 10,5 km/h (2 Bft) O-NO 64 0 min 0,000 mm 0,0 UV-I 0 W/m -2,9 C -5,6 C 14,5 km/h (3 Bft) 100,00 %
15.01.2018 03:22 -1,6 C 3,3 C 91 % 1023,2 hPa 0,0 l/m 10,6 km/h (2 Bft) O 92 0 min 0,000 mm 0,0 UV-I 0 W/m -2,9 C -5,7 C 14,5 km/h (3 Bft) 97,96 %
15.01.2018 03:24 -1,6 C 3,3 C 91 % 1023,2 hPa 0,0 l/m 9,6 km/h (2 Bft) O-NO 78 0 min 0,000 mm 0,0 UV-I 0 W/m -2,9 C -4,9 C 14,5 km/h (3 Bft) 100,00 %
15.01.2018 03:26 -1,6 C 3,3 C 91 % 1023,2 hPa 0,0 l/m 10,1 km/h (2 Bft) O-NO 75 0 min 0,000 mm 0,0 UV-I 0 W/m -2,9 C -5,3 C 16,1 km/h (3 Bft) 100,00 %
15.01.2018 03:28 -1,6 C 3,3 C 91 % 1023,2 hPa 0,0 l/m 11,5 km/h (2 Bft) O-SO 103 0 min 0,000 mm 0,0 UV-I 0 W/m -2,9 C -6,5 C 16,1 km/h (3 Bft) 97,87 %
15.01.2018 03:30 -1,6 C 3,3 C 91 % 1023,2 hPa 0,0 l/m 10,8 km/h (2 Bft) O 83 0 min 0,000 mm 0,0 UV-I 0 W/m -2,9 C -5,9 C 14,5 km/h (3 Bft) 97,87 %
15.01.2018 03:32 -1,6 C 3,3 C 91 % 1023,3 hPa 0,0 l/m 5,2 km/h (1 Bft) O-NO 69 0 min 0,000 mm 0,0 UV-I 0 W/m -2,9 C -1,6 C 8,0 km/h (2 Bft) 100,00 %
15.01.2018 03:34 -1,6 C 3,3 C 91 % 1023,2 hPa 0,0 l/m 6,6 km/h (2 Bft) O-NO 76 0 min 0,000 mm 0,0 UV-I 0 W/m -2,9 C -1,8 C 16,1 km/h (3 Bft) 100,00 %
15.01.2018 03:36 -1,6 C 3,3 C 91 % 1023,2 hPa 0,0 l/m 11,2 km/h (2 Bft) O-NO 78 0 min 0,000 mm 0,0 UV-I 0 W/m -2,9 C -6,2 C 19,3 km/h (3 Bft) 97,92 %
15.01.2018 03:38 -1,6 C 3,3 C 91 % 1023,2 hPa 0,0 l/m 7,9 km/h (2 Bft) O 101 0 min 0,000 mm 0,0 UV-I 0 W/m -2,9 C -3,2 C 12,9 km/h (3 Bft) 97,96 %
15.01.2018 03:40 -1,6 C 3,3 C 91 % 1023,3 hPa 0,0 l/m 7,2 km/h (2 Bft) O 97 0 min 0,000 mm 0,0 UV-I 0 W/m -2,9 C -2,5 C 12,9 km/h (3 Bft) 93,75 %
15.01.2018 03:42 -1,6 C 3,3 C 91 % 1023,2 hPa 0,0 l/m 7,0 km/h (2 Bft) O 90 0 min 0,000 mm 0,0 UV-I 0 W/m -2,9 C -2,3 C 11,3 km/h (2 Bft) 95,92 %
15.01.2018 03:44 -1,6 C 3,3 C 91 % 1023,2 hPa 0,0 l/m 8,6 km/h (2 Bft) O-NO 74 0 min 0,000 mm 0,0 UV-I 0 W/m -2,9 C -3,9 C 14,5 km/h (3 Bft) 97,87 %
15.01.2018 03:46 -1,6 C 3,3 C 91 % 1023,2 hPa 0,0 l/m 7,8 km/h (2 Bft) O 84 0 min 0,000 mm 0,0 UV-I 0 W/m -2,9 C -3,1 C 12,9 km/h (3 Bft) 97,37 %
15.01.2018 03:48 -1,6 C 3,3 C 91 % 1023,2 hPa 0,0 l/m 6,0 km/h (2 Bft) O-SO 110 0 min 0,000 mm 0,0 UV-I 0 W/m -2,9 C -1,6 C 9,7 km/h (2 Bft) 96,00 %
15.01.2018 03:50 -1,6 C 3,3 C 91 % 1023,1 hPa 0,0 l/m 5,7 km/h (1 Bft) O-NO 72 0 min 0,000 mm 0,0 UV-I 0 W/m -2,9 C -1,6 C 9,7 km/h (2 Bft) 97,87 %
15.01.2018 03:52 -1,6 C 3,3 C 91 % 1023,1 hPa 0,0 l/m 10,2 km/h (2 Bft) O 82 0 min 0,000 mm 0,0 UV-I 0 W/m -2,9 C -5,4 C 14,5 km/h (3 Bft) 98,00 %
15.01.2018 03:54 -1,6 C 3,3 C 91 % 1023,1 hPa 0,0 l/m 6,3 km/h (2 Bft) O 85 0 min 0,000 mm 0,0 UV-I 0 W/m -2,9 C -1,6 C 8,0 km/h (2 Bft) 93,62 %
15.01.2018 03:56 -1,6 C 3,3 C 91 % 1023,1 hPa 0,0 l/m 7,1 km/h (2 Bft) O-NO 64 0 min 0,000 mm 0,0 UV-I 0 W/m -2,9 C -2,4 C 11,3 km/h (2 Bft) 95,74 %
15.01.2018 03:58 -1,6 C 3,3 C 91 % 1023,1 hPa 0,0 l/m 8,6 km/h (2 Bft) O-NO 76 0 min 0,000 mm 0,0 UV-I 0 W/m -2,9 C -3,9 C 12,9 km/h (3 Bft) 95,74 %
15.01.2018 04:00 -1,6 C 3,3 C 91 % 1023,1 hPa 0,0 l/m 8,8 km/h (2 Bft) O 82 0 min 0,000 mm 0,0 UV-I 0 W/m -2,9 C -4,1 C 12,9 km/h (3 Bft) 95,74 %
15.01.2018 04:02 -1,6 C 3,3 C 91 % 1023,1 hPa 0,0 l/m 7,1 km/h (2 Bft) O-NO 74 0 min 0,000 mm 0,0 UV-I 0 W/m -2,9 C -2,4 C 14,5 km/h (3 Bft) 95,45 %
15.01.2018 04:04 -1,6 C 3,3 C 91 % 1023,1 hPa 0,0 l/m 9,0 km/h (2 Bft) O-NO 71 0 min 0,000 mm 0,0 UV-I 0 W/m -2,9 C -4,3 C 12,9 km/h (3 Bft) 100,00 %
15.01.2018 04:06 -1,6 C 3,3 C 91 % 1023,1 hPa 0,0 l/m 9,5 km/h (2 Bft) O-NO 62 0 min 0,000 mm 0,0 UV-I 0 W/m -2,9 C -4,8 C 14,5 km/h (3 Bft) 100,00 %
15.01.2018 04:08 -1,7 C 3,3 C 91 % 1023,1 hPa 0,0 l/m 11,6 km/h (2 Bft) O-NO 78 0 min 0,000 mm 0,0 UV-I 0 W/m -3,0 C -6,7 C 16,1 km/h (3 Bft) 97,87 %
15.01.2018 04:10 -1,6 C 3,3 C 91 % 1023,1 hPa 0,0 l/m 11,5 km/h (2 Bft) O 86 0 min 0,000 mm 0,0 UV-I 0 W/m -2,9 C -6,5 C 16,1 km/h (3 Bft) 100,00 %
15.01.2018 04:12 -1,7 C 3,3 C 91 % 1023,1 hPa 0,0 l/m 12,2 km/h (2 Bft) O-NO 76 0 min 0,000 mm 0,0 UV-I 0 W/m -3,0 C -7,1 C 16,1 km/h (3 Bft) 100,00 %
15.01.2018 04:14 -1,7 C 3,3 C 91 % 1023,1 hPa 0,0 l/m 12,8 km/h (3 Bft) O-NO 72 0 min 0,000 mm 0,0 UV-I 0 W/m -3,0 C -7,6 C 17,7 km/h (3 Bft) 100,00 %
15.01.2018 04:16 -1,6 C 3,3 C 91 % 1023,1 hPa 0,0 l/m 12,1 km/h (2 Bft) O-NO 77 0 min 0,000 mm 0,0 UV-I 0 W/m -2,9 C -6,9 C 17,7 km/h (3 Bft) 100,00 %
15.01.2018 04:18 -1,7 C 3,3 C 91 % 1023,1 hPa 0,0 l/m 10,6 km/h (2 Bft) O 82 0 min 0,000 mm 0,0 UV-I 0 W/m -3,0 C -5,8 C 14,5 km/h (3 Bft) 97,87 %
15.01.2018 04:20 -1,6 C 3,3 C 91 % 1023,1 hPa 0,0 l/m 11,3 km/h (2 Bft) O 80 0 min 0,000 mm 0,0 UV-I 0 W/m -2,9 C -6,3 C 17,7 km/h (3 Bft) 95,83 %
15.01.2018 04:22 -1,7 C 3,3 C 90 % 1023,0 hPa 0,0 l/m 12,5 km/h (3 Bft) O 86 0 min 0,000 mm 0,0 UV-I 0 W/m -3,1 C -7,3 C 16,1 km/h (3 Bft) 96,92 %
15.01.2018 04:24 -1,6 C 3,3 C 91 % 1023,0 hPa 0,0 l/m 13,0 km/h (3 Bft) O-NO 59 0 min 0,000 mm 0,0 UV-I 0 W/m -2,9 C -7,6 C 17,7 km/h (3 Bft) 93,62 %
15.01.2018 04:26 -1,7 C 3,3 C 92 % 1023,1 hPa 0,0 l/m 10,0 km/h (2 Bft) O 95 0 min 0,000 mm 0,0 UV-I 0 W/m -2,8 C -5,3 C 14,5 km/h (3 Bft) 93,62 %
15.01.2018 04:28 -1,7 C 3,3 C 91 % 1023,0 hPa 0,0 l/m 11,1 km/h (2 Bft) O-NO 78 0 min 0,000 mm 0,0 UV-I 0 W/m -3,0 C -6,3 C 16,1 km/h (3 Bft) 95,74 %
15.01.2018 04:30 -1,7 C 3,3 C 90 % 1023,0 hPa 0,0 l/m 9,4 km/h (2 Bft) O 88 0 min 0,000 mm 0,0 UV-I 0 W/m -3,1 C -4,8 C 14,5 km/h (3 Bft) 95,74 %
15.01.2018 04:32 -1,7 C 3,3 C 91 % 1023,0 hPa 0,0 l/m 9,2 km/h (2 Bft) NO 47 0 min 0,000 mm 0,0 UV-I 0 W/m -3,0 C -4,6 C 12,9 km/h (3 Bft) 93,62 %
15.01.2018 04:34 -1,7 C 3,3 C 91 % 1023,0 hPa 0,0 l/m 9,0 km/h (2 Bft) O-NO 69 0 min 0,000 mm 0,0 UV-I 0 W/m -3,0 C -4,4 C 16,1 km/h (3 Bft) 91,49 %
15.01.2018 04:36 -1,7 C 3,3 C 91 % 1023,0 hPa 0,0 l/m 6,8 km/h (2 Bft) O 83 0 min 0,000 mm 0,0 UV-I 0 W/m -3,0 C -2,1 C 12,9 km/h (3 Bft) 95,74 %
15.01.2018 04:41 -1,8 C 20,6 C 92 % 1023,0 hPa 0,0 l/m 11,6 km/h (2 Bft) O 86 0 min 0,000 mm 0,0 UV-I 0 W/m -2,9 C -6,8 C 16,1 km/h (3 Bft) 95,56 %
15.01.2018 04:42 -1,8 C 20,6 C 92 % 1023,0 hPa 0,0 l/m 7,3 km/h (2 Bft) O-NO 71 0 min 0,000 mm 0,0 UV-I 0 W/m -2,9 C -2,8 C 11,3 km/h (2 Bft) 91,67 %
15.01.2018 04:44 -1,8 C 20,6 C 92 % 1023,0 hPa 0,0 l/m 4,8 km/h (1 Bft) O-NO 74 0 min 0,000 mm 0,0 UV-I 0 W/m -2,9 C -1,8 C 6,4 km/h (2 Bft) 96,00 %
15.01.2018 04:46 -1,8 C 20,6 C 93 % 1023,0 hPa 0,0 l/m 5,9 km/h (2 Bft) NO 53 0 min 0,000 mm 0,0 UV-I 0 W/m -2,8 C -1,8 C 9,7 km/h (2 Bft) 95,74 %
15.01.2018 04:48 -1,8 C 20,6 C 93 % 1023,0 hPa 0,0 l/m 8,0 km/h (2 Bft) NO 48 0 min 0,000 mm 0,0 UV-I 0 W/m -2,8 C -3,5 C 12,9 km/h (3 Bft) 95,74 %
15.01.2018 04:50 -1,8 C 20,6 C 93 % 1023,0 hPa 0,0 l/m 9,7 km/h (2 Bft) O-NO 65 0 min 0,000 mm 0,0 UV-I 0 W/m -2,8 C -5,2 C 14,5 km/h (3 Bft) 97,87 %
15.01.2018 04:52 -1,8 C 20,6 C 93 % 1023,0 hPa 0,0 l/m 9,5 km/h (2 Bft) O 97 0 min 0,000 mm 0,0 UV-I 0 W/m -2,8 C -5,0 C 12,9 km/h (3 Bft) 98,00 %
15.01.2018 04:54 -1,8 C 20,6 C 93 % 1023,0 hPa 0,0 l/m 6,6 km/h (2 Bft) O-NO 76 0 min 0,000 mm 0,0 UV-I 0 W/m -2,8 C -2,0 C 9,7 km/h (2 Bft) 97,87 %
15.01.2018 04:56 -1,8 C 20,6 C 93 % 1023,0 hPa 0,0 l/m 5,9 km/h (2 Bft) O-NO 69 0 min 0,000 mm 0,0 UV-I 0 W/m -2,8 C -1,8 C 8,0 km/h (2 Bft) 100,00 %
15.01.2018 04:58 -1,8 C 20,6 C 93 % 1023,0 hPa 0,0 l/m 5,4 km/h (1 Bft) NO 48 0 min 0,000 mm 0,0 UV-I 0 W/m -2,8 C -1,8 C 8,0 km/h (2 Bft) 95,74 %
15.01.2018 05:00 -1,8 C 20,6 C 93 % 1022,9 hPa 0,0 l/m 6,4 km/h (2 Bft) NO 52 0 min 0,000 mm 0,0 UV-I 0 W/m -2,8 C -1,8 C 9,7 km/h (2 Bft) 100,00 %
15.01.2018 05:02 -1,8 C 20,6 C 93 % 1022,9 hPa 0,0 l/m 6,4 km/h (2 Bft) O-NO 66 0 min 0,000 mm 0,0 UV-I 0 W/m -2,8 C -1,8 C 11,3 km/h (2 Bft) 100,00 %
15.01.2018 05:04 -1,9 C 20,6 C 93 % 1023,0 hPa 0,0 l/m 7,8 km/h (2 Bft) O-NO 61 0 min 0,000 mm 0,0 UV-I 0 W/m -2,9 C -3,4 C 9,7 km/h (2 Bft) 97,87 %
15.01.2018 05:06 -1,9 C 20,6 C 93 % 1022,9 hPa 0,0 l/m 7,7 km/h (2 Bft) O-NO 62 0 min 0,000 mm 0,0 UV-I 0 W/m -2,9 C -3,3 C 11,3 km/h (2 Bft) 97,87 %
15.01.2018 05:10 -1,8 C 20,6 C 93 % 1023,0 hPa 0,0 l/m 8,0 km/h (2 Bft) O-NO 67 0 min 0,000 mm 0,0 UV-I 0 W/m -2,8 C -3,5 C 12,9 km/h (3 Bft) 98,25 %
15.01.2018 05:15 -1,9 C 20,6 C 93 % 1023,0 hPa 0,0 l/m 6,4 km/h (2 Bft) O-NO 67 0 min 0,000 mm 0,0 UV-I 0 W/m -2,9 C -1,9 C 9,7 km/h (2 Bft) 98,25 %
15.01.2018 05:20 -1,9 C 20,6 C 93 % 1023,0 hPa 0,0 l/m 6,3 km/h (2 Bft) O 79 0 min 0,000 mm 0,0 UV-I 0 W/m -2,9 C -1,9 C 12,9 km/h (3 Bft) 95,83 %
15.01.2018 05:22 -1,9 C 21,1 C 93 % 1023,0 hPa 0,0 l/m 10,2 km/h (2 Bft) O-NO 71 0 min 0,000 mm 0,0 UV-I 0 W/m -2,9 C -5,7 C 12,9 km/h (3 Bft) 100,00 %
15.01.2018 05:24 -1,9 C 21,1 C 93 % 1023,0 hPa 0,0 l/m 7,5 km/h (2 Bft) O-NO 70 0 min 0,000 mm 0,0 UV-I 0 W/m -2,9 C -3,1 C 12,9 km/h (3 Bft) 100,00 %
15.01.2018 05:26 -1,9 C 21,1 C 93 % 1022,9 hPa 0,0 l/m 8,3 km/h (2 Bft) NO 40 0 min 0,000 mm 0,0 UV-I 0 W/m -2,9 C -3,9 C 12,9 km/h (3 Bft) 100,00 %
15.01.2018 05:28 -1,9 C 21,1 C 93 % 1022,9 hPa 0,0 l/m 9,0 km/h (2 Bft) O-NO 59 0 min 0,000 mm 0,0 UV-I 0 W/m -2,9 C -4,6 C 14,5 km/h (3 Bft) 100,00 %
15.01.2018 05:30 -1,9 C 21,1 C 93 % 1023,0 hPa 0,0 l/m 5,4 km/h (1 Bft) O-NO 63 0 min 0,000 mm 0,0 UV-I 0 W/m -2,9 C -1,9 C 8,0 km/h (2 Bft) 98,11 %
15.01.2018 05:32 -1,9 C 21,1 C 93 % 1023,0 hPa 0,0 l/m 5,2 km/h (1 Bft) NO 55 0 min 0,000 mm 0,0 UV-I 0 W/m -2,9 C -1,9 C 9,7 km/h (2 Bft) 98,00 %
15.01.2018 05:34 -1,9 C 21,1 C 93 % 1022,9 hPa 0,0 l/m 7,8 km/h (2 Bft) O-NO 67 0 min 0,000 mm 0,0 UV-I 0 W/m -2,9 C -3,4 C 11,3 km/h (2 Bft) 100,00 %
15.01.2018 05:36 -1,9 C 21,1 C 93 % 1022,9 hPa 0,0 l/m 7,5 km/h (2 Bft) O-NO 61 0 min 0,000 mm 0,0 UV-I 0 W/m -2,9 C -3,1 C 9,7 km/h (2 Bft) 97,92 %
15.01.2018 05:38 -1,9 C 21,1 C 93 % 1022,9 hPa 0,0 l/m 8,2 km/h (2 Bft) NO 55 0 min 0,000 mm 0,0 UV-I 0 W/m -2,9 C -3,8 C 11,3 km/h (2 Bft) 98,00 %
15.01.2018 05:40 -1,9 C 21,1 C 93 % 1023,0 hPa 0,0 l/m 5,5 km/h (1 Bft) NO 44 0 min 0,000 mm 0,0 UV-I 0 W/m -2,9 C -1,9 C 8,0 km/h (2 Bft) 100,00 %
15.01.2018 05:42 -1,9 C 21,1 C 93 % 1022,9 hPa 0,0 l/m 6,2 km/h (2 Bft) O-NO 65 0 min 0,000 mm 0,0 UV-I 0 W/m -2,9 C -1,9 C 8,0 km/h (2 Bft) 97,73 %
15.01.2018 05:44 -1,9 C 21,1 C 93 % 1023,0 hPa 0,0 l/m 8,6 km/h (2 Bft) NO 51 0 min 0,000 mm 0,0 UV-I 0 W/m -2,9 C -4,2 C 14,5 km/h (3 Bft) 96,23 %
15.01.2018 05:46 -1,9 C 21,1 C 93 % 1023,0 hPa 0,0 l/m 8,0 km/h (2 Bft) O-NO 58 0 min 0,000 mm 0,0 UV-I 0 W/m -2,9 C -3,6 C 11,3 km/h (2 Bft) 95,12 %
15.01.2018 05:48 -1,9 C 21,1 C 93 % 1023,0 hPa 0,0 l/m 7,0 km/h (2 Bft) O-NO 59 0 min 0,000 mm 0,0 UV-I 0 W/m -2,9 C -2,6 C 12,9 km/h (3 Bft) 97,73 %
15.01.2018 05:50 -1,9 C 21,1 C 93 % 1023,0 hPa 0,0 l/m 5,1 km/h (1 Bft) NO 46 0 min 0,000 mm 0,0 UV-I 0 W/m -2,9 C -1,9 C 8,0 km/h (2 Bft) 96,00 %
15.01.2018 05:52 -1,9 C 21,1 C 93 % 1023,0 hPa 0,0 l/m 9,2 km/h (2 Bft) NO 49 0 min 0,000 mm 0,0 UV-I 0 W/m -2,9 C -4,8 C 12,9 km/h (3 Bft) 98,00 %
15.01.2018 05:54 -1,9 C 21,1 C 93 % 1023,0 hPa 0,0 l/m 6,9 km/h (2 Bft) O-NO 67 0 min 0,000 mm 0,0 UV-I 0 W/m -2,9 C -2,4 C 9,7 km/h (2 Bft) 94,74 %
15.01.2018 05:56 -1,9 C 21,1 C 93 % 1022,9 hPa 0,0 l/m 8,5 km/h (2 Bft) O 83 0 min 0,000 mm 0,0 UV-I 0 W/m -2,9 C -4,1 C 14,5 km/h (3 Bft) 96,23 %
15.01.2018 05:58 -1,9 C 21,1 C 93 % 1022,9 hPa 0,0 l/m 7,5 km/h (2 Bft) O-NO 67 0 min 0,000 mm 0,0 UV-I 0 W/m -2,9 C -3,1 C 9,7 km/h (2 Bft) 98,11 %
15.01.2018 06:00 -1,9 C 21,1 C 93 % 1022,9 hPa 0,0 l/m 6,4 km/h (2 Bft) O-NO 74 0 min 0,000 mm 0,0 UV-I 0 W/m -2,9 C -1,9 C 9,7 km/h (2 Bft) 97,87 %
15.01.2018 06:02 -1,9 C 21,1 C 93 % 1022,9 hPa 0,0 l/m 5,2 km/h (1 Bft) O-NO 66 0 min 0,000 mm 0,0 UV-I 0 W/m -2,9 C -1,9 C 8,0 km/h (2 Bft) 97,22 %
15.01.2018 06:04 -1,9 C 21,1 C 93 % 1023,0 hPa 0,0 l/m 4,4 km/h (1 Bft) O-NO 65 0 min 0,000 mm 0,0 UV-I 0 W/m -2,9 C -1,9 C 8,0 km/h (2 Bft) 100,00 %
15.01.2018 06:06 -1,9 C 21,1 C 93 % 1023,1 hPa 0,0 l/m 5,8 km/h (2 Bft) O 81 0 min 0,000 mm 0,0 UV-I 0 W/m -2,9 C -1,9 C 8,0 km/h (2 Bft) 98,00 %
15.01.2018 06:08 -1,9 C 21,1 C 93 % 1023,0 hPa 0,0 l/m 6,0 km/h (2 Bft) O-NO 73 0 min 0,000 mm 0,0 UV-I 0 W/m -2,9 C -1,9 C 8,0 km/h (2 Bft) 97,87 %
15.01.2018 06:10 -1,9 C 21,1 C 93 % 1023,1 hPa 0,0 l/m 6,3 km/h (2 Bft) O-NO 68 0 min 0,000 mm 0,0 UV-I 0 W/m -2,9 C -1,9 C 9,7 km/h (2 Bft) 100,00 %
15.01.2018 06:12 -1,9 C 21,1 C 93 % 1023,0 hPa 0,0 l/m 9,5 km/h (2 Bft) O-NO 73 0 min 0,000 mm 0,0 UV-I 0 W/m -2,9 C -5,1 C 14,5 km/h (3 Bft) 100,00 %
15.01.2018 06:14 -1,9 C 21,1 C 93 % 1023,0 hPa 0,0 l/m 10,3 km/h (2 Bft) O-NO 59 0 min 0,000 mm 0,0 UV-I 0 W/m -2,9 C -5,8 C 14,5 km/h (3 Bft) 100,00 %
15.01.2018 06:16 -1,9 C 21,1 C 93 % 1023,0 hPa 0,0 l/m 9,2 km/h (2 Bft) O-NO 69 0 min 0,000 mm 0,0 UV-I 0 W/m -2,9 C -4,8 C 14,5 km/h (3 Bft) 100,00 %
15.01.2018 06:18 -1,9 C 21,1 C 93 % 1022,9 hPa 0,0 l/m 8,9 km/h (2 Bft) O-NO 66 0 min 0,000 mm 0,0 UV-I 0 W/m -2,9 C -4,5 C 12,9 km/h (3 Bft) 100,00 %
15.01.2018 06:20 -1,9 C 21,1 C 93 % 1023,0 hPa 0,0 l/m 13,5 km/h (3 Bft) O-NO 72 0 min 0,000 mm 0,0 UV-I 0 W/m -2,9 C -8,3 C 17,7 km/h (3 Bft) 100,00 %
15.01.2018 06:22 -1,9 C 21,1 C 93 % 1022,9 hPa 0,0 l/m 13,1 km/h (3 Bft) O-NO 63 0 min 0,000 mm 0,0 UV-I 0 W/m -2,9 C -8,0 C 17,7 km/h (3 Bft) 100,00 %
15.01.2018 06:24 -2,0 C 21,7 C 93 % 1022,9 hPa 0,0 l/m 10,7 km/h (2 Bft) O 83 0 min 0,000 mm 0,0 UV-I 0 W/m -3,0 C -6,3 C 14,5 km/h (3 Bft) 97,56 %
15.01.2018 06:26 -1,9 C 21,7 C 93 % 1022,9 hPa 0,0 l/m 8,8 km/h (2 Bft) NO 55 0 min 0,000 mm 0,0 UV-I 0 W/m -2,9 C -4,4 C 14,5 km/h (3 Bft) 100,00 %
15.01.2018 06:28 -2,0 C 21,7 C 93 % 1022,9 hPa 0,0 l/m 9,8 km/h (2 Bft) O-NO 65 0 min 0,000 mm 0,0 UV-I 0 W/m -3,0 C -5,5 C 12,9 km/h (3 Bft) 97,87 %
15.01.2018 06:30 -2,0 C 21,7 C 93 % 1022,9 hPa 0,0 l/m 8,6 km/h (2 Bft) NO 49 0 min 0,000 mm 0,0 UV-I 0 W/m -3,0 C -4,4 C 14,5 km/h (3 Bft) 94,44 %
15.01.2018 06:32 -2,0 C 3,3 C 93 % 1022,9 hPa 0,0 l/m 10,5 km/h (2 Bft) NO 52 0 min 0,000 mm 0,0 UV-I 0 W/m -3,0 C -6,1 C 14,5 km/h (3 Bft) 98,18 %
15.01.2018 06:34 -2,0 C 3,3 C 93 % 1022,8 hPa 0,0 l/m 10,2 km/h (2 Bft) O-NO 77 0 min 0,000 mm 0,0 UV-I 0 W/m -3,0 C -5,8 C 16,1 km/h (3 Bft) 98,00 %
15.01.2018 06:36 -2,0 C 3,3 C 93 % 1022,9 hPa 0,0 l/m 7,9 km/h (2 Bft) O-NO 63 0 min 0,000 mm 0,0 UV-I 0 W/m -3,0 C -3,6 C 12,9 km/h (3 Bft) 97,44 %
15.01.2018 06:38 -2,0 C 3,3 C 93 % 1022,9 hPa 0,0 l/m 9,5 km/h (2 Bft) O-NO 71 0 min 0,000 mm 0,0 UV-I 0 W/m -3,0 C -5,2 C 14,5 km/h (3 Bft) 98,00 %
15.01.2018 06:40 -2,1 C 3,3 C 93 % 1022,9 hPa 0,0 l/m 10,9 km/h (2 Bft) O-NO 73 0 min 0,000 mm 0,0 UV-I 0 W/m -3,1 C -6,5 C 14,5 km/h (3 Bft) 94,00 %
15.01.2018 06:42 -2,0 C 3,3 C 93 % 1022,9 hPa 0,0 l/m 8,7 km/h (2 Bft) NO 50 0 min 0,000 mm 0,0 UV-I 0 W/m -3,0 C -4,5 C 12,9 km/h (3 Bft) 97,56 %
15.01.2018 06:44 -2,0 C 3,3 C 93 % 1022,9 hPa 0,0 l/m 8,2 km/h (2 Bft) O-NO 62 0 min 0,000 mm 0,0 UV-I 0 W/m -3,0 C -4,0 C 12,9 km/h (3 Bft) 98,21 %
15.01.2018 06:46 -2,0 C 3,3 C 93 % 1022,9 hPa 0,0 l/m 7,9 km/h (2 Bft) O-NO 70 0 min 0,000 mm 0,0 UV-I 0 W/m -3,0 C -3,6 C 11,3 km/h (2 Bft) 97,14 %
15.01.2018 06:48 -2,0 C 3,3 C 93 % 1022,8 hPa 0,0 l/m 10,5 km/h (2 Bft) O-NO 66 0 min 0,000 mm 0,0 UV-I 0 W/m -3,0 C -6,1 C 14,5 km/h (3 Bft) 98,00 %
15.01.2018 06:50 -2,0 C 3,3 C 93 % 1022,9 hPa 0,0 l/m 10,1 km/h (2 Bft) O-NO 70 0 min 0,000 mm 0,0 UV-I 0 W/m -3,0 C -5,7 C 14,5 km/h (3 Bft) 93,62 %
15.01.2018 06:52 -2,1 C 3,3 C 93 % 1022,9 hPa 0,0 l/m 9,6 km/h (2 Bft) O-NO 57 0 min 0,000 mm 0,0 UV-I 0 W/m -3,1 C -5,4 C 14,5 km/h (3 Bft) 98,11 %
15.01.2018 06:54 -2,1 C 3,3 C 93 % 1022,8 hPa 0,0 l/m 10,8 km/h (2 Bft) O-NO 57 0 min 0,000 mm 0,0 UV-I 0 W/m -3,1 C -6,5 C 14,5 km/h (3 Bft) 97,87 %
15.01.2018 06:56 -2,1 C 3,3 C 93 % 1022,8 hPa 0,0 l/m 7,6 km/h (2 Bft) O-NO 65 0 min 0,000 mm 0,0 UV-I 0 W/m -3,1 C -3,4 C 12,9 km/h (3 Bft) 92,59 %
15.01.2018 06:58 -2,1 C 3,3 C 93 % 1022,9 hPa 0,0 l/m 8,1 km/h (2 Bft) NO 52 0 min 0,000 mm 0,0 UV-I 0 W/m -3,1 C -4,0 C 12,9 km/h (3 Bft) 95,31 %
15.01.2018 07:00 -2,1 C 3,3 C 93 % 1022,8 hPa 0,0 l/m 8,6 km/h (2 Bft) O-NO 65 0 min 0,000 mm 0,0 UV-I 0 W/m -3,1 C -4,5 C 12,9 km/h (3 Bft) 97,87 %
15.01.2018 07:02 -2,1 C 3,3 C 93 % 1022,8 hPa 0,0 l/m 7,0 km/h (2 Bft) NO 55 0 min 0,000 mm 0,0 UV-I 0 W/m -3,1 C -2,8 C 9,7 km/h (2 Bft) 98,00 %
15.01.2018 07:04 -2,1 C 3,3 C 93 % 1022,9 hPa 0,0 l/m 8,3 km/h (2 Bft) NO 52 0 min 0,000 mm 0,0 UV-I 0 W/m -3,1 C -4,2 C 12,9 km/h (3 Bft) 95,74 %
15.01.2018 07:06 -2,1 C 3,3 C 93 % 1022,9 hPa 0,0 l/m 8,0 km/h (2 Bft) NO 51 0 min 0,000 mm 0,0 UV-I 0 W/m -3,1 C -3,9 C 11,3 km/h (2 Bft) 100,00 %
15.01.2018 07:08 -2,1 C 3,3 C 93 % 1022,9 hPa 0,0 l/m 8,8 km/h (2 Bft) O-NO 61 0 min 0,000 mm 0,0 UV-I 0 W/m -3,1 C -4,7 C 12,9 km/h (3 Bft) 97,87 %
15.01.2018 07:10 -2,1 C 3,3 C 93 % 1022,9 hPa 0,0 l/m 7,3 km/h (2 Bft) O-NO 75 0 min 0,000 mm 0,0 UV-I 0 W/m -3,1 C -3,1 C 12,9 km/h (3 Bft) 98,00 %
15.01.2018 07:12 -2,1 C 3,3 C 93 % 1022,9 hPa 0,0 l/m 8,1 km/h (2 Bft) O-NO 66 0 min 0,000 mm 0,0 UV-I 0 W/m -3,1 C -4,0 C 12,9 km/h (3 Bft) 98,00 %
15.01.2018 07:14 -2,1 C 3,3 C 93 % 1022,9 hPa 0,0 l/m 7,8 km/h (2 Bft) O-NO 67 0 min 0,000 mm 0,0 UV-I 0 W/m -3,1 C -3,6 C 12,9 km/h (3 Bft) 97,87 %
15.01.2018 07:16 -2,1 C 3,3 C 93 % 1022,9 hPa 0,0 l/m 6,9 km/h (2 Bft) O 90 0 min 0,000 mm 0,0 UV-I 0 W/m -3,1 C -2,6 C 9,7 km/h (2 Bft) 97,87 %
15.01.2018 07:18 -2,2 C 3,3 C 93 % 1022,9 hPa 0,0 l/m 5,5 km/h (1 Bft) O-NO 71 0 min 0,000 mm 0,0 UV-I 0 W/m -3,2 C -2,2 C 8,0 km/h (2 Bft) 97,56 %
15.01.2018 07:20 -2,2 C 3,3 C 93 % 1022,9 hPa 0,0 l/m 5,8 km/h (2 Bft) O-NO 61 0 min 0,000 mm 0,0 UV-I 0 W/m -3,2 C -2,2 C 11,3 km/h (2 Bft) 96,00 %
15.01.2018 07:22 -2,2 C 3,3 C 93 % 1022,8 hPa 0,0 l/m 6,9 km/h (2 Bft) O 86 0 min 0,000 mm 0,0 UV-I 0 W/m -3,2 C -2,7 C 11,3 km/h (2 Bft) 97,56 %
15.01.2018 07:24 -2,2 C 3,3 C 93 % 1022,8 hPa 0,0 l/m 6,6 km/h (2 Bft) O-NO 69 0 min 0,000 mm 0,0 UV-I 0 W/m -3,2 C -2,4 C 11,3 km/h (2 Bft) 98,00 %
15.01.2018 07:26 -2,2 C 3,3 C 93 % 1022,8 hPa 0,0 l/m 5,4 km/h (1 Bft) O-NO 77 0 min 0,000 mm 0,0 UV-I 0 W/m -3,2 C -2,2 C 8,0 km/h (2 Bft) 98,00 %
15.01.2018 07:28 -2,2 C 3,3 C 93 % 1022,9 hPa 0,0 l/m 6,7 km/h (2 Bft) NO 54 0 min 0,000 mm 0,0 UV-I 0 W/m -3,2 C -2,5 C 8,0 km/h (2 Bft) 97,62 %
15.01.2018 07:30 -2,2 C 3,3 C 93 % 1022,9 hPa 0,0 l/m 5,5 km/h (1 Bft) O-NO 60 0 min 0,000 mm 0,0 UV-I 0 W/m -3,2 C -2,2 C 6,4 km/h (2 Bft) 92,31 %
15.01.2018 07:32 -2,2 C 3,3 C 93 % 1022,9 hPa 0,0 l/m 4,7 km/h (1 Bft) O-NO 64 0 min 0,000 mm 0,0 UV-I 0 W/m -3,2 C -2,2 C 8,0 km/h (2 Bft) 97,87 %
15.01.2018 07:34 -2,2 C 3,3 C 93 % 1022,8 hPa 0,0 l/m 7,1 km/h (2 Bft) O-NO 57 0 min 0,000 mm 0,0 UV-I 0 W/m -3,2 C -3,0 C 9,7 km/h (2 Bft) 97,56 %
15.01.2018 07:36 -2,2 C 3,3 C 93 % 1022,8 hPa 0,0 l/m 6,8 km/h (2 Bft) NO 56 0 min 0,000 mm 0,0 UV-I 0 W/m -3,2 C -2,6 C 8,0 km/h (2 Bft) 94,00 %
15.01.2018 07:38 -2,2 C 3,3 C 93 % 1022,8 hPa 0,0 l/m 6,8 km/h (2 Bft) O-NO 78 0 min 0,000 mm 0,0 UV-I 4 W/m -3,2 C -2,6 C 9,7 km/h (2 Bft) 96,00 %
15.01.2018 07:40 -2,2 C 3,3 C 93 % 1022,9 hPa 0,0 l/m 7,8 km/h (2 Bft) O 81 0 min 0,000 mm 0,0 UV-I 5 W/m -3,2 C -3,7 C 12,9 km/h (3 Bft) 96,15 %
15.01.2018 07:42 -2,2 C 3,3 C 93 % 1022,9 hPa 0,0 l/m 7,1 km/h (2 Bft) O 82 0 min 0,000 mm 0,0 UV-I 5 W/m -3,2 C -3,0 C 11,3 km/h (2 Bft) 96,92 %
15.01.2018 07:44 -2,2 C 3,3 C 93 % 1022,8 hPa 0,0 l/m 7,5 km/h (2 Bft) O 80 0 min 0,000 mm 0,0 UV-I 5 W/m -3,2 C -3,4 C 11,3 km/h (2 Bft) 96,23 %
15.01.2018 07:45 -2,2 C 3,3 C 93 % 1022,8 hPa 0,0 l/m 6,4 km/h (2 Bft) O-NO 67 0 min 0,000 mm 0,0 UV-I 6 W/m -3,2 C -2,2 C 11,3 km/h (2 Bft) 98,25 %
15.01.2018 07:50 -2,2 C 3,3 C 93 % 1022,8 hPa 0,0 l/m 4,8 km/h (1 Bft) O-NO 67 0 min 0,000 mm 0,0 UV-I 7 W/m -3,2 C -2,2 C 8,0 km/h (2 Bft) 100,00 %
15.01.2018 07:55 -2,2 C 3,3 C 93 % 1022,8 hPa 0,0 l/m 6,4 km/h (2 Bft) O-NO 67 0 min 0,000 mm 0,0 UV-I 8 W/m -3,2 C -2,2 C 9,7 km/h (2 Bft) 100,00 %
15.01.2018 07:58 -2,2 C 3,3 C 93 % 1022,9 hPa 0,0 l/m 7,3 km/h (2 Bft) NO 45 0 min 0,000 mm 0,0 UV-I 9 W/m -3,2 C -3,2 C 9,7 km/h (2 Bft) 96,91 %
15.01.2018 08:00 -2,2 C 3,3 C 93 % 1022,9 hPa 0,0 l/m 5,0 km/h (1 Bft) O-NO 76 0 min 0,000 mm 0,0 UV-I 11 W/m -3,2 C -2,2 C 8,0 km/h (2 Bft) 95,74 %
15.01.2018 08:02 -2,2 C 3,3 C 93 % 1022,8 hPa 0,0 l/m 5,7 km/h (1 Bft) O 91 2 min 0,000 mm 0,0 UV-I 12 W/m -3,2 C -2,2 C 6,4 km/h (2 Bft) 97,44 %
15.01.2018 08:04 -2,2 C 3,3 C 93 % 1022,9 hPa 0,0 l/m 6,2 km/h (2 Bft) O-NO 72 2 min 0,000 mm 0,0 UV-I 13 W/m -3,2 C -2,2 C 8,0 km/h (2 Bft) 94,83 %
15.01.2018 08:06 -2,2 C 3,3 C 93 % 1022,9 hPa 0,0 l/m 6,0 km/h (2 Bft) O 83 2 min 0,000 mm 0,0 UV-I 16 W/m -3,2 C -2,2 C 8,0 km/h (2 Bft) 100,00 %
15.01.2018 08:08 -2,2 C 3,3 C 93 % 1022,9 hPa 0,0 l/m 6,0 km/h (2 Bft) O-NO 69 0 min 0,000 mm 0,0 UV-I 17 W/m -3,2 C -2,2 C 8,0 km/h (2 Bft) 100,00 %
15.01.2018 08:10 -2,2 C 3,3 C 93 % 1022,9 hPa 0,0 l/m 6,8 km/h (2 Bft) NO 55 0 min 0,000 mm 0,0 UV-I 19 W/m -3,2 C -2,6 C 8,0 km/h (2 Bft) 100,00 %
15.01.2018 08:12 -2,2 C 3,3 C 93 % 1022,9 hPa 0,0 l/m 7,7 km/h (2 Bft) O-NO 59 0 min 0,000 mm 0,0 UV-I 21 W/m -3,2 C -3,6 C 11,3 km/h (2 Bft) 100,00 %
15.01.2018 08:14 -2,2 C 3,3 C 93 % 1022,8 hPa 0,0 l/m 6,3 km/h (2 Bft) O-NO 70 0 min 0,000 mm 0,0 UV-I 22 W/m -3,2 C -2,2 C 8,0 km/h (2 Bft) 100,00 %
15.01.2018 08:16 -2,2 C 3,3 C 93 % 1022,9 hPa 0,0 l/m 5,5 km/h (1 Bft) NO 47 0 min 0,000 mm 0,0 UV-I 23 W/m -3,2 C -2,2 C 6,4 km/h (2 Bft) 100,00 %
15.01.2018 08:18 -2,2 C 3,3 C 93 % 1022,9 hPa 0,0 l/m 5,9 km/h (2 Bft) NO 48 0 min 0,000 mm 0,0 UV-I 25 W/m -3,2 C -2,2 C 8,0 km/h (2 Bft) 100,00 %
15.01.2018 08:20 -2,2 C 3,3 C 93 % 1022,8 hPa 0,0 l/m 4,8 km/h (1 Bft) NO 54 0 min 0,000 mm 0,0 UV-I 27 W/m -3,2 C -2,2 C 6,4 km/h (2 Bft) 97,87 %
15.01.2018 08:22 -2,2 C 3,3 C 93 % 1022,8 hPa 0,0 l/m 4,8 km/h (1 Bft) O-NO 61 0 min 0,000 mm 0,0 UV-I 27 W/m -3,2 C -2,2 C 6,4 km/h (2 Bft) 98,00 %
15.01.2018 08:24 -2,2 C 3,3 C 93 % 1022,9 hPa 0,0 l/m 4,4 km/h (1 Bft) NO 42 0 min 0,000 mm 0,0 UV-I 26 W/m -3,2 C -2,2 C 6,4 km/h (2 Bft) 97,87 %
15.01.2018 08:26 -2,2 C 3,3 C 93 % 1022,9 hPa 0,0 l/m 5,6 km/h (1 Bft) NO 49 0 min 0,000 mm 0,0 UV-I 26 W/m -3,2 C -2,2 C 8,0 km/h (2 Bft) 100,00 %
15.01.2018 08:28 -2,2 C 3,3 C 93 % 1022,8 hPa 0,0 l/m 7,9 km/h (2 Bft) O-NO 60 0 min 0,000 mm 0,0 UV-I 26 W/m -3,2 C -3,9 C 12,9 km/h (3 Bft) 100,00 %
15.01.2018 08:30 -2,2 C 3,3 C 93 % 1023,0 hPa 0,0 l/m 8,6 km/h (2 Bft) O-NO 63 0 min 0,000 mm 0,0 UV-I 25 W/m -3,2 C -4,6 C 12,9 km/h (3 Bft) 100,00 %
15.01.2018 08:32 -2,2 C 3,3 C 93 % 1023,0 hPa 0,0 l/m 9,1 km/h (2 Bft) NO 56 0 min 0,000 mm 0,0 UV-I 22 W/m -3,2 C -5,1 C 16,1 km/h (3 Bft) 96,00 %
15.01.2018 08:34 -2,2 C 3,3 C 92 % 1023,0 hPa 0,0 l/m 9,6 km/h (2 Bft) NO 49 0 min 0,000 mm 0,0 UV-I 20 W/m -3,3 C -5,5 C 16,1 km/h (3 Bft) 96,23 %
15.01.2018 08:36 -2,2 C 3,3 C 92 % 1023,0 hPa 0,0 l/m 10,4 km/h (2 Bft) O-NO 61 0 min 0,000 mm 0,0 UV-I 19 W/m -3,3 C -6,2 C 14,5 km/h (3 Bft) 97,22 %
15.01.2018 08:40 -2,2 C 3,3 C 92 % 1023,0 hPa 0,0 l/m 9,7 km/h (2 Bft) O-NO 67 0 min 0,000 mm 0,0 UV-I 19 W/m -3,3 C -5,6 C 14,5 km/h (3 Bft) 96,49 %
15.01.2018 08:44 -2,2 C 3,3 C 92 % 1023,0 hPa 0,0 l/m 6,4 km/h (2 Bft) O-NO 69 0 min 0,000 mm 0,0 UV-I 21 W/m -3,3 C -2,2 C 6,4 km/h (2 Bft) 96,43 %
15.01.2018 08:46 -2,2 C 3,3 C 92 % 1023,0 hPa 0,0 l/m 9,9 km/h (2 Bft) O 84 0 min 0,000 mm 0,0 UV-I 23 W/m -3,3 C -5,8 C 12,9 km/h (3 Bft) 97,73 %
15.01.2018 08:48 -2,2 C 3,3 C 91 % 1023,0 hPa 0,0 l/m 7,5 km/h (2 Bft) O-NO 72 0 min 0,000 mm 0,0 UV-I 21 W/m -3,5 C -3,4 C 11,3 km/h (2 Bft) 95,56 %
15.01.2018 08:50 -2,2 C 3,3 C 92 % 1023,0 hPa 0,0 l/m 8,6 km/h (2 Bft) O-NO 74 0 min 0,000 mm 0,0 UV-I 21 W/m -3,3 C -4,6 C 12,9 km/h (3 Bft) 93,18 %
15.01.2018 08:55 -2,2 C 3,3 C 92 % 1023,0 hPa 0,0 l/m 8,0 km/h (2 Bft) O-NO 67 0 min 0,000 mm 0,0 UV-I 21 W/m -3,3 C -4,0 C 14,5 km/h (3 Bft) 100,00 %
15.01.2018 09:00 -2,2 C 3,3 C 92 % 1023,0 hPa 0,0 l/m 4,8 km/h (1 Bft) O-NO 69 0 min 0,000 mm 0,0 UV-I 21 W/m -3,3 C -2,2 C 6,4 km/h (2 Bft) 97,10 %
15.01.2018 09:02 -2,2 C 3,3 C 92 % 1022,9 hPa 0,0 l/m 6,3 km/h (2 Bft) O-NO 71 0 min 0,000 mm 0,0 UV-I 21 W/m -3,3 C -2,2 C 8,0 km/h (2 Bft) 98,00 %
15.01.2018 09:04 -2,2 C 3,3 C 92 % 1022,9 hPa 0,0 l/m 6,2 km/h (2 Bft) NO 56 0 min 0,000 mm 0,0 UV-I 22 W/m -3,3 C -2,2 C 8,0 km/h (2 Bft) 97,87 %
15.01.2018 09:06 -2,2 C 3,3 C 92 % 1022,9 hPa 0,0 l/m 5,8 km/h (2 Bft) N-NO 31 0 min 0,000 mm 0,0 UV-I 23 W/m -3,3 C -2,2 C 8,0 km/h (2 Bft) 97,37 %
15.01.2018 09:08 -2,2 C 3,3 C 92 % 1022,9 hPa 0,0 l/m 7,3 km/h (2 Bft) NO 43 0 min 0,000 mm 0,0 UV-I 23 W/m -3,3 C -3,2 C 11,3 km/h (2 Bft) 98,11 %
15.01.2018 09:10 -2,1 C 3,3 C 92 % 1022,9 hPa 0,0 l/m 9,7 km/h (2 Bft) NO 40 0 min 0,000 mm 0,0 UV-I 25 W/m -3,2 C -5,5 C 12,9 km/h (3 Bft) 100,00 %
15.01.2018 09:12 -2,2 C 3,3 C 92 % 1022,9 hPa 0,0 l/m 8,6 km/h (2 Bft) NO 40 0 min 0,000 mm 0,0 UV-I 26 W/m -3,3 C -4,6 C 12,9 km/h (3 Bft) 97,62 %
15.01.2018 09:14 -2,2 C 3,3 C 92 % 1022,9 hPa 0,0 l/m 7,6 km/h (2 Bft) O-NO 67 0 min 0,000 mm 0,0 UV-I 26 W/m -3,3 C -3,5 C 14,5 km/h (3 Bft) 100,00 %
15.01.2018 09:16 -2,2 C 3,3 C 92 % 1022,9 hPa 0,0 l/m 9,8 km/h (2 Bft) O-NO 64 0 min 0,000 mm 0,0 UV-I 28 W/m -3,3 C -5,7 C 16,1 km/h (3 Bft) 96,23 %
15.01.2018 09:18 -2,2 C 3,3 C 92 % 1022,9 hPa 0,0 l/m 9,9 km/h (2 Bft) O-NO 66 0 min 0,000 mm 0,0 UV-I 30 W/m -3,3 C -5,8 C 14,5 km/h (3 Bft) 100,00 %
15.01.2018 09:20 -2,2 C 3,3 C 92 % 1022,8 hPa 0,0 l/m 9,8 km/h (2 Bft) O-NO 68 0 min 0,000 mm 0,0 UV-I 34 W/m -3,3 C -5,7 C 14,5 km/h (3 Bft) 100,00 %
15.01.2018 09:22 -2,2 C 3,3 C 92 % 1022,8 hPa 0,0 l/m 9,7 km/h (2 Bft) NO 55 0 min 0,000 mm 0,0 UV-I 38 W/m -3,3 C -5,6 C 14,5 km/h (3 Bft) 100,00 %
15.01.2018 09:24 -2,2 C 3,3 C 91 % 1022,9 hPa 0,0 l/m 11,1 km/h (2 Bft) NO 56 0 min 0,000 mm 0,0 UV-I 41 W/m -3,5 C -6,8 C 16,1 km/h (3 Bft) 100,00 %
15.01.2018 09:26 -2,2 C 3,3 C 91 % 1022,9 hPa 0,0 l/m 10,3 km/h (2 Bft) O-NO 64 0 min 0,000 mm 0,0 UV-I 47 W/m -3,5 C -6,1 C 14,5 km/h (3 Bft) 100,00 %
15.01.2018 09:28 -2,2 C 3,3 C 91 % 1022,9 hPa 0,0 l/m 9,4 km/h (2 Bft) O-NO 69 0 min 0,000 mm 0,0 UV-I 46 W/m -3,5 C -5,3 C 14,5 km/h (3 Bft) 100,00 %
15.01.2018 09:30 -2,2 C 3,3 C 92 % 1022,9 hPa 0,0 l/m 8,4 km/h (2 Bft) NO 42 0 min 0,000 mm 0,0 UV-I 40 W/m -3,3 C -4,4 C 11,3 km/h (2 Bft) 98,11 %
15.01.2018 09:32 -2,2 C 3,3 C 92 % 1022,9 hPa 0,0 l/m 8,6 km/h (2 Bft) O-NO 73 0 min 0,000 mm 0,0 UV-I 40 W/m -3,3 C -4,6 C 12,9 km/h (3 Bft) 100,00 %
15.01.2018 09:34 -2,2 C 3,3 C 92 % 1022,9 hPa 0,0 l/m 7,2 km/h (2 Bft) O-NO 73 0 min 0,000 mm 0,0 UV-I 45 W/m -3,3 C -3,1 C 11,3 km/h (2 Bft) 97,37 %
15.01.2018 09:36 -2,2 C 3,3 C 91 % 1022,9 hPa 0,0 l/m 7,4 km/h (2 Bft) O-NO 71 0 min 0,000 mm 0,0 UV-I 47 W/m -3,5 C -3,3 C 16,1 km/h (3 Bft) 100,00 %
15.01.2018 09:38 -2,2 C 3,3 C 91 % 1022,9 hPa 0,0 l/m 9,1 km/h (2 Bft) O-NO 61 0 min 0,000 mm 0,0 UV-I 43 W/m -3,5 C -5,1 C 14,5 km/h (3 Bft) 100,00 %
15.01.2018 09:40 -2,2 C 3,3 C 91 % 1022,9 hPa 0,0 l/m 9,5 km/h (2 Bft) O-NO 75 0 min 0,000 mm 0,0 UV-I 45 W/m -3,5 C -5,4 C 14,5 km/h (3 Bft) 100,00 %
15.01.2018 09:42 -2,2 C 3,3 C 91 % 1022,9 hPa 0,0 l/m 8,3 km/h (2 Bft) O-NO 74 0 min 0,000 mm 0,0 UV-I 43 W/m -3,5 C -4,3 C 11,3 km/h (2 Bft) 100,00 %
15.01.2018 09:44 -2,2 C 3,3 C 92 % 1022,9 hPa 0,0 l/m 5,9 km/h (2 Bft) O-NO 71 0 min 0,000 mm 0,0 UV-I 59 W/m -3,3 C -2,2 C 8,0 km/h (2 Bft) 97,73 %
15.01.2018 09:46 -2,2 C 3,3 C 91 % 1022,9 hPa 0,0 l/m 7,1 km/h (2 Bft) O-NO 61 0 min 0,000 mm 0,0 UV-I 68 W/m -3,5 C -3,0 C 12,9 km/h (3 Bft) 96,23 %
15.01.2018 09:48 -2,2 C 3,3 C 91 % 1022,9 hPa 0,0 l/m 7,3 km/h (2 Bft) N-NO 17 0 min 0,000 mm 0,0 UV-I 68 W/m -3,5 C -3,2 C 12,9 km/h (3 Bft) 100,00 %
15.01.2018 09:50 -2,2 C 3,3 C 92 % 1022,9 hPa 0,0 l/m 7,7 km/h (2 Bft) NO 53 0 min 0,000 mm 0,0 UV-I 84 W/m -3,3 C -3,6 C 11,3 km/h (2 Bft) 100,00 %
15.01.2018 09:52 -2,2 C 3,3 C 92 % 1022,9 hPa 0,0 l/m 8,2 km/h (2 Bft) NO 45 0 min 0,000 mm 0,0 UV-I 88 W/m -3,3 C -4,2 C 12,9 km/h (3 Bft) 97,44 %
15.01.2018 09:54 -2,1 C 3,3 C 92 % 1022,9 hPa 0,0 l/m 6,9 km/h (2 Bft) NO 42 0 min 0,000 mm 0,0 UV-I 85 W/m -3,2 C -2,6 C 9,7 km/h (2 Bft) 100,00 %
15.01.2018 09:56 -2,1 C 3,3 C 92 % 1022,9 hPa 0,0 l/m 5,6 km/h (1 Bft) NO 53 0 min 0,000 mm 0,0 UV-I 94 W/m -3,2 C -2,1 C 8,0 km/h (2 Bft) 100,00 %
15.01.2018 09:58 -2,1 C 3,3 C 91 % 1022,9 hPa 0,0 l/m 8,2 km/h (2 Bft) O-NO 59 0 min 0,000 mm 0,0 UV-I 96 W/m -3,4 C -4,1 C 12,9 km/h (3 Bft) 100,00 %
15.01.2018 10:00 -2,1 C 3,3 C 91 % 1022,9 hPa 0,0 l/m 8,8 km/h (2 Bft) NO 48 0 min 0,025 mm 0,0 UV-I 96 W/m -3,4 C -4,7 C 12,9 km/h (3 Bft) 100,00 %
15.01.2018 10:02 -2,1 C 3,3 C 91 % 1022,9 hPa 0,0 l/m 9,4 km/h (2 Bft) O-NO 57 0 min 0,000 mm 0,0 UV-I 101 W/m -3,4 C -5,2 C 16,1 km/h (3 Bft) 95,74 %
15.01.2018 10:04 -2,1 C 3,3 C 91 % 1022,9 hPa 0,0 l/m 10,3 km/h (2 Bft) O-NO 60 0 min 0,000 mm 0,0 UV-I 104 W/m -3,4 C -6,0 C 14,5 km/h (3 Bft) 100,00 %
15.01.2018 10:06 -2,1 C 3,3 C 91 % 1023,0 hPa 0,0 l/m 9,5 km/h (2 Bft) O-NO 74 0 min 0,000 mm 0,0 UV-I 96 W/m -3,4 C -5,3 C 12,9 km/h (3 Bft) 98,11 %
15.01.2018 10:08 -2,1 C 3,3 C 91 % 1023,0 hPa 0,0 l/m 8,5 km/h (2 Bft) NO 49 0 min 0,000 mm 0,0 UV-I 91 W/m -3,4 C -4,4 C 12,9 km/h (3 Bft) 97,37 %
15.01.2018 10:10 -2,1 C 3,3 C 91 % 1022,9 hPa 0,0 l/m 8,4 km/h (2 Bft) NO 42 0 min 0,000 mm 0,0 UV-I 92 W/m -3,4 C -4,3 C 11,3 km/h (2 Bft) 100,00 %
15.01.2018 10:12 -2,0 C 3,3 C 91 % 1022,9 hPa 0,0 l/m 9,4 km/h (2 Bft) O-NO 59 0 min 0,000 mm 0,0 UV-I 94 W/m -3,3 C -5,1 C 14,5 km/h (3 Bft) 98,00 %
15.01.2018 10:14 -2,0 C 3,3 C 91 % 1023,0 hPa 0,0 l/m 8,6 km/h (2 Bft) NO 46 0 min 0,000 mm 0,0 UV-I 96 W/m -3,3 C -4,4 C 12,9 km/h (3 Bft) 100,00 %
15.01.2018 10:16 -2,1 C 3,3 C 91 % 1022,9 hPa 0,0 l/m 10,9 km/h (2 Bft) O-NO 66 0 min 0,000 mm 0,0 UV-I 88 W/m -3,4 C -6,5 C 16,1 km/h (3 Bft) 100,00 %
15.01.2018 10:18 -2,1 C 3,3 C 91 % 1022,9 hPa 0,0 l/m 8,4 km/h (2 Bft) O-NO 66 0 min 0,000 mm 0,0 UV-I 83 W/m -3,4 C -4,3 C 11,3 km/h (2 Bft) 100,00 %
15.01.2018 10:20 -2,0 C 3,3 C 91 % 1022,9 hPa 0,0 l/m 8,4 km/h (2 Bft) NO 56 0 min 0,000 mm 0,0 UV-I 79 W/m -3,3 C -4,2 C 12,9 km/h (3 Bft) 100,00 %
15.01.2018 10:22 -2,0 C 3,3 C 91 % 1023,0 hPa 0,0 l/m 10,2 km/h (2 Bft) O-NO 71 0 min 0,000 mm 0,0 UV-I 75 W/m -3,3 C -5,8 C 16,1 km/h (3 Bft) 98,00 %
15.01.2018 10:24 -2,0 C 3,3 C 91 % 1022,9 hPa 0,0 l/m 13,0 km/h (3 Bft) NO 56 0 min 0,000 mm 0,0 UV-I 64 W/m -3,3 C -8,0 C 19,3 km/h (3 Bft) 97,87 %
15.01.2018 10:26 -2,1 C 3,3 C 90 % 1022,9 hPa 0,0 l/m 10,1 km/h (2 Bft) O-NO 61 0 min 0,000 mm 0,0 UV-I 54 W/m -3,5 C -5,9 C 16,1 km/h (3 Bft) 100,00 %
15.01.2018 10:28 -2,1 C 3,3 C 91 % 1022,9 hPa 0,0 l/m 10,2 km/h (2 Bft) O-NO 68 0 min 0,000 mm 0,0 UV-I 47 W/m -3,4 C -5,9 C 14,5 km/h (3 Bft) 97,87 %
15.01.2018 10:30 -2,1 C 3,3 C 91 % 1022,9 hPa 0,0 l/m 11,2 km/h (2 Bft) O 83 0 min 0,000 mm 0,0 UV-I 49 W/m -3,4 C -6,8 C 16,1 km/h (3 Bft) 100,00 %
15.01.2018 10:32 -2,1 C 3,3 C 91 % 1022,9 hPa 0,0 l/m 11,1 km/h (2 Bft) NO 53 0 min 0,000 mm 0,0 UV-I 54 W/m -3,4 C -6,7 C 16,1 km/h (3 Bft) 97,56 %
15.01.2018 10:34 -2,1 C 3,3 C 91 % 1022,8 hPa 0,0 l/m 11,5 km/h (2 Bft) O-NO 66 0 min 0,000 mm 0,0 UV-I 62 W/m -3,4 C -7,0 C 16,1 km/h (3 Bft) 95,74 %
15.01.2018 10:36 -2,1 C 3,3 C 91 % 1022,8 hPa 0,0 l/m 11,9 km/h (2 Bft) O-NO 57 0 min 0,000 mm 0,0 UV-I 75 W/m -3,4 C -7,3 C 16,1 km/h (3 Bft) 93,62 %
15.01.2018 10:38 -2,0 C 3,3 C 91 % 1022,9 hPa 0,0 l/m 11,7 km/h (2 Bft) O-NO 59 0 min 0,000 mm 0,0 UV-I 82 W/m -3,3 C -7,1 C 16,1 km/h (3 Bft) 98,11 %
15.01.2018 10:40 -2,0 C 3,3 C 91 % 1022,9 hPa 0,0 l/m 12,5 km/h (3 Bft) O-NO 63 0 min 0,000 mm 0,0 UV-I 83 W/m -3,3 C -7,7 C 16,1 km/h (3 Bft) 97,73 %
15.01.2018 10:42 -1,9 C 3,3 C 90 % 1022,9 hPa 0,0 l/m 9,1 km/h (2 Bft) NO 55 0 min 0,000 mm 0,0 UV-I 84 W/m -3,3 C -4,7 C 14,5 km/h (3 Bft) 97,56 %
15.01.2018 10:44 -1,9 C 3,3 C 90 % 1022,9 hPa 0,0 l/m 11,6 km/h (2 Bft) O 85 0 min 0,000 mm 0,0 UV-I 86 W/m -3,3 C -6,9 C 16,1 km/h (3 Bft) 96,43 %
15.01.2018 10:46 -1,9 C 3,3 C 90 % 1022,9 hPa 0,0 l/m 8,6 km/h (2 Bft) O-NO 57 0 min 0,000 mm 0,0 UV-I 86 W/m -3,3 C -4,2 C 12,9 km/h (3 Bft) 96,88 %
15.01.2018 10:48 -1,9 C 3,3 C 91 % 1022,9 hPa 0,0 l/m 8,7 km/h (2 Bft) NO 38 0 min 0,000 mm 0,0 UV-I 86 W/m -3,2 C -4,3 C 14,5 km/h (3 Bft) 92,45 %
15.01.2018 10:50 -1,9 C 3,3 C 90 % 1022,8 hPa 0,0 l/m 8,3 km/h (2 Bft) O-NO 63 0 min 0,000 mm 0,0 UV-I 89 W/m -3,3 C -3,9 C 11,3 km/h (2 Bft) 94,00 %
15.01.2018 10:52 -1,9 C 3,3 C 90 % 1022,8 hPa 0,0 l/m 10,4 km/h (2 Bft) O 82 0 min 0,000 mm 0,0 UV-I 90 W/m -3,3 C -5,9 C 14,5 km/h (3 Bft) 95,56 %
15.01.2018 10:55 -1,9 C 3,3 C 90 % 1022,8 hPa 0,0 l/m 9,3 km/h (2 Bft) O-NO 73 0 min 0,000 mm 0,0 UV-I 87 W/m -3,3 C -4,9 C 14,5 km/h (3 Bft) 97,06 %
15.01.2018 10:56 -1,9 C 3,3 C 90 % 1022,8 hPa 0,0 l/m 11,5 km/h (2 Bft) O-NO 71 0 min 0,000 mm 0,0 UV-I 84 W/m -3,3 C -6,8 C 16,1 km/h (3 Bft) 96,88 %
15.01.2018 10:58 -1,9 C 3,3 C 90 % 1022,9 hPa 0,0 l/m 8,0 km/h (2 Bft) O-NO 76 0 min 0,000 mm 0,0 UV-I 84 W/m -3,3 C -3,6 C 11,3 km/h (2 Bft) 92,11 %
15.01.2018 11:00 -1,9 C 3,3 C 90 % 1022,8 hPa 0,0 l/m 10,3 km/h (2 Bft) O-NO 65 0 min 0,026 mm 0,0 UV-I 79 W/m -3,3 C -5,8 C 14,5 km/h (3 Bft) 92,86 %
15.01.2018 11:02 -1,8 C 3,3 C 90 % 1022,8 hPa 0,0 l/m 9,8 km/h (2 Bft) O 80 0 min 0,000 mm 0,0 UV-I 77 W/m -3,2 C -5,3 C 12,9 km/h (3 Bft) 94,87 %
15.01.2018 11:04 -1,8 C 3,3 C 90 % 1022,8 hPa 0,0 l/m 8,2 km/h (2 Bft) O-NO 74 0 min 0,000 mm 0,0 UV-I 75 W/m -3,2 C -3,7 C 12,9 km/h (3 Bft) 96,00 %
15.01.2018 11:06 -1,8 C 3,3 C 90 % 1022,8 hPa 0,0 l/m 8,8 km/h (2 Bft) O-NO 78 0 min 0,000 mm 0,0 UV-I 74 W/m -3,2 C -4,3 C 11,3 km/h (2 Bft) 97,56 %
15.01.2018 11:08 -1,8 C 3,3 C 90 % 1022,7 hPa 0,0 l/m 7,5 km/h (2 Bft) O-NO 62 0 min 0,000 mm 0,0 UV-I 71 W/m -3,2 C -3,0 C 12,9 km/h (3 Bft) 96,43 %
15.01.2018 11:10 -1,8 C 3,3 C 90 % 1022,7 hPa 0,0 l/m 9,5 km/h (2 Bft) O 87 0 min 0,000 mm 0,0 UV-I 67 W/m -3,2 C -5,0 C 12,9 km/h (3 Bft) 97,37 %
15.01.2018 11:12 -1,8 C 3,3 C 90 % 1022,6 hPa 0,0 l/m 8,5 km/h (2 Bft) O 82 0 min 0,000 mm 0,0 UV-I 67 W/m -3,2 C -4,0 C 12,9 km/h (3 Bft) 92,45 %
15.01.2018 11:14 -1,8 C 3,3 C 90 % 1022,6 hPa 0,0 l/m 8,2 km/h (2 Bft) O 99 0 min 0,000 mm 0,0 UV-I 67 W/m -3,2 C -3,7 C 12,9 km/h (3 Bft) 98,00 %
15.01.2018 11:16 -1,8 C 3,3 C 90 % 1022,7 hPa 0,0 l/m 8,0 km/h (2 Bft) O-NO 70 0 min 0,000 mm 0,0 UV-I 67 W/m -3,2 C -3,5 C 12,9 km/h (3 Bft) 97,73 %
15.01.2018 11:18 -1,8 C 3,3 C 90 % 1022,6 hPa 0,0 l/m 10,2 km/h (2 Bft) O-NO 73 0 min 0,000 mm 0,0 UV-I 67 W/m -3,2 C -5,6 C 16,1 km/h (3 Bft) 97,56 %
15.01.2018 11:20 -1,8 C 3,3 C 90 % 1022,6 hPa 0,0 l/m 10,2 km/h (2 Bft) O-NO 63 0 min 0,000 mm 0,0 UV-I 67 W/m -3,2 C -5,6 C 14,5 km/h (3 Bft) 98,11 %
15.01.2018 11:22 -1,8 C 3,3 C 90 % 1022,5 hPa 0,0 l/m 6,3 km/h (2 Bft) O 85 0 min 0,000 mm 0,0 UV-I 68 W/m -3,2 C -1,8 C 9,7 km/h (2 Bft) 92,11 %
15.01.2018 11:24 -1,8 C 3,3 C 90 % 1022,4 hPa 0,0 l/m 7,3 km/h (2 Bft) O-NO 62 0 min 0,000 mm 0,0 UV-I 69 W/m -3,2 C -2,8 C 11,3 km/h (2 Bft) 96,23 %
15.01.2018 11:26 -1,8 C 3,3 C 90 % 1022,5 hPa 0,0 l/m 6,6 km/h (2 Bft) O-NO 76 0 min 0,000 mm 0,0 UV-I 70 W/m -3,2 C -2,0 C 12,9 km/h (3 Bft) 97,87 %
15.01.2018 11:28 -1,8 C 3,3 C 90 % 1022,5 hPa 0,0 l/m 6,0 km/h (2 Bft) O 84 0 min 0,000 mm 0,0 UV-I 69 W/m -3,2 C -1,8 C 8,0 km/h (2 Bft) 96,00 %
15.01.2018 11:30 -1,8 C 3,3 C 90 % 1022,4 hPa 0,0 l/m 7,3 km/h (2 Bft) O-NO 72 0 min 0,000 mm 0,0 UV-I 70 W/m -3,2 C -2,8 C 11,3 km/h (2 Bft) 96,00 %
15.01.2018 11:32 -1,8 C 3,3 C 90 % 1022,4 hPa 0,0 l/m 9,2 km/h (2 Bft) O-NO 72 0 min 0,000 mm 0,0 UV-I 75 W/m -3,2 C -4,7 C 12,9 km/h (3 Bft) 100,00 %
15.01.2018 11:34 -1,8 C 3,3 C 90 % 1022,4 hPa 0,0 l/m 7,3 km/h (2 Bft) O-NO 58 0 min 0,000 mm 0,0 UV-I 75 W/m -3,2 C -2,8 C 9,7 km/h (2 Bft) 97,56 %
15.01.2018 11:36 -1,8 C 3,3 C 90 % 1022,3 hPa 0,0 l/m 5,4 km/h (1 Bft) O-NO 74 0 min 0,000 mm 0,0 UV-I 76 W/m -3,2 C -1,8 C 8,0 km/h (2 Bft) 96,88 %
15.01.2018 11:38 -1,8 C 3,3 C 90 % 1022,2 hPa 0,0 l/m 5,6 km/h (1 Bft) O-NO 64 0 min 0,000 mm 0,0 UV-I 80 W/m -3,2 C -1,8 C 8,0 km/h (2 Bft) 97,87 %
15.01.2018 11:40 -1,8 C 3,3 C 90 % 1022,2 hPa 0,0 l/m 7,1 km/h (2 Bft) NO 52 0 min 0,000 mm 0,0 UV-I 80 W/m -3,2 C -2,6 C 9,7 km/h (2 Bft) 97,92 %
15.01.2018 11:42 -1,8 C 3,3 C 90 % 1022,2 hPa 0,0 l/m 6,6 km/h (2 Bft) O-NO 67 0 min 0,000 mm 0,0 UV-I 76 W/m -3,2 C -2,0 C 11,3 km/h (2 Bft) 95,74 %
15.01.2018 11:44 -1,8 C 3,3 C 90 % 1022,1 hPa 0,0 l/m 6,6 km/h (2 Bft) O 86 0 min 0,000 mm 0,0 UV-I 78 W/m -3,2 C -2,0 C 11,3 km/h (2 Bft) 98,00 %
15.01.2018 11:46 -1,8 C 3,3 C 90 % 1022,1 hPa 0,0 l/m 6,4 km/h (2 Bft) O-NO 66 0 min 0,000 mm 0,0 UV-I 77 W/m -3,2 C -1,8 C 9,7 km/h (2 Bft) 94,00 %
15.01.2018 11:48 -1,8 C 3,3 C 90 % 1022,1 hPa 0,0 l/m 5,2 km/h (1 Bft) O-NO 59 0 min 0,000 mm 0,0 UV-I 75 W/m -3,2 C -1,8 C 6,4 km/h (2 Bft) 97,67 %
15.01.2018 11:50 -1,7 C 3,3 C 90 % 1022,0 hPa 0,0 l/m 6,6 km/h (2 Bft) O-NO 72 0 min 0,000 mm 0,0 UV-I 77 W/m -3,1 C -1,9 C 8,0 km/h (2 Bft) 93,18 %
15.01.2018 11:52 -1,7 C 3,3 C 90 % 1022,0 hPa 0,0 l/m 6,1 km/h (2 Bft) O-NO 60 0 min 0,000 mm 0,0 UV-I 84 W/m -3,1 C -1,7 C 8,0 km/h (2 Bft) 98,00 %
15.01.2018 11:54 -1,7 C 3,3 C 90 % 1021,9 hPa 0,0 l/m 6,4 km/h (2 Bft) NO 43 0 min 0,000 mm 0,0 UV-I 88 W/m -3,1 C -1,7 C 9,7 km/h (2 Bft) 97,56 %
15.01.2018 11:56 -1,6 C 3,3 C 91 % 1021,9 hPa 0,0 l/m 6,9 km/h (2 Bft) O-NO 78 0 min 0,000 mm 0,0 UV-I 90 W/m -2,9 C -2,1 C 9,7 km/h (2 Bft) 98,00 %
15.01.2018 11:58 -1,7 C 3,3 C 90 % 1021,9 hPa 0,0 l/m 7,4 km/h (2 Bft) NO 54 0 min 0,000 mm 0,0 UV-I 89 W/m -3,1 C -2,8 C 9,7 km/h (2 Bft) 97,87 %
15.01.2018 12:00 -1,7 C 3,3 C 90 % 1021,9 hPa 0,0 l/m 7,6 km/h (2 Bft) O-NO 57 0 min 0,025 mm 0,0 UV-I 96 W/m -3,1 C -3,0 C 9,7 km/h (2 Bft) 97,87 %
15.01.2018 12:02 -1,6 C 3,3 C 90 % 1021,8 hPa 0,0 l/m 7,1 km/h (2 Bft) NO 52 0 min 0,000 mm 0,0 UV-I 100 W/m -3,0 C -2,4 C 11,3 km/h (2 Bft) 96,23 %
15.01.2018 12:04 -1,6 C 3,3 C 90 % 1021,8 hPa 0,0 l/m 8,0 km/h (2 Bft) O-NO 73 0 min 0,000 mm 0,0 UV-I 96 W/m -3,0 C -3,3 C 12,9 km/h (3 Bft) 97,56 %
15.01.2018 12:06 -1,6 C 3,3 C 90 % 1021,7 hPa 0,0 l/m 9,2 km/h (2 Bft) O-NO 65 0 min 0,000 mm 0,0 UV-I 96 W/m -3,0 C -4,5 C 12,9 km/h (3 Bft) 98,11 %
15.01.2018 12:08 -1,7 C 3,3 C 90 % 1021,7 hPa 0,0 l/m 7,6 km/h (2 Bft) NO 51 0 min 0,000 mm 0,0 UV-I 100 W/m -3,1 C -3,0 C 11,3 km/h (2 Bft) 100,00 %
15.01.2018 12:10 -1,7 C 3,3 C 90 % 1021,6 hPa 0,0 l/m 7,9 km/h (2 Bft) O-NO 62 0 min 0,000 mm 0,0 UV-I 108 W/m -3,1 C -3,3 C 12,9 km/h (3 Bft) 97,87 %
15.01.2018 12:12 -1,6 C 3,3 C 90 % 1021,7 hPa 0,0 l/m 10,3 km/h (2 Bft) O-NO 67 0 min 0,000 mm 0,0 UV-I 115 W/m -3,0 C -5,5 C 14,5 km/h (3 Bft) 100,00 %
15.01.2018 12:14 -1,7 C 3,3 C 89 % 1021,6 hPa 0,0 l/m 9,0 km/h (2 Bft) O-NO 78 0 min 0,000 mm 0,0 UV-I 138 W/m -3,3 C -4,4 C 12,9 km/h (3 Bft) 98,11 %
15.01.2018 12:16 -1,7 C 3,3 C 90 % 1021,6 hPa 0,0 l/m 7,8 km/h (2 Bft) O-NO 71 0 min 0,000 mm 0,0 UV-I 152 W/m -3,1 C -3,2 C 11,3 km/h (2 Bft) 100,00 %
15.01.2018 12:18 -1,6 C 3,3 C 90 % 1021,6 hPa 0,0 l/m 9,1 km/h (2 Bft) O-NO 76 0 min 0,000 mm 0,0 UV-I 153 W/m -3,0 C -4,4 C 12,9 km/h (3 Bft) 100,00 %
15.01.2018 12:20 -1,6 C 3,3 C 89 % 1021,5 hPa 0,0 l/m 10,3 km/h (2 Bft) O 80 0 min 0,000 mm 0,0 UV-I 142 W/m -3,2 C -5,5 C 14,5 km/h (3 Bft) 100,00 %
15.01.2018 12:22 -1,6 C 3,3 C 89 % 1021,4 hPa 0,0 l/m 10,0 km/h (2 Bft) O-NO 74 0 min 0,000 mm 0,0 UV-I 145 W/m -3,2 C -5,2 C 12,9 km/h (3 Bft) 97,78 %
15.01.2018 12:24 -1,5 C 3,3 C 89 % 1021,4 hPa 0,0 l/m 9,9 km/h (2 Bft) O-NO 64 0 min 0,000 mm 0,0 UV-I 154 W/m -3,1 C -5,0 C 14,5 km/h (3 Bft) 98,00 %
15.01.2018 12:26 -1,5 C 3,3 C 89 % 1021,3 hPa 0,0 l/m 7,8 km/h (2 Bft) O 82 0 min 0,000 mm 0,0 UV-I 136 W/m -3,1 C -3,0 C 11,3 km/h (2 Bft) 100,00 %
15.01.2018 12:28 -1,5 C 3,3 C 89 % 1021,3 hPa 0,0 l/m 7,5 km/h (2 Bft) O 80 0 min 0,000 mm 0,0 UV-I 129 W/m -3,1 C -2,7 C 12,9 km/h (3 Bft) 100,00 %
15.01.2018 12:30 -1,5 C 3,3 C 89 % 1021,2 hPa 0,0 l/m 9,2 km/h (2 Bft) O-NO 75 0 min 0,000 mm 0,0 UV-I 133 W/m -3,1 C -4,4 C 12,9 km/h (3 Bft) 98,11 %
15.01.2018 12:32 -1,5 C 3,3 C 89 % 1021,2 hPa 0,0 l/m 7,9 km/h (2 Bft) O 99 0 min 0,000 mm 0,0 UV-I 129 W/m -3,1 C -3,1 C 12,9 km/h (3 Bft) 97,14 %
15.01.2018 12:34 -1,5 C 3,3 C 89 % 1021,2 hPa 0,0 l/m 8,7 km/h (2 Bft) O-NO 74 0 min 0,000 mm 0,0 UV-I 121 W/m -3,1 C -3,9 C 14,5 km/h (3 Bft) 97,56 %
15.01.2018 12:36 -1,4 C 3,3 C 89 % 1021,1 hPa 0,0 l/m 9,4 km/h (2 Bft) O-NO 61 0 min 0,000 mm 0,0 UV-I 129 W/m -3,0 C -4,5 C 12,9 km/h (3 Bft) 98,11 %
15.01.2018 12:38 -1,5 C 3,3 C 89 % 1021,0 hPa 0,0 l/m 8,7 km/h (2 Bft) O 87 0 min 0,000 mm 0,0 UV-I 127 W/m -3,1 C -3,9 C 12,9 km/h (3 Bft) 96,23 %
15.01.2018 12:40 -1,5 C 3,3 C 89 % 1021,0 hPa 0,0 l/m 8,9 km/h (2 Bft) O-NO 78 0 min 0,000 mm 0,0 UV-I 134 W/m -3,1 C -4,1 C 14,5 km/h (3 Bft) 98,00 %
15.01.2018 12:42 -1,5 C 3,3 C 89 % 1021,0 hPa 0,0 l/m 6,3 km/h (2 Bft) O-NO 67 0 min 0,000 mm 0,0 UV-I 125 W/m -3,1 C -1,5 C 8,0 km/h (2 Bft) 97,37 %
15.01.2018 12:44 -1,4 C 3,3 C 90 % 1021,0 hPa 0,0 l/m 6,8 km/h (2 Bft) NO 48 0 min 0,000 mm 0,0 UV-I 128 W/m -2,8 C -1,8 C 8,0 km/h (2 Bft) 96,23 %
15.01.2018 12:46 -1,3 C 3,3 C 90 % 1020,9 hPa 0,0 l/m 5,5 km/h (1 Bft) O-NO 71 0 min 0,000 mm 0,0 UV-I 124 W/m -2,7 C -1,3 C 11,3 km/h (2 Bft) 98,00 %
15.01.2018 12:48 -1,3 C 3,3 C 89 % 1020,8 hPa 0,0 l/m 6,7 km/h (2 Bft) O 81 0 min 0,000 mm 0,0 UV-I 127 W/m -2,9 C -1,6 C 11,3 km/h (2 Bft) 97,37 %
15.01.2018 12:50 -1,3 C 3,3 C 89 % 1020,8 hPa 0,0 l/m 8,6 km/h (2 Bft) O-NO 63 0 min 0,000 mm 0,0 UV-I 141 W/m -2,9 C -3,6 C 12,9 km/h (3 Bft) 98,00 %
15.01.2018 12:52 -1,3 C 3,3 C 89 % 1020,8 hPa 0,0 l/m 8,8 km/h (2 Bft) NO 47 0 min 0,000 mm 0,0 UV-I 172 W/m -2,9 C -3,8 C 14,5 km/h (3 Bft) 97,22 %
15.01.2018 12:54 -1,3 C 3,3 C 89 % 1020,8 hPa 0,0 l/m 8,2 km/h (2 Bft) NO 43 0 min 0,000 mm 0,0 UV-I 148 W/m -2,9 C -3,2 C 12,9 km/h (3 Bft) 96,88 %
15.01.2018 12:56 -1,2 C 3,3 C 89 % 1020,8 hPa 0,0 l/m 8,6 km/h (2 Bft) NO 44 0 min 0,000 mm 0,0 UV-I 134 W/m -2,8 C -3,5 C 12,9 km/h (3 Bft) 97,62 %
15.01.2018 12:58 -1,3 C 3,3 C 89 % 1020,8 hPa 0,0 l/m 9,1 km/h (2 Bft) O-NO 69 0 min 0,000 mm 0,0 UV-I 139 W/m -2,9 C -4,1 C 14,5 km/h (3 Bft) 98,00 %
15.01.2018 13:00 -1,3 C 3,3 C 89 % 1020,7 hPa 0,0 l/m 8,0 km/h (2 Bft) NO 46 0 min 0,051 mm 0,0 UV-I 137 W/m -2,9 C -3,0 C 12,9 km/h (3 Bft) 95,74 %
15.01.2018 13:02 -1,3 C 3,3 C 89 % 1020,7 hPa 0,0 l/m 10,4 km/h (2 Bft) NO 52 0 min 0,000 mm 0,0 UV-I 142 W/m -2,9 C -5,2 C 16,1 km/h (3 Bft) 89,36 %
15.01.2018 13:04 -1,3 C 3,3 C 89 % 1020,7 hPa 0,0 l/m 10,2 km/h (2 Bft) NO 55 0 min 0,000 mm 0,0 UV-I 146 W/m -2,9 C -5,1 C 14,5 km/h (3 Bft) 94,74 %
15.01.2018 13:06 -1,3 C 3,3 C 89 % 1020,6 hPa 0,0 l/m 10,9 km/h (2 Bft) O-NO 69 0 min 0,000 mm 0,0 UV-I 149 W/m -2,9 C -5,6 C 14,5 km/h (3 Bft) 98,00 %
15.01.2018 13:08 -1,3 C 3,3 C 88 % 1020,6 hPa 0,0 l/m 8,6 km/h (2 Bft) O-NO 65 0 min 0,000 mm 0,0 UV-I 148 W/m -3,0 C -3,6 C 12,9 km/h (3 Bft) 94,00 %
15.01.2018 13:10 -1,3 C 3,3 C 89 % 1020,6 hPa 0,0 l/m 9,7 km/h (2 Bft) NO 46 0 min 0,000 mm 0,0 UV-I 137 W/m -2,9 C -4,6 C 12,9 km/h (3 Bft) 96,00 %
15.01.2018 13:12 -1,3 C 3,3 C 89 % 1020,6 hPa 0,0 l/m 8,4 km/h (2 Bft) O-NO 61 0 min 0,000 mm 0,0 UV-I 126 W/m -2,9 C -3,4 C 11,3 km/h (2 Bft) 100,00 %
15.01.2018 13:14 -1,3 C 3,3 C 89 % 1020,5 hPa 0,0 l/m 7,7 km/h (2 Bft) O-NO 71 0 min 0,000 mm 0,0 UV-I 132 W/m -2,9 C -2,7 C 9,7 km/h (2 Bft) 100,00 %
15.01.2018 13:16 -1,3 C 3,3 C 89 % 1020,5 hPa 0,0 l/m 7,3 km/h (2 Bft) NO 49 0 min 0,000 mm 0,0 UV-I 139 W/m -2,9 C -2,3 C 12,9 km/h (3 Bft) 100,00 %
15.01.2018 13:18 -1,3 C 3,3 C 89 % 1020,5 hPa 0,0 l/m 7,5 km/h (2 Bft) O-NO 70 0 min 0,000 mm 0,0 UV-I 140 W/m -2,9 C -2,5 C 11,3 km/h (2 Bft) 100,00 %
15.01.2018 13:20 -1,3 C 3,3 C 89 % 1020,5 hPa 0,0 l/m 10,3 km/h (2 Bft) O-NO 65 0 min 0,000 mm 0,0 UV-I 136 W/m -2,9 C -5,1 C 16,1 km/h (3 Bft) 100,00 %
15.01.2018 13:22 -1,3 C 3,3 C 89 % 1020,4 hPa 0,0 l/m 10,8 km/h (2 Bft) O-NO 70 0 min 0,000 mm 0,0 UV-I 164 W/m -2,9 C -5,6 C 14,5 km/h (3 Bft) 100,00 %
15.01.2018 13:24 -1,3 C 3,3 C 89 % 1020,4 hPa 0,0 l/m 6,9 km/h (2 Bft) NO 55 0 min 0,000 mm 0,0 UV-I 153 W/m -2,9 C -1,8 C 11,3 km/h (2 Bft) 97,62 %
15.01.2018 13:26 -1,2 C 3,3 C 89 % 1020,4 hPa 0,0 l/m 7,3 km/h (2 Bft) O-NO 63 0 min 0,000 mm 0,0 UV-I 165 W/m -2,8 C -2,2 C 11,3 km/h (2 Bft) 100,00 %
15.01.2018 13:28 -1,1 C 3,3 C 89 % 1020,3 hPa 0,0 l/m 7,1 km/h (2 Bft) O-NO 78 0 min 0,000 mm 0,0 UV-I 157 W/m -2,7 C -1,9 C 8,0 km/h (2 Bft) 100,00 %
15.01.2018 13:30 -1,2 C 3,3 C 89 % 1020,1 hPa 0,0 l/m 9,0 km/h (2 Bft) O-NO 67 0 min 0,000 mm 0,0 UV-I 149 W/m -2,8 C -3,9 C 14,5 km/h (3 Bft) 100,00 %
15.01.2018 13:32 -1,1 C 3,3 C 89 % 1020,1 hPa 0,0 l/m 10,3 km/h (2 Bft) O-NO 61 0 min 0,000 mm 0,0 UV-I 145 W/m -2,7 C -4,9 C 14,5 km/h (3 Bft) 97,37 %
15.01.2018 13:34 -1,2 C 3,3 C 89 % 1020,0 hPa 0,0 l/m 7,0 km/h (2 Bft) O-NO 67 0 min 0,000 mm 0,0 UV-I 141 W/m -2,8 C -1,8 C 11,3 km/h (2 Bft) 100,00 %
15.01.2018 13:36 -1,2 C 3,3 C 89 % 1020,0 hPa 0,0 l/m 8,2 km/h (2 Bft) O-NO 63 0 min 0,000 mm 0,0 UV-I 152 W/m -2,8 C -3,1 C 12,9 km/h (3 Bft) 98,00 %
15.01.2018 13:38 -1,2 C 3,3 C 89 % 1020,0 hPa 0,0 l/m 8,2 km/h (2 Bft) O-NO 57 0 min 0,000 mm 0,0 UV-I 162 W/m -2,8 C -3,1 C 12,9 km/h (3 Bft) 100,00 %
15.01.2018 13:40 -1,1 C 3,3 C 89 % 1020,0 hPa 0,0 l/m 7,9 km/h (2 Bft) NO 49 0 min 0,000 mm 0,0 UV-I 158 W/m -2,7 C -2,7 C 11,3 km/h (2 Bft) 100,00 %
15.01.2018 13:42 -1,1 C 3,3 C 89 % 1020,0 hPa 0,0 l/m 9,3 km/h (2 Bft) NO 48 0 min 0,000 mm 0,0 UV-I 147 W/m -2,7 C -4,0 C 14,5 km/h (3 Bft) 97,73 %
15.01.2018 13:44 -1,1 C 3,3 C 89 % 1019,9 hPa 0,0 l/m 7,6 km/h (2 Bft) NO 46 0 min 0,000 mm 0,0 UV-I 142 W/m -2,7 C -2,4 C 11,3 km/h (2 Bft) 98,11 %
15.01.2018 13:46 -1,1 C 3,3 C 89 % 1019,9 hPa 0,0 l/m 7,3 km/h (2 Bft) NO 54 0 min 0,000 mm 0,0 UV-I 146 W/m -2,7 C -2,1 C 9,7 km/h (2 Bft) 100,00 %
15.01.2018 13:48 -1,1 C 3,3 C 89 % 1019,9 hPa 0,0 l/m 7,9 km/h (2 Bft) O-NO 65 0 min 0,000 mm 0,0 UV-I 146 W/m -2,7 C -2,7 C 11,3 km/h (2 Bft) 100,00 %
15.01.2018 13:50 -1,1 C 3,3 C 89 % 1019,8 hPa 0,0 l/m 7,2 km/h (2 Bft) NO 49 0 min 0,000 mm 0,0 UV-I 145 W/m -2,7 C -2,0 C 9,7 km/h (2 Bft) 100,00 %
15.01.2018 13:52 -1,0 C 3,3 C 89 % 1019,8 hPa 0,0 l/m 10,7 km/h (2 Bft) NO 42 0 min 0,000 mm 0,0 UV-I 134 W/m -2,6 C -5,1 C 16,1 km/h (3 Bft) 100,00 %
15.01.2018 13:54 -0,9 C 3,3 C 89 % 1019,8 hPa 0,0 l/m 8,0 km/h (2 Bft) NO 38 0 min 0,000 mm 0,0 UV-I 129 W/m -2,5 C -2,6 C 9,7 km/h (2 Bft) 97,56 %
15.01.2018 13:56 -0,9 C 3,3 C 89 % 1019,8 hPa 0,0 l/m 6,8 km/h (2 Bft) NO 49 0 min 0,000 mm 0,0 UV-I 123 W/m -2,5 C -1,3 C 9,7 km/h (2 Bft) 100,00 %
15.01.2018 13:58 -1,1 C 3,3 C 88 % 1019,8 hPa 0,0 l/m 8,3 km/h (2 Bft) O-NO 72 0 min 0,000 mm 0,0 UV-I 123 W/m -2,8 C -3,1 C 12,9 km/h (3 Bft) 100,00 %
15.01.2018 14:00 -1,1 C 3,3 C 88 % 1019,7 hPa 0,0 l/m 8,6 km/h (2 Bft) O-NO 62 0 min 0,051 mm 0,0 UV-I 137 W/m -2,8 C -3,4 C 12,9 km/h (3 Bft) 98,00 %
15.01.2018 14:02 -1,1 C 3,3 C 89 % 1019,6 hPa 0,0 l/m 6,9 km/h (2 Bft) O-NO 78 0 min 0,000 mm 0,0 UV-I 158 W/m -2,7 C -1,6 C 9,7 km/h (2 Bft) 97,87 %
15.01.2018 14:04 -1,1 C 3,3 C 88 % 1019,6 hPa 0,0 l/m 7,6 km/h (2 Bft) O-NO 76 0 min 0,000 mm 0,0 UV-I 138 W/m -2,8 C -2,4 C 12,9 km/h (3 Bft) 100,00 %
15.01.2018 14:06 -1,1 C 3,3 C 88 % 1019,6 hPa 0,0 l/m 8,8 km/h (2 Bft) O 82 0 min 0,000 mm 0,0 UV-I 130 W/m -2,8 C -3,6 C 12,9 km/h (3 Bft) 100,00 %
15.01.2018 14:08 -1,1 C 3,3 C 88 % 1019,5 hPa 0,0 l/m 7,4 km/h (2 Bft) O-NO 63 0 min 0,000 mm 0,0 UV-I 136 W/m -2,8 C -2,2 C 11,3 km/h (2 Bft) 100,00 %
15.01.2018 14:10 -1,1 C 3,3 C 89 % 1019,5 hPa 0,0 l/m 6,5 km/h (2 Bft) O-NO 62 0 min 0,000 mm 0,0 UV-I 134 W/m -2,7 C -1,2 C 9,7 km/h (2 Bft) 100,00 %
15.01.2018 14:12 -1,1 C 3,3 C 88 % 1019,4 hPa 0,0 l/m 11,7 km/h (2 Bft) NO 43 0 min 0,000 mm 0,0 UV-I 121 W/m -2,8 C -6,0 C 16,1 km/h (3 Bft) 100,00 %
15.01.2018 14:14 -1,1 C 3,3 C 88 % 1019,4 hPa 0,0 l/m 9,3 km/h (2 Bft) N-NO 30 0 min 0,000 mm 0,0 UV-I 122 W/m -2,8 C -4,0 C 14,5 km/h (3 Bft) 97,37 %
15.01.2018 14:16 -1,1 C 3,3 C 88 % 1019,3 hPa 0,0 l/m 9,3 km/h (2 Bft) O-NO 57 0 min 0,000 mm 0,0 UV-I 130 W/m -2,8 C -4,0 C 14,5 km/h (3 Bft) 98,31 %
15.01.2018 14:18 -1,1 C 3,3 C 88 % 1019,3 hPa 0,0 l/m 8,5 km/h (2 Bft) O-NO 59 0 min 0,000 mm 0,0 UV-I 121 W/m -2,8 C -3,3 C 14,5 km/h (3 Bft) 97,37 %
15.01.2018 14:20 -1,0 C 3,3 C 89 % 1019,3 hPa 0,0 l/m 8,3 km/h (2 Bft) NO 54 0 min 0,000 mm 0,0 UV-I 119 W/m -2,6 C -3,0 C 12,9 km/h (3 Bft) 94,34 %
15.01.2018 14:22 -1,0 C 3,3 C 88 % 1019,2 hPa 0,0 l/m 8,4 km/h (2 Bft) O-NO 78 0 min 0,000 mm 0,0 UV-I 118 W/m -2,7 C -3,1 C 12,9 km/h (3 Bft) 100,00 %
15.01.2018 14:24 -1,1 C 3,3 C 88 % 1019,1 hPa 0,0 l/m 9,0 km/h (2 Bft) O-NO 67 0 min 0,000 mm 0,0 UV-I 122 W/m -2,8 C -3,8 C 12,9 km/h (3 Bft) 100,00 %
15.01.2018 14:26 -1,1 C 3,3 C 88 % 1019,1 hPa 0,0 l/m 8,5 km/h (2 Bft) O-NO 66 0 min 0,000 mm 0,0 UV-I 123 W/m -2,8 C -3,3 C 12,9 km/h (3 Bft) 98,11 %
15.01.2018 14:28 -1,1 C 3,3 C 88 % 1019,1 hPa 0,0 l/m 9,0 km/h (2 Bft) O-NO 71 0 min 0,000 mm 0,0 UV-I 114 W/m -2,8 C -3,8 C 14,5 km/h (3 Bft) 95,12 %
15.01.2018 14:30 -1,0 C 3,3 C 88 % 1019,1 hPa 0,0 l/m 7,2 km/h (2 Bft) NO 56 0 min 0,000 mm 0,0 UV-I 118 W/m -2,7 C -1,9 C 12,9 km/h (3 Bft) 98,00 %
15.01.2018 14:32 -1,0 C 3,3 C 88 % 1019,1 hPa 0,0 l/m 8,6 km/h (2 Bft) O-NO 64 0 min 0,000 mm 0,0 UV-I 117 W/m -2,7 C -3,3 C 14,5 km/h (3 Bft) 97,87 %
15.01.2018 14:34 -0,9 C 3,3 C 88 % 1019,0 hPa 0,0 l/m 6,9 km/h (2 Bft) NO 55 0 min 0,000 mm 0,0 UV-I 107 W/m -2,6 C -1,4 C 9,7 km/h (2 Bft) 98,11 %
15.01.2018 14:36 -0,9 C 3,3 C 88 % 1019,0 hPa 0,0 l/m 8,5 km/h (2 Bft) NO 54 0 min 0,000 mm 0,0 UV-I 96 W/m -2,6 C -3,1 C 11,3 km/h (2 Bft) 97,44 %
15.01.2018 14:38 -0,9 C 3,3 C 88 % 1019,0 hPa 0,0 l/m 8,4 km/h (2 Bft) O-NO 61 0 min 0,000 mm 0,0 UV-I 90 W/m -2,6 C -3,0 C 12,9 km/h (3 Bft) 96,00 %
15.01.2018 14:40 -0,9 C 3,3 C 88 % 1019,0 hPa 0,0 l/m 7,2 km/h (2 Bft) O-NO 66 0 min 0,000 mm 0,0 UV-I 86 W/m -2,6 C -1,8 C 9,7 km/h (2 Bft) 98,00 %
15.01.2018 14:42 -0,9 C 3,3 C 88 % 1019,0 hPa 0,0 l/m 7,4 km/h (2 Bft) NO 46 0 min 0,000 mm 0,0 UV-I 90 W/m -2,6 C -2,0 C 12,9 km/h (3 Bft) 97,44 %
15.01.2018 14:44 -0,9 C 3,3 C 88 % 1019,0 hPa 0,0 l/m 8,2 km/h (2 Bft) NO 43 0 min 0,000 mm 0,0 UV-I 96 W/m -2,6 C -2,8 C 12,9 km/h (3 Bft) 96,23 %
15.01.2018 14:46 -0,9 C 3,3 C 88 % 1018,9 hPa 0,0 l/m 10,3 km/h (2 Bft) NO 38 0 min 0,000 mm 0,0 UV-I 100 W/m -2,6 C -4,7 C 14,5 km/h (3 Bft) 95,12 %
15.01.2018 14:48 -0,9 C 3,3 C 88 % 1018,9 hPa 0,0 l/m 8,4 km/h (2 Bft) NO 54 0 min 0,000 mm 0,0 UV-I 99 W/m -2,6 C -3,0 C 14,5 km/h (3 Bft) 97,87 %
15.01.2018 14:50 -0,9 C 3,3 C 88 % 1018,9 hPa 0,0 l/m 9,1 km/h (2 Bft) NO 53 0 min 0,000 mm 0,0 UV-I 96 W/m -2,6 C -3,6 C 14,5 km/h (3 Bft) 98,21 %
15.01.2018 14:52 -0,9 C 3,3 C 88 % 1018,9 hPa 0,0 l/m 10,4 km/h (2 Bft) O-NO 62 0 min 0,000 mm 0,0 UV-I 91 W/m -2,6 C -4,8 C 16,1 km/h (3 Bft) 97,14 %
15.01.2018 14:54 -0,9 C 3,3 C 88 % 1018,9 hPa 0,0 l/m 10,3 km/h (2 Bft) O-NO 63 0 min 0,000 mm 0,0 UV-I 92 W/m -2,6 C -4,7 C 16,1 km/h (3 Bft) 98,21 %
15.01.2018 14:56 -0,9 C 3,3 C 88 % 1018,9 hPa 0,0 l/m 11,0 km/h (2 Bft) O-NO 64 0 min 0,000 mm 0,0 UV-I 90 W/m -2,6 C -5,3 C 16,1 km/h (3 Bft) 94,74 %
15.01.2018 14:58 -1,0 C 3,3 C 88 % 1018,8 hPa 0,0 l/m 13,2 km/h (3 Bft) O-NO 60 0 min 0,000 mm 0,0 UV-I 93 W/m -2,7 C -7,0 C 17,7 km/h (3 Bft) 98,11 %
15.01.2018 15:00 -1,0 C 3,3 C 88 % 1018,8 hPa 0,0 l/m 12,1 km/h (2 Bft) NO 46 0 min 0,000 mm 0,0 UV-I 93 W/m -2,7 C -6,2 C 17,7 km/h (3 Bft) 97,37 %
15.01.2018 15:02 -1,0 C 3,3 C 88 % 1018,8 hPa 0,0 l/m 10,6 km/h (2 Bft) O-NO 65 0 min 0,051 mm 0,0 UV-I 91 W/m -2,7 C -5,1 C 14,5 km/h (3 Bft) 97,73 %
15.01.2018 15:04 -1,1 C 3,3 C 88 % 1018,8 hPa 0,0 l/m 10,5 km/h (2 Bft) O-NO 59 0 min 0,000 mm 0,0 UV-I 87 W/m -2,8 C -5,1 C 14,5 km/h (3 Bft) 100,00 %
15.01.2018 15:06 -1,1 C 3,3 C 88 % 1018,7 hPa 0,0 l/m 11,8 km/h (2 Bft) O-NO 74 0 min 0,000 mm 0,0 UV-I 83 W/m -2,8 C -6,1 C 17,7 km/h (3 Bft) 100,00 %
15.01.2018 15:08 -1,1 C 3,3 C 88 % 1018,7 hPa 0,0 l/m 8,8 km/h (2 Bft) O-NO 66 0 min 0,000 mm 0,0 UV-I 77 W/m -2,8 C -3,6 C 12,9 km/h (3 Bft) 100,00 %
15.01.2018 15:10 -1,1 C 3,3 C 88 % 1018,6 hPa 0,0 l/m 8,6 km/h (2 Bft) O-NO 57 0 min 0,000 mm 0,0 UV-I 72 W/m -2,8 C -3,4 C 12,9 km/h (3 Bft) 100,00 %
15.01.2018 15:12 -1,1 C 3,3 C 88 % 1018,6 hPa 0,0 l/m 10,7 km/h (2 Bft) O-NO 62 0 min 0,000 mm 0,0 UV-I 70 W/m -2,8 C -5,3 C 14,5 km/h (3 Bft) 95,12 %
15.01.2018 15:14 -1,1 C 3,3 C 88 % 1018,6 hPa 0,0 l/m 10,8 km/h (2 Bft) NO 56 0 min 0,000 mm 0,0 UV-I 69 W/m -2,8 C -5,3 C 14,5 km/h (3 Bft) 96,43 %
15.01.2018 15:16 -1,1 C 3,3 C 88 % 1018,6 hPa 0,0 l/m 8,0 km/h (2 Bft) O-NO 68 0 min 0,000 mm 0,0 UV-I 66 W/m -2,8 C -2,8 C 14,5 km/h (3 Bft) 97,56 %
15.01.2018 15:18 -1,1 C 3,3 C 89 % 1018,5 hPa 0,0 l/m 7,1 km/h (2 Bft) NO 43 0 min 0,000 mm 0,0 UV-I 63 W/m -2,7 C -1,9 C 11,3 km/h (2 Bft) 98,11 %
15.01.2018 15:20 -1,1 C 3,3 C 89 % 1018,6 hPa 0,0 l/m 8,9 km/h (2 Bft) O-NO 65 0 min 0,000 mm 0,0 UV-I 62 W/m -2,7 C -3,7 C 14,5 km/h (3 Bft) 97,73 %
15.01.2018 15:22 -1,1 C 3,3 C 88 % 1018,5 hPa 0,0 l/m 8,1 km/h (2 Bft) O-NO 75 0 min 0,000 mm 0,0 UV-I 62 W/m -2,8 C -2,9 C 12,9 km/h (3 Bft) 95,74 %
15.01.2018 15:24 -1,1 C 3,3 C 89 % 1018,5 hPa 0,0 l/m 8,3 km/h (2 Bft) O-NO 65 0 min 0,000 mm 0,0 UV-I 59 W/m -2,7 C -3,1 C 12,9 km/h (3 Bft) 97,37 %
15.01.2018 15:26 -1,1 C 3,3 C 89 % 1018,5 hPa 0,0 l/m 8,5 km/h (2 Bft) O-NO 61 0 min 0,000 mm 0,0 UV-I 56 W/m -2,7 C -3,3 C 12,9 km/h (3 Bft) 94,34 %
15.01.2018 15:28 -1,1 C 3,3 C 89 % 1018,4 hPa 0,0 l/m 9,5 km/h (2 Bft) O-NO 67 0 min 0,000 mm 0,0 UV-I 54 W/m -2,7 C -4,2 C 12,9 km/h (3 Bft) 95,12 %
15.01.2018 15:30 -1,1 C 3,3 C 89 % 1018,4 hPa 0,0 l/m 10,2 km/h (2 Bft) O-NO 59 0 min 0,000 mm 0,0 UV-I 52 W/m -2,7 C -4,8 C 12,9 km/h (3 Bft) 94,92 %
15.01.2018 15:32 -1,0 C 3,3 C 89 % 1018,4 hPa 0,0 l/m 6,8 km/h (2 Bft) NO 53 0 min 0,000 mm 0,0 UV-I 50 W/m -2,6 C -1,4 C 11,3 km/h (2 Bft) 97,37 %
15.01.2018 15:34 -1,0 C 3,3 C 89 % 1018,4 hPa 0,0 l/m 11,0 km/h (2 Bft) NO 36 0 min 0,000 mm 0,0 UV-I 48 W/m -2,6 C -5,4 C 14,5 km/h (3 Bft) 96,00 %
15.01.2018 15:36 -1,1 C 3,3 C 88 % 1018,4 hPa 0,0 l/m 12,5 km/h (3 Bft) O 79 0 min 0,000 mm 0,0 UV-I 47 W/m -2,8 C -6,6 C 17,7 km/h (3 Bft) 95,83 %
15.01.2018 15:38 -1,1 C 3,3 C 88 % 1018,3 hPa 0,0 l/m 13,1 km/h (3 Bft) O 84 0 min 0,000 mm 0,0 UV-I 46 W/m -2,8 C -7,1 C 16,1 km/h (3 Bft) 97,87 %
15.01.2018 15:40 -1,1 C 3,3 C 88 % 1018,3 hPa 0,0 l/m 11,4 km/h (2 Bft) O-NO 74 0 min 0,000 mm 0,0 UV-I 44 W/m -2,8 C -5,8 C 16,1 km/h (3 Bft) 95,74 %
15.01.2018 15:42 -1,2 C 3,3 C 88 % 1018,4 hPa 0,0 l/m 8,5 km/h (2 Bft) O-NO 62 0 min 0,000 mm 0,0 UV-I 42 W/m -2,9 C -3,4 C 14,5 km/h (3 Bft) 96,30 %
15.01.2018 15:44 -1,1 C 3,3 C 88 % 1018,4 hPa 0,0 l/m 9,8 km/h (2 Bft) O-NO 65 0 min 0,000 mm 0,0 UV-I 44 W/m -2,8 C -4,5 C 14,5 km/h (3 Bft) 94,12 %
15.01.2018 15:46 -1,1 C 3,3 C 88 % 1018,4 hPa 0,0 l/m 8,9 km/h (2 Bft) O-NO 57 0 min 0,000 mm 0,0 UV-I 44 W/m -2,8 C -3,7 C 14,5 km/h (3 Bft) 96,00 %
15.01.2018 15:48 -1,1 C 3,3 C 88 % 1018,3 hPa 0,0 l/m 7,9 km/h (2 Bft) O-NO 67 0 min 0,000 mm 0,0 UV-I 45 W/m -2,8 C -2,7 C 11,3 km/h (2 Bft) 97,14 %
15.01.2018 15:50 -1,1 C 3,3 C 88 % 1018,3 hPa 0,0 l/m 8,2 km/h (2 Bft) NO 46 0 min 0,000 mm 0,0 UV-I 44 W/m -2,8 C -3,0 C 11,3 km/h (2 Bft) 96,00 %
15.01.2018 15:52 -1,1 C 3,3 C 88 % 1018,3 hPa 0,0 l/m 9,2 km/h (2 Bft) O-NO 63 0 min 0,000 mm 0,0 UV-I 46 W/m -2,8 C -4,0 C 14,5 km/h (3 Bft) 95,74 %
15.01.2018 15:54 -1,1 C 3,3 C 88 % 1018,2 hPa 0,0 l/m 9,8 km/h (2 Bft) O-NO 67 2 min 0,000 mm 0,0 UV-I 52 W/m -2,8 C -4,5 C 14,5 km/h (3 Bft) 95,74 %
15.01.2018 15:56 -1,1 C 3,3 C 89 % 1018,1 hPa 0,0 l/m 8,4 km/h (2 Bft) O-NO 73 2 min 0,000 mm 0,0 UV-I 62 W/m -2,7 C -3,2 C 12,9 km/h (3 Bft) 98,00 %
15.01.2018 15:58 -1,1 C 3,3 C 89 % 1018,2 hPa 0,0 l/m 10,4 km/h (2 Bft) O-NO 70 2 min 0,000 mm 0,0 UV-I 58 W/m -2,7 C -5,0 C 14,5 km/h (3 Bft) 97,87 %
15.01.2018 16:00 -1,1 C 3,3 C 88 % 1018,1 hPa 0,0 l/m 11,6 km/h (2 Bft) O-NO 67 2 min 0,000 mm 0,0 UV-I 44 W/m -2,8 C -6,0 C 16,1 km/h (3 Bft) 95,12 %
15.01.2018 16:02 -1,1 C 3,3 C 88 % 1018,1 hPa 0,0 l/m 10,9 km/h (2 Bft) NO 43 2 min 0,025 mm 0,0 UV-I 51 W/m -2,8 C -5,4 C 14,5 km/h (3 Bft) 97,56 %
15.01.2018 16:04 -1,1 C 3,3 C 89 % 1018,1 hPa 0,0 l/m 12,7 km/h (3 Bft) NO 55 2 min 0,000 mm 0,0 UV-I 56 W/m -2,7 C -6,8 C 16,1 km/h (3 Bft) 96,43 %
15.01.2018 16:06 -1,1 C 3,3 C 89 % 1018,0 hPa 0,0 l/m 10,3 km/h (2 Bft) NO 54 2 min 0,000 mm 0,0 UV-I 52 W/m -2,7 C -4,9 C 14,5 km/h (3 Bft) 98,00 %
15.01.2018 16:08 -1,1 C 3,3 C 89 % 1018,0 hPa 0,0 l/m 11,1 km/h (2 Bft) NO 55 2 min 0,000 mm 0,0 UV-I 50 W/m -2,7 C -5,6 C 16,1 km/h (3 Bft) 97,87 %
15.01.2018 16:10 -1,1 C 3,3 C 89 % 1018,0 hPa 0,0 l/m 9,3 km/h (2 Bft) O-NO 61 2 min 0,000 mm 0,0 UV-I 48 W/m -2,7 C -4,0 C 14,5 km/h (3 Bft) 97,87 %
15.01.2018 16:12 -1,1 C 3,3 C 89 % 1018,0 hPa 0,0 l/m 11,6 km/h (2 Bft) O-NO 67 2 min 0,000 mm 0,0 UV-I 44 W/m -2,7 C -6,0 C 16,1 km/h (3 Bft) 97,87 %
15.01.2018 16:14 -1,1 C 3,3 C 88 % 1018,0 hPa 0,0 l/m 10,7 km/h (2 Bft) NO 54 2 min 0,000 mm 0,0 UV-I 40 W/m -2,8 C -5,3 C 17,7 km/h (3 Bft) 94,87 %
15.01.2018 16:16 -1,1 C 3,3 C 88 % 1017,9 hPa 0,0 l/m 13,6 km/h (3 Bft) NO 55 2 min 0,000 mm 0,0 UV-I 39 W/m -2,8 C -7,4 C 19,3 km/h (3 Bft) 94,55 %
15.01.2018 16:18 -1,1 C 3,3 C 88 % 1017,9 hPa 0,0 l/m 11,7 km/h (2 Bft) O-NO 70 2 min 0,000 mm 0,0 UV-I 36 W/m -2,8 C -6,0 C 14,5 km/h (3 Bft) 100,00 %
15.01.2018 16:20 -1,1 C 3,3 C 88 % 1017,9 hPa 0,0 l/m 10,9 km/h (2 Bft) NO 55 2 min 0,000 mm 0,0 UV-I 33 W/m -2,8 C -5,4 C 16,1 km/h (3 Bft) 100,00 %
15.01.2018 16:22 -1,1 C 3,3 C 88 % 1017,9 hPa 0,0 l/m 13,1 km/h (3 Bft) O-NO 66 2 min 0,000 mm 0,0 UV-I 29 W/m -2,8 C -7,1 C 17,7 km/h (3 Bft) 98,11 %
15.01.2018 16:24 -1,2 C 3,3 C 88 % 1017,8 hPa 0,0 l/m 13,0 km/h (3 Bft) NO 55 2 min 0,000 mm 0,0 UV-I 24 W/m -2,9 C -7,1 C 17,7 km/h (3 Bft) 100,00 %
15.01.2018 16:26 -1,2 C 3,3 C 89 % 1017,8 hPa 0,0 l/m 10,7 km/h (2 Bft) O-NO 60 0 min 0,000 mm 0,0 UV-I 14 W/m -2,8 C -5,4 C 14,5 km/h (3 Bft) 100,00 %
15.01.2018 16:28 -1,2 C 3,3 C 89 % 1017,8 hPa 0,0 l/m 8,8 km/h (2 Bft) O 88 0 min 0,000 mm 0,0 UV-I 16 W/m -2,8 C -3,7 C 14,5 km/h (3 Bft) 97,56 %
15.01.2018 16:30 -1,2 C 3,3 C 89 % 1017,7 hPa 0,0 l/m 11,6 km/h (2 Bft) O-NO 67 0 min 0,000 mm 0,0 UV-I 13 W/m -2,8 C -6,1 C 16,1 km/h (3 Bft) 100,00 %
15.01.2018 16:32 -1,3 C 3,3 C 89 % 1017,6 hPa 0,0 l/m 11,6 km/h (2 Bft) O 91 0 min 0,000 mm 0,0 UV-I 12 W/m -2,9 C -6,2 C 17,7 km/h (3 Bft) 100,00 %
15.01.2018 16:34 -1,3 C 3,3 C 89 % 1017,6 hPa 0,0 l/m 9,7 km/h (2 Bft) NO 53 0 min 0,000 mm 0,0 UV-I 11 W/m -2,9 C -4,6 C 17,7 km/h (3 Bft) 97,73 %
15.01.2018 16:36 -1,3 C 3,3 C 89 % 1017,6 hPa 0,0 l/m 9,5 km/h (2 Bft) O-NO 63 0 min 0,000 mm 0,0 UV-I 10 W/m -2,9 C -4,4 C 16,1 km/h (3 Bft) 95,12 %
15.01.2018 16:38 -1,3 C 3,3 C 89 % 1017,6 hPa 0,0 l/m 13,7 km/h (3 Bft) O-NO 60 0 min 0,000 mm 0,0 UV-I 9 W/m -2,9 C -7,7 C 17,7 km/h (3 Bft) 96,23 %
15.01.2018 16:40 -1,3 C 3,3 C 89 % 1017,6 hPa 0,0 l/m 12,1 km/h (2 Bft) O-NO 70 0 min 0,000 mm 0,0 UV-I 7 W/m -2,9 C -6,6 C 16,1 km/h (3 Bft) 96,30 %
15.01.2018 16:42 -1,3 C 3,3 C 89 % 1017,5 hPa 0,0 l/m 8,7 km/h (2 Bft) O-NO 68 0 min 0,000 mm 0,0 UV-I 7 W/m -2,9 C -3,7 C 14,5 km/h (3 Bft) 97,01 %
15.01.2018 16:44 -1,3 C 3,3 C 89 % 1017,5 hPa 0,0 l/m 11,2 km/h (2 Bft) O-NO 61 0 min 0,000 mm 0,0 UV-I 6 W/m -2,9 C -5,9 C 17,7 km/h (3 Bft) 95,83 %
15.01.2018 16:46 -1,3 C 3,3 C 89 % 1017,4 hPa 0,0 l/m 10,9 km/h (2 Bft) O-NO 62 0 min 0,000 mm 0,0 UV-I 5 W/m -2,9 C -5,6 C 17,7 km/h (3 Bft) 95,92 %
15.01.2018 16:48 -1,4 C 3,3 C 89 % 1017,4 hPa 0,0 l/m 9,4 km/h (2 Bft) NO 41 0 min 0,000 mm 0,0 UV-I 5 W/m -3,0 C -4,5 C 16,1 km/h (3 Bft) 97,44 %
15.01.2018 16:50 -1,4 C 3,3 C 89 % 1017,4 hPa 0,0 l/m 10,2 km/h (2 Bft) O-NO 71 0 min 0,000 mm 0,0 UV-I 5 W/m -3,0 C -5,2 C 16,1 km/h (3 Bft) 97,56 %
15.01.2018 16:52 -1,4 C 3,3 C 89 % 1017,4 hPa 0,0 l/m 12,2 km/h (2 Bft) O-NO 69 0 min 0,000 mm 0,0 UV-I 5 W/m -3,0 C -6,8 C 16,1 km/h (3 Bft) 98,21 %
15.01.2018 16:54 -1,4 C 3,3 C 89 % 1017,4 hPa 0,0 l/m 9,4 km/h (2 Bft) O-NO 72 0 min 0,000 mm 0,0 UV-I 0 W/m -3,0 C -4,5 C 12,9 km/h (3 Bft) 95,12 %
15.01.2018 16:56 -1,4 C 3,3 C 89 % 1017,4 hPa 0,0 l/m 8,2 km/h (2 Bft) NO 54 0 min 0,000 mm 0,0 UV-I 0 W/m -3,0 C -3,3 C 12,9 km/h (3 Bft) 96,23 %
15.01.2018 16:58 -1,5 C 3,3 C 90 % 1017,3 hPa 0,0 l/m 8,5 km/h (2 Bft) O-NO 57 0 min 0,000 mm 0,0 UV-I 0 W/m -2,9 C -3,7 C 12,9 km/h (3 Bft) 97,87 %
15.01.2018 17:00 -1,5 C 3,3 C 90 % 1017,2 hPa 0,0 l/m 8,5 km/h (2 Bft) O-NO 59 0 min 0,000 mm 0,0 UV-I 0 W/m -2,9 C -3,7 C 12,9 km/h (3 Bft) 97,37 %
15.01.2018 17:02 -1,5 C 3,3 C 90 % 1017,3 hPa 0,0 l/m 7,9 km/h (2 Bft) NO 54 0 min 0,025 mm 0,0 UV-I 0 W/m -2,9 C -3,1 C 11,3 km/h (2 Bft) 94,92 %
15.01.2018 17:04 -1,5 C 3,3 C 90 % 1017,2 hPa 0,0 l/m 9,9 km/h (2 Bft) O-NO 63 0 min 0,000 mm 0,0 UV-I 0 W/m -2,9 C -5,0 C 14,5 km/h (3 Bft) 95,12 %
15.01.2018 17:06 -1,5 C 3,3 C 90 % 1017,1 hPa 0,0 l/m 8,7 km/h (2 Bft) O-NO 74 0 min 0,000 mm 0,0 UV-I 0 W/m -2,9 C -3,9 C 12,9 km/h (3 Bft) 98,00 %
15.01.2018 17:08 -1,5 C 3,3 C 90 % 1017,1 hPa 0,0 l/m 8,7 km/h (2 Bft) O-NO 59 0 min 0,000 mm 0,0 UV-I 0 W/m -2,9 C -3,9 C 12,9 km/h (3 Bft) 97,56 %
15.01.2018 17:10 -1,6 C 3,3 C 90 % 1017,1 hPa 0,0 l/m 8,1 km/h (2 Bft) O-NO 69 0 min 0,000 mm 0,0 UV-I 0 W/m -3,0 C -3,4 C 12,9 km/h (3 Bft) 100,00 %
15.01.2018 17:12 -1,6 C 3,3 C 90 % 1017,0 hPa 0,0 l/m 7,1 km/h (2 Bft) O-NO 73 0 min 0,000 mm 0,0 UV-I 0 W/m -3,0 C -2,4 C 12,9 km/h (3 Bft) 100,00 %
15.01.2018 17:14 -1,6 C 3,3 C 90 % 1017,0 hPa 0,0 l/m 9,8 km/h (2 Bft) O-NO 65 0 min 0,000 mm 0,0 UV-I 0 W/m -3,0 C -5,0 C 14,5 km/h (3 Bft) 98,00 %
15.01.2018 17:16 -1,6 C 3,3 C 90 % 1017,0 hPa 0,0 l/m 8,3 km/h (2 Bft) O-NO 63 0 min 0,000 mm 0,0 UV-I 0 W/m -3,0 C -3,6 C 12,9 km/h (3 Bft) 100,00 %
15.01.2018 17:18 -1,6 C 3,3 C 90 % 1016,9 hPa 0,0 l/m 9,4 km/h (2 Bft) O-NO 60 0 min 0,000 mm 0,0 UV-I 0 W/m -3,0 C -4,7 C 12,9 km/h (3 Bft) 98,00 %
15.01.2018 17:20 -1,6 C 3,3 C 90 % 1016,8 hPa 0,0 l/m 7,7 km/h (2 Bft) O 84 0 min 0,000 mm 0,0 UV-I 0 W/m -3,0 C -3,0 C 14,5 km/h (3 Bft) 100,00 %
15.01.2018 17:22 -1,6 C 3,3 C 90 % 1016,8 hPa 0,0 l/m 8,0 km/h (2 Bft) O 86 0 min 0,000 mm 0,0 UV-I 0 W/m -3,0 C -3,3 C 11,3 km/h (2 Bft) 100,00 %
15.01.2018 17:24 -1,7 C 3,3 C 91 % 1016,8 hPa 0,0 l/m 7,2 km/h (2 Bft) O 95 0 min 0,000 mm 0,0 UV-I 0 W/m -3,0 C -2,6 C 12,9 km/h (3 Bft) 97,73 %
15.01.2018 17:26 -1,7 C 3,3 C 91 % 1016,7 hPa 0,0 l/m 7,8 km/h (2 Bft) O 82 0 min 0,000 mm 0,0 UV-I 0 W/m -3,0 C -3,2 C 12,9 km/h (3 Bft) 100,00 %
15.01.2018 17:28 -1,8 C 3,3 C 91 % 1016,6 hPa 0,0 l/m 9,5 km/h (2 Bft) O 81 0 min 0,000 mm 0,0 UV-I 0 W/m -3,1 C -5,0 C 14,5 km/h (3 Bft) 100,00 %
15.01.2018 17:30 -1,8 C 3,3 C 91 % 1016,6 hPa 0,0 l/m 8,2 km/h (2 Bft) O 84 0 min 0,000 mm 0,0 UV-I 0 W/m -3,1 C -3,7 C 14,5 km/h (3 Bft) 100,00 %
15.01.2018 17:32 -1,8 C 3,3 C 91 % 1016,5 hPa 0,0 l/m 8,8 km/h (2 Bft) O 92 0 min 0,000 mm 0,0 UV-I 0 W/m -3,1 C -4,3 C 12,9 km/h (3 Bft) 94,00 %
15.01.2018 17:34 -1,8 C 3,3 C 91 % 1016,4 hPa 0,0 l/m 8,0 km/h (2 Bft) O-NO 69 0 min 0,000 mm 0,0 UV-I 0 W/m -3,1 C -3,5 C 12,9 km/h (3 Bft) 100,00 %
15.01.2018 17:36 -1,8 C 3,3 C 91 % 1016,4 hPa 0,0 l/m 12,8 km/h (3 Bft) O 92 0 min 0,000 mm 0,0 UV-I 0 W/m -3,1 C -7,7 C 16,1 km/h (3 Bft) 100,00 %
15.01.2018 17:38 -1,8 C 3,3 C 91 % 1016,3 hPa 0,0 l/m 10,5 km/h (2 Bft) O-NO 57 0 min 0,000 mm 0,0 UV-I 0 W/m -3,1 C -5,9 C 17,7 km/h (3 Bft) 96,23 %
15.01.2018 17:40 -1,8 C 3,3 C 91 % 1016,3 hPa 0,0 l/m 11,5 km/h (2 Bft) O-NO 74 0 min 0,000 mm 0,0 UV-I 0 W/m -3,1 C -6,7 C 16,1 km/h (3 Bft) 100,00 %
15.01.2018 17:42 -1,8 C 3,3 C 91 % 1016,3 hPa 0,0 l/m 8,9 km/h (2 Bft) O-NO 75 0 min 0,000 mm 0,0 UV-I 0 W/m -3,1 C -4,4 C 12,9 km/h (3 Bft) 100,00 %
15.01.2018 17:44 -1,8 C 3,3 C 91 % 1016,2 hPa 0,0 l/m 7,6 km/h (2 Bft) O 88 0 min 0,000 mm 0,0 UV-I 0 W/m -3,1 C -3,1 C 11,3 km/h (2 Bft) 100,00 %
15.01.2018 17:46 -1,8 C 3,3 C 91 % 1016,3 hPa 0,0 l/m 7,6 km/h (2 Bft) O-NO 61 0 min 0,000 mm 0,0 UV-I 0 W/m -3,1 C -3,1 C 12,9 km/h (3 Bft) 98,00 %
15.01.2018 17:48 -1,8 C 3,3 C 91 % 1016,3 hPa 0,0 l/m 7,3 km/h (2 Bft) O-NO 78 0 min 0,000 mm 0,0 UV-I 0 W/m -3,1 C -2,8 C 9,7 km/h (2 Bft) 98,11 %
15.01.2018 17:50 -1,9 C 3,3 C 91 % 1016,2 hPa 0,0 l/m 7,1 km/h (2 Bft) O-NO 72 0 min 0,000 mm 0,0 UV-I 0 W/m -3,2 C -2,7 C 11,3 km/h (2 Bft) 95,45 %
15.01.2018 17:52 -1,9 C 3,3 C 91 % 1016,2 hPa 0,0 l/m 5,6 km/h (1 Bft) O 86 0 min 0,000 mm 0,0 UV-I 0 W/m -3,2 C -1,9 C 8,0 km/h (2 Bft) 93,62 %
15.01.2018 17:54 -1,9 C 3,3 C 91 % 1016,2 hPa 0,0 l/m 5,8 km/h (2 Bft) O-NO 68 0 min 0,000 mm 0,0 UV-I 0 W/m -3,2 C -1,9 C 8,0 km/h (2 Bft) 100,00 %
15.01.2018 17:56 -1,9 C 3,3 C 92 % 1016,2 hPa 0,0 l/m 6,9 km/h (2 Bft) O-NO 69 0 min 0,000 mm 0,0 UV-I 0 W/m -3,0 C -2,4 C 12,9 km/h (3 Bft) 97,87 %
15.01.2018 17:58 -1,9 C 3,3 C 92 % 1016,1 hPa 0,0 l/m 6,3 km/h (2 Bft) NO 48 0 min 0,000 mm 0,0 UV-I 0 W/m -3,0 C -1,9 C 8,0 km/h (2 Bft) 98,00 %
15.01.2018 18:00 -1,9 C 3,3 C 92 % 1016,1 hPa 0,0 l/m 5,3 km/h (1 Bft) O-NO 67 0 min 0,000 mm 0,0 UV-I 0 W/m -3,0 C -1,9 C 9,7 km/h (2 Bft) 100,00 %
15.01.2018 18:02 -1,9 C 3,3 C 91 % 1016,0 hPa 0,0 l/m 5,7 km/h (1 Bft) O-NO 73 0 min 0,000 mm 0,0 UV-I 0 W/m -3,2 C -1,9 C 8,0 km/h (2 Bft) 98,31 %
15.01.2018 18:04 -1,9 C 3,3 C 91 % 1016,0 hPa 0,0 l/m 5,8 km/h (2 Bft) O-NO 61 0 min 0,000 mm 0,0 UV-I 0 W/m -3,2 C -1,9 C 8,0 km/h (2 Bft) 100,00 %
15.01.2018 18:06 -1,9 C 3,3 C 92 % 1015,9 hPa 0,0 l/m 3,4 km/h (1 Bft) O-NO 61 0 min 0,000 mm 0,0 UV-I 0 W/m -3,0 C -1,9 C 4,8 km/h (1 Bft) 98,00 %
15.01.2018 18:08 -1,9 C 3,3 C 92 % 1015,9 hPa 0,0 l/m 4,2 km/h (1 Bft) O-NO 61 0 min 0,000 mm 0,0 UV-I 0 W/m -3,0 C -1,9 C 6,4 km/h (2 Bft) 100,00 %
15.01.2018 18:10 -1,9 C 3,3 C 92 % 1015,8 hPa 0,0 l/m 4,7 km/h (1 Bft) O-NO 62 0 min 0,000 mm 0,0 UV-I 0 W/m -3,0 C -1,9 C 8,0 km/h (2 Bft) 100,00 %
15.01.2018 18:12 -1,9 C 3,3 C 92 % 1015,8 hPa 0,0 l/m 6,0 km/h (2 Bft) O-NO 61 0 min 0,000 mm 0,0 UV-I 0 W/m -3,0 C -1,9 C 8,0 km/h (2 Bft) 100,00 %
15.01.2018 18:14 -1,9 C 3,3 C 92 % 1015,8 hPa 0,0 l/m 6,1 km/h (2 Bft) O-NO 57 0 min 0,000 mm 0,0 UV-I 0 W/m -3,0 C -1,9 C 8,0 km/h (2 Bft) 100,00 %
15.01.2018 18:16 -1,9 C 3,3 C 92 % 1015,7 hPa 0,0 l/m 6,1 km/h (2 Bft) O-NO 66 0 min 0,000 mm 0,0 UV-I 0 W/m -3,0 C -1,9 C 8,0 km/h (2 Bft) 98,57 %
15.01.2018 18:18 -1,9 C 3,3 C 92 % 1015,6 hPa 0,0 l/m 6,7 km/h (2 Bft) NO 51 0 min 0,000 mm 0,0 UV-I 0 W/m -3,0 C -2,2 C 9,7 km/h (2 Bft) 100,00 %
15.01.2018 18:20 -2,0 C 3,3 C 92 % 1015,6 hPa 0,0 l/m 7,7 km/h (2 Bft) NO 47 0 min 0,000 mm 0,0 UV-I 0 W/m -3,1 C -3,4 C 9,7 km/h (2 Bft) 100,00 %
15.01.2018 18:22 -2,0 C 3,3 C 92 % 1015,5 hPa 0,0 l/m 8,2 km/h (2 Bft) NO 44 0 min 0,000 mm 0,0 UV-I 0 W/m -3,1 C -4,0 C 12,9 km/h (3 Bft) 97,78 %
15.01.2018 18:24 -2,0 C 3,3 C 92 % 1015,5 hPa 0,0 l/m 7,6 km/h (2 Bft) NO 53 0 min 0,000 mm 0,0 UV-I 0 W/m -3,1 C -3,3 C 9,7 km/h (2 Bft) 100,00 %
15.01.2018 18:26 -2,0 C 3,3 C 92 % 1015,4 hPa 0,0 l/m 6,4 km/h (2 Bft) O-NO 63 0 min 0,000 mm 0,0 UV-I 0 W/m -3,1 C -2,0 C 12,9 km/h (3 Bft) 97,56 %
15.01.2018 18:28 -2,1 C 3,3 C 92 % 1015,4 hPa 0,0 l/m 9,8 km/h (2 Bft) O-NO 59 0 min 0,000 mm 0,0 UV-I 0 W/m -3,2 C -5,6 C 12,9 km/h (3 Bft) 98,00 %
15.01.2018 18:30 -2,1 C 3,3 C 92 % 1015,3 hPa 0,0 l/m 10,0 km/h (2 Bft) O-NO 66 0 min 0,000 mm 0,0 UV-I 0 W/m -3,2 C -5,8 C 16,1 km/h (3 Bft) 100,00 %
15.01.2018 18:32 -2,1 C 3,3 C 92 % 1015,2 hPa 0,0 l/m 9,6 km/h (2 Bft) NO 53 0 min 0,000 mm 0,0 UV-I 0 W/m -3,2 C -5,4 C 14,5 km/h (3 Bft) 97,56 %
15.01.2018 18:34 -2,1 C 3,3 C 92 % 1015,2 hPa 0,0 l/m 7,5 km/h (2 Bft) O-NO 60 0 min 0,000 mm 0,0 UV-I 0 W/m -3,2 C -3,3 C 11,3 km/h (2 Bft) 100,00 %
15.01.2018 18:36 -2,1 C 3,3 C 92 % 1015,1 hPa 0,0 l/m 11,4 km/h (2 Bft) NO 53 0 min 0,000 mm 0,0 UV-I 0 W/m -3,2 C -6,9 C 16,1 km/h (3 Bft) 100,00 %
15.01.2018 18:38 -2,2 C 3,3 C 93 % 1015,2 hPa 0,0 l/m 10,6 km/h (2 Bft) O-NO 59 0 min 0,000 mm 0,0 UV-I 0 W/m -3,2 C -6,4 C 12,9 km/h (3 Bft) 100,00 %
15.01.2018 18:40 -2,2 C 3,3 C 92 % 1015,2 hPa 0,0 l/m 10,9 km/h (2 Bft) NO 46 0 min 0,000 mm 0,0 UV-I 0 W/m -3,3 C -6,7 C 16,1 km/h (3 Bft) 95,74 %
15.01.2018 18:42 -2,2 C 3,3 C 92 % 1015,2 hPa 0,0 l/m 8,8 km/h (2 Bft) NO 51 0 min 0,000 mm 0,0 UV-I 0 W/m -3,3 C -4,8 C 14,5 km/h (3 Bft) 97,37 %
15.01.2018 18:44 -2,2 C 3,3 C 92 % 1015,1 hPa 0,0 l/m 7,9 km/h (2 Bft) NO 55 0 min 0,000 mm 0,0 UV-I 0 W/m -3,3 C -3,9 C 12,9 km/h (3 Bft) 96,43 %
15.01.2018 18:46 -2,2 C 3,3 C 92 % 1015,0 hPa 0,0 l/m 7,9 km/h (2 Bft) NO 55 0 min 0,000 mm 0,0 UV-I 0 W/m -3,3 C -3,9 C 16,1 km/h (3 Bft) 97,14 %
15.01.2018 18:48 -2,2 C 3,3 C 92 % 1015,0 hPa 0,0 l/m 7,4 km/h (2 Bft) O-NO 64 0 min 0,000 mm 0,0 UV-I 0 W/m -3,3 C -3,3 C 11,3 km/h (2 Bft) 96,43 %
15.01.2018 18:50 -2,2 C 3,3 C 92 % 1015,0 hPa 0,0 l/m 7,6 km/h (2 Bft) NO 44 0 min 0,000 mm 0,0 UV-I 0 W/m -3,3 C -3,5 C 12,9 km/h (3 Bft) 96,00 %
15.01.2018 18:52 -2,2 C 3,3 C 92 % 1015,0 hPa 0,0 l/m 6,9 km/h (2 Bft) O-NO 58 0 min 0,000 mm 0,0 UV-I 0 W/m -3,3 C -2,7 C 9,7 km/h (2 Bft) 97,73 %
15.01.2018 18:54 -2,2 C 3,3 C 93 % 1015,0 hPa 0,0 l/m 9,0 km/h (2 Bft) O-NO 74 0 min 0,000 mm 0,0 UV-I 0 W/m -3,2 C -5,0 C 12,9 km/h (3 Bft) 98,00 %
15.01.2018 18:56 -2,2 C 3,3 C 93 % 1015,0 hPa 0,0 l/m 8,4 km/h (2 Bft) O-NO 62 0 min 0,000 mm 0,0 UV-I 0 W/m -3,2 C -4,4 C 11,3 km/h (2 Bft) 97,44 %
15.01.2018 18:58 -2,2 C 3,3 C 93 % 1014,9 hPa 0,0 l/m 8,5 km/h (2 Bft) O-NO 71 0 min 0,000 mm 0,0 UV-I 0 W/m -3,2 C -4,5 C 12,9 km/h (3 Bft) 98,18 %
15.01.2018 19:00 -2,2 C 3,3 C 93 % 1014,9 hPa 0,0 l/m 9,2 km/h (2 Bft) O-NO 65 0 min 0,000 mm 0,0 UV-I 0 W/m -3,2 C -5,1 C 16,1 km/h (3 Bft) 97,44 %
15.01.2018 19:02 -2,2 C 3,3 C 92 % 1014,9 hPa 0,0 l/m 9,9 km/h (2 Bft) O-NO 62 0 min 0,000 mm 0,0 UV-I 0 W/m -3,3 C -5,8 C 14,5 km/h (3 Bft) 92,45 %
15.01.2018 19:04 -2,1 C 3,3 C 93 % 1014,8 hPa 0,0 l/m 8,6 km/h (2 Bft) NO 55 0 min 0,000 mm 0,0 UV-I 0 W/m -3,1 C -4,5 C 12,9 km/h (3 Bft) 97,37 %
15.01.2018 19:06 -2,2 C 3,3 C 93 % 1014,8 hPa 0,0 l/m 10,0 km/h (2 Bft) O-NO 77 0 min 0,000 mm 0,0 UV-I 0 W/m -3,2 C -5,9 C 14,5 km/h (3 Bft) 92,45 %
15.01.2018 19:08 -2,2 C 3,3 C 92 % 1014,7 hPa 0,0 l/m 9,2 km/h (2 Bft) NO 54 0 min 0,000 mm 0,0 UV-I 0 W/m -3,3 C -5,1 C 14,5 km/h (3 Bft) 94,34 %
15.01.2018 19:10 -2,2 C 3,3 C 92 % 1014,7 hPa 0,0 l/m 9,0 km/h (2 Bft) NO 53 0 min 0,000 mm 0,0 UV-I 0 W/m -3,3 C -5,0 C 12,9 km/h (3 Bft) 92,11 %
15.01.2018 19:12 -2,2 C 3,3 C 92 % 1014,6 hPa 0,0 l/m 8,2 km/h (2 Bft) NO 51 0 min 0,000 mm 0,0 UV-I 0 W/m -3,3 C -4,2 C 12,9 km/h (3 Bft) 95,12 %
15.01.2018 19:14 -2,2 C 3,3 C 92 % 1014,6 hPa 0,0 l/m 9,1 km/h (2 Bft) O-NO 78 0 min 0,000 mm 0,0 UV-I 0 W/m -3,3 C -5,1 C 14,5 km/h (3 Bft) 98,00 %
15.01.2018 19:16 -2,2 C 3,3 C 92 % 1014,5 hPa 0,0 l/m 8,6 km/h (2 Bft) NO 34 0 min 0,000 mm 0,0 UV-I 0 W/m -3,3 C -4,6 C 14,5 km/h (3 Bft) 98,11 %
15.01.2018 19:18 -2,2 C 3,3 C 92 % 1014,4 hPa 0,0 l/m 8,3 km/h (2 Bft) NO 48 0 min 0,000 mm 0,0 UV-I 0 W/m -3,3 C -4,3 C 12,9 km/h (3 Bft) 97,56 %
15.01.2018 19:20 -2,2 C 3,3 C 92 % 1014,4 hPa 0,0 l/m 8,4 km/h (2 Bft) O-NO 63 0 min 0,000 mm 0,0 UV-I 0 W/m -3,3 C -4,4 C 14,5 km/h (3 Bft) 94,00 %
15.01.2018 19:22 -2,2 C 3,3 C 92 % 1014,4 hPa 0,0 l/m 9,9 km/h (2 Bft) O-NO 74 0 min 0,000 mm 0,0 UV-I 0 W/m -3,3 C -5,8 C 14,5 km/h (3 Bft) 98,00 %
15.01.2018 19:24 -2,2 C 3,3 C 92 % 1014,5 hPa 0,0 l/m 9,8 km/h (2 Bft) O-NO 63 0 min 0,000 mm 0,0 UV-I 0 W/m -3,3 C -5,7 C 16,1 km/h (3 Bft) 94,00 %
15.01.2018 19:26 -2,2 C 3,3 C 92 % 1014,4 hPa 0,0 l/m 8,2 km/h (2 Bft) O-NO 63 0 min 0,000 mm 0,0 UV-I 0 W/m -3,3 C -4,2 C 16,1 km/h (3 Bft) 87,80 %
15.01.2018 19:28 -2,2 C 3,3 C 92 % 1014,4 hPa 0,0 l/m 9,3 km/h (2 Bft) O-NO 59 0 min 0,000 mm 0,0 UV-I 0 W/m -3,3 C -5,2 C 12,9 km/h (3 Bft) 98,00 %
15.01.2018 19:30 -2,2 C 3,3 C 92 % 1014,3 hPa 0,0 l/m 10,3 km/h (2 Bft) O-NO 65 0 min 0,000 mm 0,0 UV-I 0 W/m -3,3 C -6,1 C 14,5 km/h (3 Bft) 98,00 %
15.01.2018 19:32 -2,2 C 3,3 C 93 % 1014,2 hPa 0,0 l/m 7,8 km/h (2 Bft) O-NO 63 0 min 0,000 mm 0,0 UV-I 0 W/m -3,2 C -3,7 C 11,3 km/h (2 Bft) 97,56 %
15.01.2018 19:34 -2,2 C 3,3 C 93 % 1014,2 hPa 0,0 l/m 8,6 km/h (2 Bft) O-NO 67 0 min 0,000 mm 0,0 UV-I 0 W/m -3,2 C -4,6 C 12,9 km/h (3 Bft) 97,62 %
15.01.2018 19:36 -2,3 C 3,3 C 93 % 1014,2 hPa 0,0 l/m 7,7 km/h (2 Bft) O-NO 57 0 min 0,000 mm 0,0 UV-I 0 W/m -3,3 C -3,7 C 14,5 km/h (3 Bft) 98,00 %
15.01.2018 19:38 -2,3 C 3,3 C 93 % 1014,1 hPa 0,0 l/m 7,6 km/h (2 Bft) O 82 0 min 0,000 mm 0,0 UV-I 0 W/m -3,3 C -3,6 C 9,7 km/h (2 Bft) 98,00 %
15.01.2018 19:40 -2,3 C 3,3 C 93 % 1014,0 hPa 0,0 l/m 9,1 km/h (2 Bft) O-NO 58 0 min 0,000 mm 0,0 UV-I 0 W/m -3,3 C -5,2 C 12,9 km/h (3 Bft) 92,11 %
15.01.2018 19:42 -2,3 C 3,3 C 93 % 1014,0 hPa 0,0 l/m 8,2 km/h (2 Bft) O-NO 68 0 min 0,000 mm 0,0 UV-I 0 W/m -3,3 C -4,3 C 11,3 km/h (2 Bft) 94,34 %
15.01.2018 19:44 -2,3 C 3,3 C 93 % 1014,0 hPa 0,0 l/m 7,6 km/h (2 Bft) O-NO 57 0 min 0,000 mm 0,0 UV-I 0 W/m -3,3 C -3,6 C 12,9 km/h (3 Bft) 98,11 %
15.01.2018 19:46 -2,3 C 3,3 C 93 % 1014,0 hPa 0,0 l/m 6,9 km/h (2 Bft) O-NO 63 0 min 0,000 mm 0,0 UV-I 0 W/m -3,3 C -2,8 C 12,9 km/h (3 Bft) 97,37 %
15.01.2018 19:48 -2,3 C 3,3 C 93 % 1013,9 hPa 0,0 l/m 7,1 km/h (2 Bft) NO 49 0 min 0,000 mm 0,0 UV-I 0 W/m -3,3 C -3,1 C 11,3 km/h (2 Bft) 96,43 %
15.01.2018 19:50 -2,3 C 3,3 C 93 % 1013,8 hPa 0,0 l/m 8,6 km/h (2 Bft) O-NO 62 0 min 0,000 mm 0,0 UV-I 0 W/m -3,3 C -4,7 C 14,5 km/h (3 Bft) 100,00 %
15.01.2018 19:52 -2,3 C 3,3 C 93 % 1013,7 hPa 0,0 l/m 13,7 km/h (3 Bft) NO 45 0 min 0,000 mm 0,0 UV-I 0 W/m -3,3 C -8,9 C 17,7 km/h (3 Bft) 96,61 %
15.01.2018 19:54 -2,3 C 3,3 C 93 % 1013,7 hPa 0,0 l/m 11,2 km/h (2 Bft) O-NO 72 0 min 0,000 mm 0,0 UV-I 0 W/m -3,3 C -7,0 C 16,1 km/h (3 Bft) 97,73 %
15.01.2018 19:56 -2,3 C 3,3 C 93 % 1013,7 hPa 0,0 l/m 7,6 km/h (2 Bft) NO 53 0 min 0,000 mm 0,0 UV-I 0 W/m -3,3 C -3,6 C 11,3 km/h (2 Bft) 95,74 %
15.01.2018 19:58 -2,3 C 3,3 C 93 % 1013,6 hPa 0,0 l/m 9,1 km/h (2 Bft) NO 53 0 min 0,000 mm 0,0 UV-I 0 W/m -3,3 C -5,2 C 12,9 km/h (3 Bft) 97,56 %
15.01.2018 20:00 -2,3 C 3,3 C 93 % 1013,6 hPa 0,0 l/m 9,2 km/h (2 Bft) O-NO 61 0 min 0,000 mm 0,0 UV-I 0 W/m -3,3 C -5,3 C 12,9 km/h (3 Bft) 96,23 %
15.01.2018 20:02 -2,3 C 3,3 C 93 % 1013,7 hPa 0,0 l/m 7,6 km/h (2 Bft) O-NO 65 0 min 0,000 mm 0,0 UV-I 0 W/m -3,3 C -3,6 C 11,3 km/h (2 Bft) 97,56 %
15.01.2018 20:04 -2,3 C 3,3 C 93 % 1013,6 hPa 0,0 l/m 7,6 km/h (2 Bft) NO 55 0 min 0,000 mm 0,0 UV-I 0 W/m -3,3 C -3,6 C 16,1 km/h (3 Bft) 98,00 %
15.01.2018 20:06 -2,3 C 3,3 C 93 % 1013,6 hPa 0,0 l/m 10,5 km/h (2 Bft) NO 53 0 min 0,000 mm 0,0 UV-I 0 W/m -3,3 C -6,4 C 16,1 km/h (3 Bft) 97,62 %
15.01.2018 20:08 -2,3 C 3,3 C 93 % 1013,5 hPa 0,0 l/m 9,5 km/h (2 Bft) NO 48 0 min 0,000 mm 0,0 UV-I 0 W/m -3,3 C -5,5 C 14,5 km/h (3 Bft) 98,00 %
15.01.2018 20:10 -2,3 C 3,3 C 93 % 1013,4 hPa 0,0 l/m 11,6 km/h (2 Bft) O-NO 61 0 min 0,000 mm 0,0 UV-I 0 W/m -3,3 C -7,3 C 16,1 km/h (3 Bft) 100,00 %
15.01.2018 20:12 -2,3 C 3,3 C 93 % 1013,4 hPa 0,0 l/m 10,6 km/h (2 Bft) O-NO 57 0 min 0,000 mm 0,0 UV-I 0 W/m -3,3 C -6,5 C 14,5 km/h (3 Bft) 100,00 %
15.01.2018 20:14 -2,3 C 3,3 C 93 % 1013,4 hPa 0,0 l/m 10,9 km/h (2 Bft) O-NO 63 0 min 0,000 mm 0,0 UV-I 0 W/m -3,3 C -6,8 C 16,1 km/h (3 Bft) 100,00 %
15.01.2018 20:16 -2,3 C 3,3 C 93 % 1013,3 hPa 0,0 l/m 11,1 km/h (2 Bft) NO 49 0 min 0,000 mm 0,0 UV-I 0 W/m -3,3 C -6,9 C 17,7 km/h (3 Bft) 96,00 %
15.01.2018 20:18 -2,3 C 3,3 C 93 % 1013,3 hPa 0,0 l/m 10,0 km/h (2 Bft) NO 40 0 min 0,000 mm 0,0 UV-I 0 W/m -3,3 C -6,0 C 16,1 km/h (3 Bft) 100,00 %
15.01.2018 20:20 -2,3 C 3,3 C 93 % 1013,3 hPa 0,0 l/m 11,8 km/h (2 Bft) NO 53 0 min 0,000 mm 0,0 UV-I 0 W/m -3,3 C -7,5 C 17,7 km/h (3 Bft) 100,00 %
15.01.2018 20:22 -2,3 C 3,3 C 93 % 1013,2 hPa 0,0 l/m 11,0 km/h (2 Bft) O-NO 59 0 min 0,000 mm 0,0 UV-I 0 W/m -3,3 C -6,8 C 16,1 km/h (3 Bft) 100,00 %
15.01.2018 20:24 -2,3 C 3,3 C 93 % 1013,2 hPa 0,0 l/m 10,9 km/h (2 Bft) NO 54 0 min 0,000 mm 0,0 UV-I 0 W/m -3,3 C -6,8 C 16,1 km/h (3 Bft) 100,00 %
15.01.2018 20:26 -2,3 C 3,3 C 93 % 1013,1 hPa 0,0 l/m 9,9 km/h (2 Bft) O-NO 59 0 min 0,000 mm 0,0 UV-I 0 W/m -3,3 C -5,9 C 16,1 km/h (3 Bft) 100,00 %
15.01.2018 20:28 -2,3 C 3,3 C 93 % 1013,1 hPa 0,0 l/m 11,5 km/h (2 Bft) NO 43 0 min 0,000 mm 0,0 UV-I 0 W/m -3,3 C -7,3 C 17,7 km/h (3 Bft) 100,00 %
15.01.2018 20:30 -2,3 C 3,3 C 93 % 1013,1 hPa 0,0 l/m 8,1 km/h (2 Bft) O-NO 63 0 min 0,000 mm 0,0 UV-I 0 W/m -3,3 C -4,2 C 14,5 km/h (3 Bft) 98,28 %
15.01.2018 20:32 -2,3 C 3,3 C 93 % 1013,2 hPa 0,0 l/m 5,3 km/h (1 Bft) NO 34 0 min 0,000 mm 0,0 UV-I 0 W/m -3,3 C -2,3 C 8,0 km/h (2 Bft) 97,44 %
15.01.2018 20:34 -2,3 C 3,3 C 93 % 1013,2 hPa 0,0 l/m 6,0 km/h (2 Bft) NO 42 0 min 0,000 mm 0,0 UV-I 0 W/m -3,3 C -2,3 C 8,0 km/h (2 Bft) 97,87 %
15.01.2018 20:36 -2,3 C 3,3 C 93 % 1013,2 hPa 0,0 l/m 5,1 km/h (1 Bft) NO 52 0 min 0,000 mm 0,0 UV-I 0 W/m -3,3 C -2,3 C 6,4 km/h (2 Bft) 97,56 %
15.01.2018 20:38 -2,3 C 3,3 C 93 % 1013,1 hPa 0,0 l/m 6,3 km/h (2 Bft) O-NO 62 0 min 0,000 mm 0,0 UV-I 0 W/m -3,3 C -2,3 C 9,7 km/h (2 Bft) 100,00 %
15.01.2018 20:40 -2,3 C 3,3 C 93 % 1013,1 hPa 0,0 l/m 6,6 km/h (2 Bft) N-NO 26 0 min 0,000 mm 0,0 UV-I 0 W/m -3,3 C -2,5 C 11,3 km/h (2 Bft) 100,00 %
15.01.2018 20:42 -2,3 C 3,3 C 93 % 1013,2 hPa 0,0 l/m 8,3 km/h (2 Bft) O-NO 71 0 min 0,000 mm 0,0 UV-I 0 W/m -3,3 C -4,4 C 9,7 km/h (2 Bft) 100,00 %
15.01.2018 20:44 -2,3 C 3,3 C 93 % 1013,1 hPa 0,0 l/m 7,3 km/h (2 Bft) O-NO 71 0 min 0,000 mm 0,0 UV-I 0 W/m -3,3 C -3,3 C 11,3 km/h (2 Bft) 98,00 %
15.01.2018 20:46 -2,3 C 3,3 C 93 % 1013,1 hPa 0,0 l/m 9,5 km/h (2 Bft) O-NO 63 0 min 0,000 mm 0,0 UV-I 0 W/m -3,3 C -5,5 C 12,9 km/h (3 Bft) 97,37 %
15.01.2018 20:48 -2,3 C 3,3 C 93 % 1013,0 hPa 0,0 l/m 10,5 km/h (2 Bft) O-NO 58 0 min 0,000 mm 0,0 UV-I 0 W/m -3,3 C -6,4 C 14,5 km/h (3 Bft) 96,00 %
15.01.2018 20:50 -2,3 C 3,3 C 93 % 1013,0 hPa 0,0 l/m 7,3 km/h (2 Bft) O-NO 75 0 min 0,000 mm 0,0 UV-I 0 W/m -3,3 C -3,3 C 12,9 km/h (3 Bft) 96,00 %
15.01.2018 20:52 -2,3 C 3,3 C 93 % 1012,9 hPa 0,0 l/m 9,9 km/h (2 Bft) O-NO 63 0 min 0,000 mm 0,0 UV-I 0 W/m -3,3 C -5,9 C 14,5 km/h (3 Bft) 97,56 %
15.01.2018 20:54 -2,3 C 3,3 C 93 % 1012,9 hPa 0,0 l/m 8,7 km/h (2 Bft) O 98 0 min 0,000 mm 0,0 UV-I 0 W/m -3,3 C -4,8 C 12,9 km/h (3 Bft) 98,11 %
15.01.2018 20:56 -2,3 C 3,3 C 93 % 1012,8 hPa 0,0 l/m 6,9 km/h (2 Bft) NO 52 0 min 0,000 mm 0,0 UV-I 0 W/m -3,3 C -2,8 C 9,7 km/h (2 Bft) 97,56 %
15.01.2018 20:58 -2,3 C 3,3 C 93 % 1012,8 hPa 0,0 l/m 8,4 km/h (2 Bft) O-NO 69 0 min 0,000 mm 0,0 UV-I 0 W/m -3,3 C -4,5 C 12,9 km/h (3 Bft) 97,73 %
15.01.2018 21:00 -2,3 C 3,3 C 93 % 1012,8 hPa 0,0 l/m 7,9 km/h (2 Bft) O-NO 60 0 min 0,000 mm 0,0 UV-I 0 W/m -3,3 C -4,0 C 11,3 km/h (2 Bft) 97,56 %
15.01.2018 21:02 -2,3 C 3,3 C 93 % 1012,8 hPa 0,0 l/m 10,1 km/h (2 Bft) N-NO 22 0 min 0,000 mm 0,0 UV-I 0 W/m -3,3 C -6,1 C 16,1 km/h (3 Bft) 96,23 %
15.01.2018 21:04 -2,3 C 3,3 C 93 % 1012,8 hPa 0,0 l/m 7,6 km/h (2 Bft) O-NO 58 0 min 0,000 mm 0,0 UV-I 0 W/m -3,3 C -3,6 C 14,5 km/h (3 Bft) 96,30 %
15.01.2018 21:06 -2,3 C 3,3 C 93 % 1012,8 hPa 0,0 l/m 7,9 km/h (2 Bft) O-NO 61 0 min 0,000 mm 0,0 UV-I 0 W/m -3,3 C -4,0 C 12,9 km/h (3 Bft) 97,26 %
15.01.2018 21:08 -2,3 C 3,3 C 93 % 1012,7 hPa 0,0 l/m 8,1 km/h (2 Bft) O-NO 69 0 min 0,000 mm 0,0 UV-I 0 W/m -3,3 C -4,2 C 12,9 km/h (3 Bft) 94,00 %
15.01.2018 21:10 -2,3 C 3,3 C 93 % 1012,7 hPa 0,0 l/m 9,9 km/h (2 Bft) O-NO 63 0 min 0,000 mm 0,0 UV-I 0 W/m -3,3 C -5,9 C 14,5 km/h (3 Bft) 97,87 %
15.01.2018 21:12 -2,3 C 3,3 C 93 % 1012,6 hPa 0,0 l/m 10,1 km/h (2 Bft) O-NO 65 0 min 0,000 mm 0,0 UV-I 0 W/m -3,3 C -6,1 C 16,1 km/h (3 Bft) 97,44 %
15.01.2018 21:14 -2,4 C 3,3 C 93 % 1012,6 hPa 0,0 l/m 8,6 km/h (2 Bft) O-NO 74 0 min 0,000 mm 0,0 UV-I 0 W/m -3,4 C -4,8 C 12,9 km/h (3 Bft) 96,00 %
15.01.2018 21:16 -2,4 C 3,3 C 93 % 1012,5 hPa 0,0 l/m 10,2 km/h (2 Bft) NO 47 0 min 0,000 mm 0,0 UV-I 0 W/m -3,4 C -6,3 C 14,5 km/h (3 Bft) 98,11 %
15.01.2018 21:18 -2,4 C 3,3 C 93 % 1012,5 hPa 0,0 l/m 7,9 km/h (2 Bft) O-NO 60 0 min 0,000 mm 0,0 UV-I 0 W/m -3,4 C -4,1 C 11,3 km/h (2 Bft) 97,73 %
15.01.2018 21:20 -2,4 C 3,3 C 93 % 1012,4 hPa 0,0 l/m 8,8 km/h (2 Bft) NO 55 0 min 0,000 mm 0,0 UV-I 0 W/m -3,4 C -5,0 C 16,1 km/h (3 Bft) 100,00 %
15.01.2018 21:22 -2,4 C 3,3 C 93 % 1012,3 hPa 0,0 l/m 9,7 km/h (2 Bft) NO 56 0 min 0,000 mm 0,0 UV-I 0 W/m -3,4 C -5,8 C 16,1 km/h (3 Bft) 98,11 %
15.01.2018 21:24 -2,4 C 3,3 C 93 % 1012,3 hPa 0,0 l/m 9,5 km/h (2 Bft) O-NO 57 0 min 0,000 mm 0,0 UV-I 0 W/m -3,4 C -5,6 C 12,9 km/h (3 Bft) 97,56 %
15.01.2018 21:26 -2,4 C 3,3 C 93 % 1012,3 hPa 0,0 l/m 8,8 km/h (2 Bft) NO 46 0 min 0,000 mm 0,0 UV-I 0 W/m -3,4 C -5,0 C 14,5 km/h (3 Bft) 100,00 %
15.01.2018 21:28 -2,4 C 3,3 C 93 % 1012,4 hPa 0,0 l/m 8,0 km/h (2 Bft) NO 55 0 min 0,000 mm 0,0 UV-I 0 W/m -3,4 C -4,2 C 12,9 km/h (3 Bft) 97,67 %
15.01.2018 21:30 -2,4 C 3,3 C 93 % 1012,4 hPa 0,0 l/m 8,3 km/h (2 Bft) O-NO 63 0 min 0,000 mm 0,0 UV-I 0 W/m -3,4 C -4,5 C 12,9 km/h (3 Bft) 96,23 %
15.01.2018 21:32 -2,4 C 3,3 C 93 % 1012,4 hPa 0,0 l/m 7,2 km/h (2 Bft) O-NO 69 0 min 0,000 mm 0,0 UV-I 0 W/m -3,4 C -3,3 C 9,7 km/h (2 Bft) 100,00 %
15.01.2018 21:34 -2,4 C 3,3 C 93 % 1012,3 hPa 0,0 l/m 10,7 km/h (2 Bft) NO 48 0 min 0,000 mm 0,0 UV-I 0 W/m -3,4 C -6,7 C 14,5 km/h (3 Bft) 100,00 %
15.01.2018 21:36 -2,4 C 3,3 C 93 % 1012,3 hPa 0,0 l/m 9,5 km/h (2 Bft) NO 52 0 min 0,000 mm 0,0 UV-I 0 W/m -3,4 C -5,6 C 14,5 km/h (3 Bft) 100,00 %
15.01.2018 21:38 -2,4 C 3,3 C 93 % 1012,2 hPa 0,0 l/m 8,5 km/h (2 Bft) NO 53 0 min 0,000 mm 0,0 UV-I 0 W/m -3,4 C -4,7 C 14,5 km/h (3 Bft) 98,11 %
15.01.2018 21:40 -2,4 C 3,3 C 93 % 1012,2 hPa 0,0 l/m 7,9 km/h (2 Bft) O-NO 58 0 min 0,000 mm 0,0 UV-I 0 W/m -3,4 C -4,1 C 11,3 km/h (2 Bft) 100,00 %
15.01.2018 21:42 -2,4 C 3,3 C 93 % 1012,1 hPa 0,0 l/m 8,8 km/h (2 Bft) O-NO 71 0 min 0,000 mm 0,0 UV-I 0 W/m -3,4 C -5,0 C 12,9 km/h (3 Bft) 100,00 %
15.01.2018 21:44 -2,4 C 3,3 C 93 % 1012,1 hPa 0,0 l/m 9,5 km/h (2 Bft) O-NO 57 0 min 0,000 mm 0,0 UV-I 0 W/m -3,4 C -5,6 C 12,9 km/h (3 Bft) 94,44 %
15.01.2018 21:46 -2,4 C 3,3 C 93 % 1012,0 hPa 0,0 l/m 8,6 km/h (2 Bft) NO 56 0 min 0,000 mm 0,0 UV-I 0 W/m -3,4 C -4,8 C 12,9 km/h (3 Bft) 97,87 %
15.01.2018 21:48 -2,4 C 3,3 C 93 % 1012,0 hPa 0,0 l/m 10,1 km/h (2 Bft) O-NO 63 0 min 0,000 mm 0,0 UV-I 0 W/m -3,4 C -6,2 C 17,7 km/h (3 Bft) 100,00 %
15.01.2018 21:50 -2,4 C 3,3 C 93 % 1011,9 hPa 0,0 l/m 11,5 km/h (2 Bft) NO 44 0 min 0,000 mm 0,0 UV-I 0 W/m -3,4 C -7,4 C 17,7 km/h (3 Bft) 100,00 %
15.01.2018 21:52 -2,4 C 3,3 C 93 % 1011,9 hPa 0,0 l/m 12,0 km/h (2 Bft) O-NO 70 0 min 0,000 mm 0,0 UV-I 0 W/m -3,4 C -7,8 C 17,7 km/h (3 Bft) 98,00 %
15.01.2018 21:54 -2,4 C 3,3 C 93 % 1011,9 hPa 0,0 l/m 11,7 km/h (2 Bft) O-NO 66 0 min 0,000 mm 0,0 UV-I 0 W/m -3,4 C -7,5 C 16,1 km/h (3 Bft) 100,00 %
15.01.2018 21:56 -2,4 C 3,3 C 93 % 1011,8 hPa 0,0 l/m 13,0 km/h (3 Bft) O-NO 75 0 min 0,000 mm 0,0 UV-I 0 W/m -3,4 C -8,5 C 16,1 km/h (3 Bft) 100,00 %
15.01.2018 21:58 -2,4 C 3,3 C 93 % 1011,7 hPa 0,0 l/m 12,2 km/h (2 Bft) O 79 0 min 0,000 mm 0,0 UV-I 0 W/m -3,4 C -7,9 C 16,1 km/h (3 Bft) 100,00 %
15.01.2018 22:00 -2,4 C 3,3 C 93 % 1011,7 hPa 0,0 l/m 14,5 km/h (3 Bft) O-NO 65 0 min 0,000 mm 0,0 UV-I 0 W/m -3,4 C -9,6 C 19,3 km/h (3 Bft) 97,37 %
15.01.2018 22:02 -2,4 C 3,3 C 93 % 1011,6 hPa 0,0 l/m 14,1 km/h (3 Bft) O-NO 74 0 min 0,000 mm 0,0 UV-I 0 W/m -3,4 C -9,3 C 19,3 km/h (3 Bft) 100,00 %
15.01.2018 22:04 -2,4 C 3,3 C 93 % 1011,5 hPa 0,0 l/m 12,2 km/h (2 Bft) O-NO 68 0 min 0,000 mm 0,0 UV-I 0 W/m -3,4 C -7,9 C 17,7 km/h (3 Bft) 100,00 %
15.01.2018 22:06 -2,4 C 3,3 C 93 % 1011,5 hPa 0,0 l/m 10,9 km/h (2 Bft) O-NO 74 0 min 0,000 mm 0,0 UV-I 0 W/m -3,4 C -6,9 C 16,1 km/h (3 Bft) 100,00 %
15.01.2018 22:08 -2,4 C 3,3 C 93 % 1011,5 hPa 0,0 l/m 11,3 km/h (2 Bft) O-NO 70 0 min 0,000 mm 0,0 UV-I 0 W/m -3,4 C -7,2 C 17,7 km/h (3 Bft) 97,87 %
15.01.2018 22:10 -2,4 C 3,3 C 93 % 1011,5 hPa 0,0 l/m 10,3 km/h (2 Bft) O-NO 70 0 min 0,000 mm 0,0 UV-I 0 W/m -3,4 C -6,4 C 16,1 km/h (3 Bft) 98,00 %
15.01.2018 22:12 -2,4 C 3,3 C 93 % 1011,5 hPa 0,0 l/m 7,9 km/h (2 Bft) O-NO 72 0 min 0,000 mm 0,0 UV-I 0 W/m -3,4 C -4,1 C 12,9 km/h (3 Bft) 100,00 %
15.01.2018 22:14 -2,4 C 3,3 C 93 % 1011,3 hPa 0,0 l/m 8,2 km/h (2 Bft) NO 52 0 min 0,000 mm 0,0 UV-I 0 W/m -3,4 C -4,4 C 14,5 km/h (3 Bft) 97,44 %
15.01.2018 22:16 -2,4 C 3,3 C 93 % 1011,2 hPa 0,0 l/m 13,2 km/h (3 Bft) O-NO 59 0 min 0,000 mm 0,0 UV-I 0 W/m -3,4 C -8,7 C 17,7 km/h (3 Bft) 100,00 %
15.01.2018 22:18 -2,4 C 3,3 C 93 % 1011,1 hPa 0,0 l/m 11,4 km/h (2 Bft) O-NO 67 0 min 0,000 mm 0,0 UV-I 0 W/m -3,4 C -7,3 C 17,7 km/h (3 Bft) 100,00 %
15.01.2018 22:20 -2,4 C 3,3 C 93 % 1011,0 hPa 0,0 l/m 11,0 km/h (2 Bft) O 84 0 min 0,000 mm 0,0 UV-I 0 W/m -3,4 C -7,0 C 16,1 km/h (3 Bft) 100,00 %
15.01.2018 22:22 -2,4 C 3,3 C 93 % 1010,9 hPa 0,0 l/m 12,8 km/h (3 Bft) O-NO 78 0 min 0,000 mm 0,0 UV-I 0 W/m -3,4 C -8,4 C 16,1 km/h (3 Bft) 97,56 %
15.01.2018 22:24 -2,4 C 3,3 C 93 % 1010,9 hPa 0,0 l/m 11,8 km/h (2 Bft) O 94 0 min 0,000 mm 0,0 UV-I 0 W/m -3,4 C -7,6 C 17,7 km/h (3 Bft) 100,00 %
15.01.2018 22:26 -2,4 C 3,3 C 93 % 1010,9 hPa 0,0 l/m 12,5 km/h (3 Bft) O-NO 63 0 min 0,000 mm 0,0 UV-I 0 W/m -3,4 C -8,1 C 19,3 km/h (3 Bft) 100,00 %
15.01.2018 22:28 -2,4 C 3,3 C 93 % 1010,8 hPa 0,0 l/m 10,4 km/h (2 Bft) NO 55 0 min 0,000 mm 0,0 UV-I 0 W/m -3,4 C -6,5 C 14,5 km/h (3 Bft) 100,00 %
15.01.2018 22:30 -2,4 C 3,3 C 93 % 1010,7 hPa 0,0 l/m 11,3 km/h (2 Bft) O-NO 74 0 min 0,000 mm 0,0 UV-I 0 W/m -3,4 C -7,2 C 19,3 km/h (3 Bft) 100,00 %
15.01.2018 22:32 -2,4 C 3,3 C 93 % 1010,6 hPa 0,0 l/m 14,7 km/h (3 Bft) O 96 0 min 0,000 mm 0,0 UV-I 0 W/m -3,4 C -9,7 C 20,9 km/h (4 Bft) 100,00 %
15.01.2018 22:34 -2,4 C 3,3 C 93 % 1010,5 hPa 0,0 l/m 11,4 km/h (2 Bft) O-NO 77 0 min 0,000 mm 0,0 UV-I 0 W/m -3,4 C -7,3 C 14,5 km/h (3 Bft) 100,00 %
15.01.2018 22:36 -2,4 C 3,3 C 93 % 1010,5 hPa 0,0 l/m 10,8 km/h (2 Bft) O-NO 71 0 min 0,000 mm 0,0 UV-I 0 W/m -3,4 C -6,8 C 14,5 km/h (3 Bft) 95,74 %
15.01.2018 22:38 -2,4 C 3,3 C 93 % 1010,4 hPa 0,0 l/m 14,8 km/h (3 Bft) O-NO 71 0 min 0,000 mm 0,0 UV-I 0 W/m -3,4 C -9,8 C 22,5 km/h (4 Bft) 100,00 %
15.01.2018 22:40 -2,3 C 3,3 C 93 % 1010,3 hPa 0,0 l/m 14,1 km/h (3 Bft) O-NO 57 0 min 0,000 mm 0,0 UV-I 0 W/m -3,3 C -9,2 C 19,3 km/h (3 Bft) 100,00 %
15.01.2018 22:42 -2,4 C 3,3 C 93 % 1010,2 hPa 0,0 l/m 14,7 km/h (3 Bft) O-NO 74 0 min 0,000 mm 0,0 UV-I 0 W/m -3,4 C -9,7 C 25,7 km/h (4 Bft) 100,00 %
15.01.2018 22:44 -2,4 C 3,3 C 93 % 1010,0 hPa 0,0 l/m 15,7 km/h (3 Bft) O 89 0 min 0,000 mm 0,0 UV-I 0 W/m -3,4 C -10,3 C 20,9 km/h (4 Bft) 100,00 %
15.01.2018 22:46 -2,4 C 3,3 C 93 % 1010,0 hPa 0,0 l/m 15,5 km/h (3 Bft) O-NO 70 0 min 0,000 mm 0,0 UV-I 0 W/m -3,4 C -10,2 C 20,9 km/h (4 Bft) 98,04 %
15.01.2018 22:48 -2,4 C 3,3 C 93 % 1010,0 hPa 0,0 l/m 12,3 km/h (3 Bft) O-NO 74 0 min 0,000 mm 0,0 UV-I 0 W/m -3,4 C -8,0 C 16,1 km/h (3 Bft) 100,00 %
15.01.2018 22:50 -2,4 C 3,3 C 93 % 1010,0 hPa 0,0 l/m 16,1 km/h (3 Bft) O 99 0 min 0,000 mm 0,0 UV-I 0 W/m -3,4 C -10,6 C 22,5 km/h (4 Bft) 98,00 %
15.01.2018 22:52 -2,3 C 3,3 C 93 % 1009,9 hPa 0,0 l/m 17,4 km/h (3 Bft) O-NO 64 0 min 0,000 mm 0,0 UV-I 0 W/m -3,3 C -11,2 C 24,1 km/h (4 Bft) 93,62 %
15.01.2018 22:54 -2,3 C 3,3 C 93 % 1009,9 hPa 0,0 l/m 18,7 km/h (3 Bft) O-NO 74 0 min 0,000 mm 0,0 UV-I 0 W/m -3,3 C -11,9 C 24,1 km/h (4 Bft) 95,12 %
15.01.2018 22:56 -2,4 C 3,3 C 93 % 1009,9 hPa 0,0 l/m 16,1 km/h (3 Bft) O-NO 58 0 min 0,000 mm 0,0 UV-I 0 W/m -3,4 C -10,6 C 20,9 km/h (4 Bft) 94,34 %
15.01.2018 22:58 -2,4 C 3,3 C 93 % 1009,7 hPa 0,0 l/m 15,3 km/h (3 Bft) O-NO 65 0 min 0,000 mm 0,0 UV-I 0 W/m -3,4 C -10,1 C 20,9 km/h (4 Bft) 97,73 %
15.01.2018 23:00 -2,4 C 3,3 C 93 % 1009,5 hPa 0,0 l/m 15,2 km/h (3 Bft) O-NO 67 0 min 0,000 mm 0,0 UV-I 0 W/m -3,4 C -10,0 C 19,3 km/h (3 Bft) 96,23 %
15.01.2018 23:02 -2,4 C 3,3 C 93 % 1009,4 hPa 0,0 l/m 13,8 km/h (3 Bft) O 83 0 min 0,000 mm 0,0 UV-I 0 W/m -3,4 C -9,1 C 19,3 km/h (3 Bft) 95,24 %
15.01.2018 23:04 -2,4 C 3,3 C 93 % 1009,3 hPa 0,0 l/m 18,0 km/h (3 Bft) O-NO 67 0 min 0,000 mm 0,0 UV-I 0 W/m -3,4 C -11,7 C 22,5 km/h (4 Bft) 95,74 %
15.01.2018 23:06 -2,3 C 3,3 C 93 % 1009,3 hPa 0,0 l/m 15,7 km/h (3 Bft) O-NO 59 0 min 0,000 mm 0,0 UV-I 0 W/m -3,3 C -10,2 C 22,5 km/h (4 Bft) 94,00 %
15.01.2018 23:08 -2,4 C 3,3 C 93 % 1009,3 hPa 0,0 l/m 14,7 km/h (3 Bft) O-NO 62 0 min 0,000 mm 0,0 UV-I 0 W/m -3,4 C -9,7 C 19,3 km/h (3 Bft) 92,11 %
15.01.2018 23:10 -2,4 C 3,3 C 93 % 1009,3 hPa 0,0 l/m 15,0 km/h (3 Bft) O-NO 72 0 min 0,000 mm 0,0 UV-I 0 W/m -3,4 C -9,9 C 19,3 km/h (3 Bft) 94,64 %
15.01.2018 23:12 -2,4 C 3,3 C 93 % 1009,2 hPa 0,0 l/m 13,9 km/h (3 Bft) O-NO 71 0 min 0,000 mm 0,0 UV-I 0 W/m -3,4 C -9,2 C 19,3 km/h (3 Bft) 95,45 %
15.01.2018 23:14 -2,4 C 3,3 C 93 % 1009,2 hPa 0,0 l/m 12,6 km/h (3 Bft) O-NO 69 0 min 0,000 mm 0,0 UV-I 0 W/m -3,4 C -8,2 C 17,7 km/h (3 Bft) 95,45 %
15.01.2018 23:16 -2,4 C 3,3 C 93 % 1009,1 hPa 0,0 l/m 15,9 km/h (3 Bft) O-NO 68 0 min 0,000 mm 0,0 UV-I 0 W/m -3,4 C -10,5 C 20,9 km/h (4 Bft) 96,43 %
15.01.2018 23:18 -2,4 C 3,3 C 93 % 1009,1 hPa 0,0 l/m 16,1 km/h (3 Bft) O 81 0 min 0,000 mm 0,0 UV-I 0 W/m -3,4 C -10,6 C 22,5 km/h (4 Bft) 95,56 %
15.01.2018 23:20 -2,3 C 3,3 C 93 % 1009,2 hPa 0,0 l/m 15,6 km/h (3 Bft) NO 53 0 min 0,000 mm 0,0 UV-I 0 W/m -3,3 C -10,1 C 20,9 km/h (4 Bft) 91,49 %
15.01.2018 23:22 -2,3 C 3,3 C 93 % 1009,2 hPa 0,0 l/m 13,8 km/h (3 Bft) NO 55 0 min 0,000 mm 0,0 UV-I 0 W/m -3,3 C -9,0 C 17,7 km/h (3 Bft) 93,75 %
15.01.2018 23:24 -2,3 C 3,3 C 93 % 1009,3 hPa 0,0 l/m 15,9 km/h (3 Bft) NO 44 0 min 0,000 mm 0,0 UV-I 0 W/m -3,3 C -10,3 C 19,3 km/h (3 Bft) 97,56 %
15.01.2018 23:26 -2,3 C 3,3 C 93 % 1009,3 hPa 0,0 l/m 17,6 km/h (3 Bft) O-NO 69 0 min 0,000 mm 0,0 UV-I 0 W/m -3,3 C -11,3 C 25,7 km/h (4 Bft) 97,73 %
15.01.2018 23:28 -2,3 C 3,3 C 93 % 1009,3 hPa 0,0 l/m 13,5 km/h (3 Bft) O-NO 76 0 min 0,000 mm 0,0 UV-I 0 W/m -3,3 C -8,8 C 20,9 km/h (4 Bft) 98,00 %
15.01.2018 23:30 -2,3 C 3,3 C 93 % 1009,2 hPa 0,0 l/m 16,7 km/h (3 Bft) NO 55 0 min 0,000 mm 0,0 UV-I 0 W/m -3,3 C -10,8 C 20,9 km/h (4 Bft) 96,00 %
15.01.2018 23:32 -2,3 C 3,3 C 93 % 1009,2 hPa 0,0 l/m 13,8 km/h (3 Bft) O-NO 69 0 min 0,000 mm 0,0 UV-I 0 W/m -3,3 C -9,0 C 19,3 km/h (3 Bft) 97,37 %
15.01.2018 23:34 -2,3 C 3,3 C 93 % 1009,2 hPa 0,0 l/m 18,2 km/h (3 Bft) NO 55 0 min 0,000 mm 0,0 UV-I 0 W/m -3,3 C -11,7 C 22,5 km/h (4 Bft) 96,23 %
15.01.2018 23:36 -2,3 C 3,3 C 93 % 1009,1 hPa 0,0 l/m 13,4 km/h (3 Bft) NO 51 0 min 0,000 mm 0,0 UV-I 0 W/m -3,3 C -8,7 C 22,5 km/h (4 Bft) 97,73 %
15.01.2018 23:38 -2,3 C 3,3 C 93 % 1009,1 hPa 0,0 l/m 9,8 km/h (2 Bft) NO 36 0 min 0,000 mm 0,0 UV-I 0 W/m -3,3 C -5,8 C 17,7 km/h (3 Bft) 96,23 %
15.01.2018 23:40 -2,3 C 3,3 C 93 % 1008,9 hPa 0,0 l/m 13,7 km/h (3 Bft) NO 51 0 min 0,000 mm 0,0 UV-I 0 W/m -3,3 C -8,9 C 19,3 km/h (3 Bft) 97,56 %
15.01.2018 23:42 -2,3 C 3,3 C 93 % 1008,8 hPa 0,0 l/m 17,8 km/h (3 Bft) O-NO 65 0 min 0,000 mm 0,0 UV-I 0 W/m -3,3 C -11,4 C 22,5 km/h (4 Bft) 97,92 %
15.01.2018 23:44 -2,3 C 3,3 C 93 % 1008,7 hPa 0,0 l/m 17,9 km/h (3 Bft) O-NO 62 0 min 0,000 mm 0,0 UV-I 0 W/m -3,3 C -11,5 C 25,7 km/h (4 Bft) 97,87 %
15.01.2018 23:46 -2,3 C 3,3 C 93 % 1008,7 hPa 0,0 l/m 20,9 km/h (4 Bft) O-NO 59 0 min 0,000 mm 0,0 UV-I 0 W/m -3,3 C -13,0 C 27,4 km/h (4 Bft) 97,56 %
15.01.2018 23:48 -2,3 C 3,3 C 93 % 1008,6 hPa 0,0 l/m 18,6 km/h (3 Bft) NO 45 0 min 0,000 mm 0,0 UV-I 0 W/m -3,3 C -11,9 C 27,4 km/h (4 Bft) 91,38 %
15.01.2018 23:50 -2,3 C 3,3 C 93 % 1008,5 hPa 0,0 l/m 15,8 km/h (3 Bft) NO 35 0 min 0,000 mm 0,0 UV-I 0 W/m -3,3 C -10,3 C 19,3 km/h (3 Bft) 97,78 %
15.01.2018 23:52 -2,3 C 3,3 C 93 % 1008,3 hPa 0,0 l/m 14,8 km/h (3 Bft) O-NO 67 0 min 0,000 mm 0,0 UV-I 0 W/m -3,3 C -9,6 C 19,3 km/h (3 Bft) 97,87 %
15.01.2018 23:54 -2,3 C 3,3 C 93 % 1008,2 hPa 0,0 l/m 16,5 km/h (3 Bft) O-NO 66 0 min 0,000 mm 0,0 UV-I 0 W/m -3,3 C -10,7 C 22,5 km/h (4 Bft) 95,74 %
15.01.2018 23:56 -2,3 C 3,3 C 93 % 1008,1 hPa 0,0 l/m 15,5 km/h (3 Bft) NO 38 0 min 0,000 mm 0,0 UV-I 0 W/m -3,3 C -10,1 C 20,9 km/h (4 Bft) 97,37 %
15.01.2018 23:58 -2,3 C 3,3 C 93 % 1008,1 hPa 0,0 l/m 17,3 km/h (3 Bft) O-NO 67 0 min 0,000 mm 0,0 UV-I 0 W/m -3,3 C -11,2 C 24,1 km/h (4 Bft) 98,00 %
_ Min-Zeit 21:42 00:00 13:08 23:56 - 18:06 - - - - - - 10:26 23:46 18:06 19:26
Minimum _ -2,5 C 3,3 C 88 % 1008,1 hPa - 3,4 km/h (1 Bft) - - - - - - -3,5 C -13,0 C 4,8 km/h (1 Bft) 87,80 %
_ Max-Zeit 13:54 06:24 04:46 00:32 00:00 23:46 - - 08:02 13:00 00:00 12:52 13:54 14:10 23:46 00:56
Maximum _ -0,9 C 21,7 C 93 % 1023,5 hPa 0,0 l/m 20,9 km/h
O-NO (4 Bft)
- - 2 min 0,051 mm 0,0 UV-I 172 W/m -2,5 C -1,2 C 27,4 km/h
O-NO (4 Bft)
100,00 %
Durchschnitt _ -1,8 C 4,7 C 91 % 1019,4 hPa #0,0 l/m 9,6 km/h (2 Bft) O-NO - #38 min. #0,279 mm 0,0 UV-I 75 W/m -3,0 C -4,9 C 14,1 km/h (3 Bft) 97,65 %